Wetterdaten: Mittwoch, 06.05.2020
Datum Zeit Temp. 2m Temp +5 cm Feuchte A. Luftdruck Regen Wind Richtung Richtung Sonnenschein UV Solar Taupunkt Windchill Windben
06.05.2020 00:00 4,2 C 1,1 C 74 % 1023,9 hPa 0,0 l/m 1,6 km/h (1 Bft) N-NO 22 0 min 0,0 UV-I 0 W/m -0,0 C 4,2 C 3,2 km/h (1 Bft)
06.05.2020 00:01 4,2 C 1,1 C 74 % 1023,9 hPa 0,0 l/m 1,6 km/h (1 Bft) N-NO 22 0 min 0,0 UV-I 0 W/m -0,0 C 4,2 C 3,2 km/h (1 Bft)
06.05.2020 00:02 4,2 C 1,1 C 74 % 1024,1 hPa 0,0 l/m 1,6 km/h (1 Bft) N-NO 22 0 min 0,0 UV-I 0 W/m -0,0 C 4,2 C 3,2 km/h (1 Bft)
06.05.2020 00:03 4,2 C 1,1 C 74 % 1024,0 hPa 0,0 l/m 1,6 km/h (1 Bft) N-NO 22 0 min 0,0 UV-I 0 W/m -0,0 C 4,2 C 3,2 km/h (1 Bft)
06.05.2020 00:04 4,1 C 1,1 C 74 % 1024,0 hPa 0,0 l/m 1,6 km/h (1 Bft) N-NO 22 0 min 0,0 UV-I 0 W/m -0,1 C 4,1 C 3,2 km/h (1 Bft)
06.05.2020 00:05 4,1 C 1,1 C 74 % 1024,0 hPa 0,0 l/m 3,2 km/h (1 Bft) N-NO 22 0 min 0,0 UV-I 0 W/m -0,1 C 4,1 C 3,2 km/h (1 Bft)
06.05.2020 00:06 4,1 C 1,1 C 74 % 1024,1 hPa 0,0 l/m 3,2 km/h (1 Bft) N-NO 22 0 min 0,0 UV-I 0 W/m -0,1 C 4,1 C 3,2 km/h (1 Bft)
06.05.2020 00:07 4,1 C 1,1 C 74 % 1024,1 hPa 0,0 l/m 1,6 km/h (1 Bft) N-NO 22 0 min 0,0 UV-I 0 W/m -0,1 C 4,1 C 3,2 km/h (1 Bft)
06.05.2020 00:08 4,2 C 0,6 C 74 % 1024,0 hPa 0,0 l/m 1,6 km/h (1 Bft) N-NO 22 0 min 0,0 UV-I 0 W/m -0,0 C 4,2 C 1,6 km/h (1 Bft)
06.05.2020 00:09 4,1 C 0,6 C 74 % 1024,0 hPa 0,0 l/m 1,6 km/h (1 Bft) N-NO 22 0 min 0,0 UV-I 0 W/m -0,1 C 4,1 C 3,2 km/h (1 Bft)
06.05.2020 00:10 3,9 C 0,6 C 74 % 1024,1 hPa 0,0 l/m 1,6 km/h (1 Bft) N-NO 22 0 min 0,0 UV-I 0 W/m -0,3 C 3,9 C 1,6 km/h (1 Bft)
06.05.2020 00:11 3,9 C 0,6 C 75 % 1024,1 hPa 0,0 l/m 0,0 km/h (0 Bft) N-NO 22 0 min 0,0 UV-I 0 W/m -0,1 C 3,9 C 1,6 km/h (1 Bft)
06.05.2020 00:12 3,8 C 0,0 C 75 % 1024,1 hPa 0,0 l/m 0,0 km/h (0 Bft) N-NO 22 0 min 0,0 UV-I 0 W/m -0,2 C 3,8 C 1,6 km/h (1 Bft)
06.05.2020 00:13 3,8 C 0,0 C 75 % 1024,1 hPa 0,0 l/m 0,0 km/h (0 Bft) N-NO 22 0 min 0,0 UV-I 0 W/m -0,2 C 3,8 C 1,6 km/h (1 Bft)
06.05.2020 00:14 3,8 C 0,0 C 75 % 1024,2 hPa 0,0 l/m 1,6 km/h (1 Bft) N-NO 22 0 min 0,0 UV-I 0 W/m -0,2 C 3,8 C 3,2 km/h (1 Bft)
06.05.2020 00:15 3,8 C 0,0 C 75 % 1024,2 hPa 0,0 l/m 1,6 km/h (1 Bft) N-NO 22 0 min 0,0 UV-I 0 W/m -0,2 C 3,8 C 3,2 km/h (1 Bft)
06.05.2020 00:16 3,8 C 0,6 C 75 % 1024,2 hPa 0,0 l/m 3,2 km/h (1 Bft) N-NO 22 0 min 0,0 UV-I 0 W/m -0,2 C 3,8 C 3,2 km/h (1 Bft)
06.05.2020 00:17 3,8 C 0,6 C 75 % 1024,2 hPa 0,0 l/m 1,6 km/h (1 Bft) N-NO 22 0 min 0,0 UV-I 0 W/m -0,2 C 3,8 C 3,2 km/h (1 Bft)
06.05.2020 00:18 3,9 C 0,6 C 75 % 1024,1 hPa 0,0 l/m 1,6 km/h (1 Bft) N-NO 22 0 min 0,0 UV-I 0 W/m -0,1 C 3,9 C 3,2 km/h (1 Bft)
06.05.2020 00:19 3,9 C 0,6 C 75 % 1024,1 hPa 0,0 l/m 1,6 km/h (1 Bft) N-NO 22 0 min 0,0 UV-I 0 W/m -0,1 C 3,9 C 3,2 km/h (1 Bft)
06.05.2020 00:20 3,8 C 0,6 C 74 % 1024,2 hPa 0,0 l/m 1,6 km/h (1 Bft) N-NO 22 0 min 0,0 UV-I 0 W/m -0,4 C 3,8 C 1,6 km/h (1 Bft)
06.05.2020 00:21 3,5 C 0,0 C 74 % 1024,2 hPa 0,0 l/m 0,0 km/h (0 Bft) N 0 0 min 0,0 UV-I 0 W/m -0,7 C 3,5 C 0,0 km/h (0 Bft)
06.05.2020 00:22 3,3 C 0,0 C 76 % 1024,2 hPa 0,0 l/m 0,0 km/h (0 Bft) N 0 0 min 0,0 UV-I 0 W/m -0,5 C 3,3 C 0,0 km/h (0 Bft)
06.05.2020 00:23 3,2 C 0,0 C 77 % 1024,3 hPa 0,0 l/m 0,0 km/h (0 Bft) N 0 0 min 0,0 UV-I 0 W/m -0,4 C 3,2 C 0,0 km/h (0 Bft)
06.05.2020 00:24 3,2 C 0,6 C 77 % 1024,3 hPa 0,0 l/m 0,0 km/h (0 Bft) N 0 0 min 0,0 UV-I 0 W/m -0,4 C 3,2 C 0,0 km/h (0 Bft)
06.05.2020 00:25 3,2 C 0,6 C 77 % 1024,2 hPa 0,0 l/m 0,0 km/h (0 Bft) N-NO 22 0 min 0,0 UV-I 0 W/m -0,4 C 3,2 C 1,6 km/h (1 Bft)
06.05.2020 00:26 3,2 C 0,6 C 77 % 1024,3 hPa 0,0 l/m 0,0 km/h (0 Bft) N 0 0 min 0,0 UV-I 0 W/m -0,4 C 3,2 C 0,0 km/h (0 Bft)
06.05.2020 00:27 3,2 C 0,6 C 77 % 1024,3 hPa 0,0 l/m 0,0 km/h (0 Bft) N-NO 22 0 min 0,0 UV-I 0 W/m -0,4 C 3,2 C 1,6 km/h (1 Bft)
06.05.2020 00:28 3,2 C 1,1 C 77 % 1024,2 hPa 0,0 l/m 0,0 km/h (0 Bft) N-NO 22 0 min 0,0 UV-I 0 W/m -0,4 C 3,2 C 1,6 km/h (1 Bft)
06.05.2020 00:29 3,2 C 1,1 C 77 % 1024,3 hPa 0,0 l/m 0,0 km/h (0 Bft) N-NO 22 0 min 0,0 UV-I 0 W/m -0,4 C 3,2 C 1,6 km/h (1 Bft)
06.05.2020 00:30 3,1 C 0,6 C 77 % 1024,2 hPa 0,0 l/m 0,0 km/h (0 Bft) N-NO 22 0 min 0,0 UV-I 0 W/m -0,5 C 3,1 C 1,6 km/h (1 Bft)
06.05.2020 00:31 3,1 C 0,6 C 77 % 1024,3 hPa 0,0 l/m 0,0 km/h (0 Bft) N-NO 22 0 min 0,0 UV-I 0 W/m -0,5 C 3,1 C 1,6 km/h (1 Bft)
06.05.2020 00:32 3,1 C 0,6 C 78 % 1024,2 hPa 0,0 l/m 0,0 km/h (0 Bft) N 0 0 min 0,0 UV-I 0 W/m -0,4 C 3,1 C 0,0 km/h (0 Bft)
06.05.2020 00:33 3,1 C 0,6 C 78 % 1024,4 hPa 0,0 l/m 0,0 km/h (0 Bft) N 0 0 min 0,0 UV-I 0 W/m -0,4 C 3,1 C 0,0 km/h (0 Bft)
06.05.2020 00:34 3,2 C 0,6 C 78 % 1024,2 hPa 0,0 l/m 0,0 km/h (0 Bft) N 0 0 min 0,0 UV-I 0 W/m -0,3 C 3,2 C 0,0 km/h (0 Bft)
06.05.2020 00:35 3,3 C 0,6 C 77 % 1024,2 hPa 0,0 l/m 0,0 km/h (0 Bft) N 0 0 min 0,0 UV-I 0 W/m -0,3 C 3,3 C 0,0 km/h (0 Bft)
06.05.2020 00:36 3,4 C 0,6 C 77 % 1024,3 hPa 0,0 l/m 0,0 km/h (0 Bft) N-NO 22 0 min 0,0 UV-I 0 W/m -0,2 C 3,4 C 1,6 km/h (1 Bft)
06.05.2020 00:37 3,6 C 0,6 C 77 % 1024,3 hPa 0,0 l/m 1,6 km/h (1 Bft) N-NO 22 0 min 0,0 UV-I 0 W/m -0,0 C 3,6 C 3,2 km/h (1 Bft)
06.05.2020 00:38 3,6 C 0,6 C 76 % 1024,3 hPa 0,0 l/m 1,6 km/h (1 Bft) N-NO 22 0 min 0,0 UV-I 0 W/m -0,2 C 3,6 C 3,2 km/h (1 Bft)
06.05.2020 00:39 3,6 C 0,0 C 76 % 1024,3 hPa 0,0 l/m 1,6 km/h (1 Bft) N-NO 22 0 min 0,0 UV-I 0 W/m -0,2 C 3,6 C 3,2 km/h (1 Bft)
06.05.2020 00:40 3,5 C 0,0 C 76 % 1024,3 hPa 0,0 l/m 1,6 km/h (1 Bft) N-NO 22 0 min 0,0 UV-I 0 W/m -0,3 C 3,5 C 3,2 km/h (1 Bft)
06.05.2020 00:41 3,3 C 0,0 C 76 % 1024,3 hPa 0,0 l/m 1,6 km/h (1 Bft) N-NO 22 0 min 0,0 UV-I 0 W/m -0,5 C 3,3 C 3,2 km/h (1 Bft)
06.05.2020 00:42 3,3 C 0,0 C 76 % 1024,3 hPa 0,0 l/m 3,2 km/h (1 Bft) N-NO 22 0 min 0,0 UV-I 0 W/m -0,5 C 3,3 C 3,2 km/h (1 Bft)
06.05.2020 00:43 3,1 C 0,0 C 77 % 1024,3 hPa 0,0 l/m 1,6 km/h (1 Bft) N-NO 22 0 min 0,0 UV-I 0 W/m -0,5 C 3,1 C 3,2 km/h (1 Bft)
06.05.2020 00:44 2,9 C 0,0 C 77 % 1024,3 hPa 0,0 l/m 1,6 km/h (1 Bft) N-NO 22 0 min 0,0 UV-I 0 W/m -0,7 C 2,9 C 3,2 km/h (1 Bft)
06.05.2020 00:45 2,7 C 0,0 C 77 % 1024,3 hPa 0,0 l/m 1,6 km/h (1 Bft) N-NO 22 0 min 0,0 UV-I 0 W/m -0,9 C 2,7 C 3,2 km/h (1 Bft)
06.05.2020 00:46 2,6 C -0,6 C 78 % 1024,3 hPa 0,0 l/m 3,2 km/h (1 Bft) N-NO 22 0 min 0,0 UV-I 0 W/m -0,8 C 2,6 C 3,2 km/h (1 Bft)
06.05.2020 00:47 2,4 C -0,6 C 79 % 1024,4 hPa 0,0 l/m 1,6 km/h (1 Bft) N-NO 22 0 min 0,0 UV-I 0 W/m -0,9 C 2,4 C 3,2 km/h (1 Bft)
06.05.2020 00:48 2,4 C -0,6 C 80 % 1024,3 hPa 0,0 l/m 1,6 km/h (1 Bft) N-NO 22 0 min 0,0 UV-I 0 W/m -0,7 C 2,4 C 1,6 km/h (1 Bft)
06.05.2020 00:49 2,4 C -0,6 C 80 % 1024,3 hPa 0,0 l/m 1,6 km/h (1 Bft) N-NO 22 0 min 0,0 UV-I 0 W/m -0,7 C 2,4 C 1,6 km/h (1 Bft)
06.05.2020 00:50 2,3 C -0,6 C 80 % 1024,4 hPa 0,0 l/m 0,0 km/h (0 Bft) N-NO 22 0 min 0,0 UV-I 0 W/m -0,8 C 2,3 C 1,6 km/h (1 Bft)
06.05.2020 00:51 2,3 C -0,6 C 80 % 1024,4 hPa 0,0 l/m 1,6 km/h (1 Bft) N-NO 22 0 min 0,0 UV-I 0 W/m -0,8 C 2,3 C 3,2 km/h (1 Bft)
06.05.2020 00:52 2,2 C -0,6 C 80 % 1024,4 hPa 0,0 l/m 0,0 km/h (0 Bft) N-NO 22 0 min 0,0 UV-I 0 W/m -0,9 C 2,2 C 1,6 km/h (1 Bft)
06.05.2020 00:53 2,2 C -0,6 C 80 % 1024,3 hPa 0,0 l/m 1,6 km/h (1 Bft) N-NO 22 0 min 0,0 UV-I 0 W/m -0,9 C 2,2 C 3,2 km/h (1 Bft)
06.05.2020 00:54 2,2 C -0,6 C 80 % 1024,3 hPa 0,0 l/m 1,6 km/h (1 Bft) N-NO 22 0 min 0,0 UV-I 0 W/m -0,9 C 2,2 C 3,2 km/h (1 Bft)
06.05.2020 00:55 2,2 C -0,6 C 81 % 1024,5 hPa 0,0 l/m 3,2 km/h (1 Bft) N-NO 22 0 min 0,0 UV-I 0 W/m -0,7 C 2,2 C 3,2 km/h (1 Bft)
06.05.2020 00:56 2,1 C -0,6 C 81 % 1024,4 hPa 0,0 l/m 3,2 km/h (1 Bft) N-NO 22 0 min 0,0 UV-I 0 W/m -0,8 C 2,1 C 3,2 km/h (1 Bft)
06.05.2020 00:57 2,1 C -0,6 C 81 % 1024,4 hPa 0,0 l/m 1,6 km/h (1 Bft) N-NO 22 0 min 0,0 UV-I 0 W/m -0,8 C 2,1 C 3,2 km/h (1 Bft)
06.05.2020 00:58 2,1 C -1,1 C 81 % 1024,4 hPa 0,0 l/m 1,6 km/h (1 Bft) N-NO 22 0 min 0,0 UV-I 0 W/m -0,8 C 2,1 C 3,2 km/h (1 Bft)
06.05.2020 00:59 2,0 C -1,1 C 81 % 1024,4 hPa 0,0 l/m 1,6 km/h (1 Bft) N-NO 22 0 min 0,0 UV-I 0 W/m -0,9 C 2,0 C 1,6 km/h (1 Bft)
06.05.2020 01:00 1,9 C -1,1 C 82 % 1024,4 hPa 0,0 l/m 1,6 km/h (1 Bft) N-NO 22 0 min 0,0 UV-I 0 W/m -0,8 C 1,9 C 1,6 km/h (1 Bft)
06.05.2020 01:01 1,9 C -1,1 C 82 % 1024,4 hPa 0,0 l/m 1,6 km/h (1 Bft) N-NO 22 0 min 0,0 UV-I 0 W/m -0,8 C 1,9 C 1,6 km/h (1 Bft)
06.05.2020 01:02 1,9 C -1,1 C 82 % 1024,3 hPa 0,0 l/m 0,0 km/h (0 Bft) N-NO 22 0 min 0,0 UV-I 0 W/m -0,8 C 1,9 C 1,6 km/h (1 Bft)
06.05.2020 01:03 1,8 C -1,1 C 81 % 1024,4 hPa 0,0 l/m 0,0 km/h (0 Bft) N 0 0 min 0,0 UV-I 0 W/m -1,1 C 1,8 C 0,0 km/h (0 Bft)
06.05.2020 01:04 1,7 C -1,1 C 82 % 1024,4 hPa 0,0 l/m 0,0 km/h (0 Bft) N-NO 22 0 min 0,0 UV-I 0 W/m -1,0 C 1,7 C 1,6 km/h (1 Bft)
06.05.2020 01:05 1,6 C -1,1 C 82 % 1024,4 hPa 0,0 l/m 0,0 km/h (0 Bft) N 0 0 min 0,0 UV-I 0 W/m -1,1 C 1,6 C 0,0 km/h (0 Bft)
06.05.2020 01:06 1,6 C -1,1 C 82 % 1024,5 hPa 0,0 l/m 0,0 km/h (0 Bft) N 0 0 min 0,0 UV-I 0 W/m -1,1 C 1,6 C 0,0 km/h (0 Bft)
06.05.2020 01:07 1,6 C -1,1 C 83 % 1024,4 hPa 0,0 l/m 0,0 km/h (0 Bft) N 0 0 min 0,0 UV-I 0 W/m -1,0 C 1,6 C 0,0 km/h (0 Bft)
06.05.2020 01:08 1,4 C -1,1 C 83 % 1024,4 hPa 0,0 l/m 0,0 km/h (0 Bft) N-NO 22 0 min 0,0 UV-I 0 W/m -1,2 C 1,4 C 1,6 km/h (1 Bft)
06.05.2020 01:09 1,4 C -1,1 C 83 % 1024,6 hPa 0,0 l/m 0,0 km/h (0 Bft) N-NO 22 0 min 0,0 UV-I 0 W/m -1,2 C 1,4 C 1,6 km/h (1 Bft)
06.05.2020 01:10 1,4 C -0,6 C 83 % 1024,6 hPa 0,0 l/m 0,0 km/h (0 Bft) N 0 0 min 0,0 UV-I 0 W/m -1,2 C 1,4 C 0,0 km/h (0 Bft)
06.05.2020 01:11 1,4 C -0,6 C 83 % 1024,6 hPa 0,0 l/m 0,0 km/h (0 Bft) N-NO 22 0 min 0,0 UV-I 0 W/m -1,2 C 1,4 C 1,6 km/h (1 Bft)
06.05.2020 01:12 1,4 C -0,6 C 83 % 1024,6 hPa 0,0 l/m 0,0 km/h (0 Bft) N-NO 22 0 min 0,0 UV-I 0 W/m -1,2 C 1,4 C 1,6 km/h (1 Bft)
06.05.2020 01:13 1,4 C -0,6 C 83 % 1024,4 hPa 0,0 l/m 0,0 km/h (0 Bft) N 0 0 min 0,0 UV-I 0 W/m -1,2 C 1,4 C 0,0 km/h (0 Bft)
06.05.2020 01:14 1,3 C -0,6 C 83 % 1024,4 hPa 0,0 l/m 0,0 km/h (0 Bft) N-NO 22 0 min 0,0 UV-I 0 W/m -1,3 C 1,3 C 1,6 km/h (1 Bft)
06.05.2020 01:15 1,3 C -0,6 C 83 % 1024,6 hPa 0,0 l/m 0,0 km/h (0 Bft) N-NO 22 0 min 0,0 UV-I 0 W/m -1,3 C 1,3 C 1,6 km/h (1 Bft)
06.05.2020 01:16 1,3 C -0,6 C 84 % 1024,6 hPa 0,0 l/m 1,6 km/h (1 Bft) N-NO 22 0 min 0,0 UV-I 0 W/m -1,1 C 1,3 C 1,6 km/h (1 Bft)
06.05.2020 01:17 1,3 C -0,6 C 84 % 1024,6 hPa 0,0 l/m 1,6 km/h (1 Bft) N-NO 22 0 min 0,0 UV-I 0 W/m -1,1 C 1,3 C 1,6 km/h (1 Bft)
06.05.2020 01:18 1,3 C -0,6 C 84 % 1024,6 hPa 0,0 l/m 1,6 km/h (1 Bft) N-NO 22 0 min 0,0 UV-I 0 W/m -1,1 C 1,3 C 3,2 km/h (1 Bft)
06.05.2020 01:19 1,3 C -1,1 C 84 % 1024,6 hPa 0,0 l/m 1,6 km/h (1 Bft) N-NO 22 0 min 0,0 UV-I 0 W/m -1,1 C 1,3 C 3,2 km/h (1 Bft)
06.05.2020 01:20 1,4 C -1,1 C 84 % 1024,6 hPa 0,0 l/m 3,2 km/h (1 Bft) N-NO 22 0 min 0,0 UV-I 0 W/m -1,0 C 1,4 C 3,2 km/h (1 Bft)
06.05.2020 01:21 1,4 C -1,1 C 84 % 1024,6 hPa 0,0 l/m 3,2 km/h (1 Bft) N-NO 22 0 min 0,0 UV-I 0 W/m -1,0 C 1,4 C 3,2 km/h (1 Bft)
06.05.2020 01:22 1,5 C -0,6 C 84 % 1025,3 hPa 0,0 l/m 3,2 km/h (1 Bft) N-NO 22 0 min 0,0 UV-I 0 W/m -0,9 C 1,5 C 3,2 km/h (1 Bft)
06.05.2020 01:23 1,6 C -0,6 C 84 % 1024,8 hPa 0,0 l/m 3,2 km/h (1 Bft) N-NO 22 0 min 0,0 UV-I 0 W/m -0,8 C 1,6 C 3,2 km/h (1 Bft)
06.05.2020 01:24 1,6 C -0,6 C 83 % 1024,7 hPa 0,0 l/m 1,6 km/h (1 Bft) N-NO 22 0 min 0,0 UV-I 0 W/m -1,0 C 1,6 C 3,2 km/h (1 Bft)
06.05.2020 01:25 1,7 C -0,6 C 83 % 1024,7 hPa 0,0 l/m 1,6 km/h (1 Bft) N-NO 22 0 min 0,0 UV-I 0 W/m -0,9 C 1,7 C 3,2 km/h (1 Bft)
06.05.2020 01:26 1,6 C -0,6 C 83 % 1024,7 hPa 0,0 l/m 1,6 km/h (1 Bft) N-NO 22 0 min 0,0 UV-I 0 W/m -1,0 C 1,6 C 3,2 km/h (1 Bft)
06.05.2020 01:27 1,6 C -0,6 C 83 % 1024,7 hPa 0,0 l/m 1,6 km/h (1 Bft) N-NO 22 0 min 0,0 UV-I 0 W/m -1,0 C 1,6 C 3,2 km/h (1 Bft)
06.05.2020 01:28 1,5 C -1,1 C 82 % 1024,7 hPa 0,0 l/m 0,0 km/h (0 Bft) N 0 0 min 0,0 UV-I 0 W/m -1,2 C 1,5 C 0,0 km/h (0 Bft)
06.05.2020 01:29 1,3 C -1,1 C 82 % 1024,6 hPa 0,0 l/m 0,0 km/h (0 Bft) N 0 0 min 0,0 UV-I 0 W/m -1,4 C 1,3 C 0,0 km/h (0 Bft)
06.05.2020 01:30 1,2 C -1,1 C 82 % 1024,7 hPa 0,0 l/m 0,0 km/h (0 Bft) N 0 0 min 0,0 UV-I 0 W/m -1,5 C 1,2 C 0,0 km/h (0 Bft)
06.05.2020 01:31 1,0 C -1,1 C 83 % 1024,7 hPa 0,0 l/m 0,0 km/h (0 Bft) N 0 0 min 0,0 UV-I 0 W/m -1,6 C 1,0 C 0,0 km/h (0 Bft)
06.05.2020 01:32 0,9 C -1,7 C 84 % 1024,7 hPa 0,0 l/m 0,0 km/h (0 Bft) N 0 0 min 0,0 UV-I 0 W/m -1,5 C 0,9 C 0,0 km/h (0 Bft)
06.05.2020 01:33 0,8 C -1,7 C 84 % 1024,7 hPa 0,0 l/m 0,0 km/h (0 Bft) N 0 0 min 0,0 UV-I 0 W/m -1,6 C 0,8 C 0,0 km/h (0 Bft)
06.05.2020 01:34 0,8 C -1,7 C 84 % 1024,7 hPa 0,0 l/m 0,0 km/h (0 Bft) N 0 0 min 0,0 UV-I 0 W/m -1,6 C 0,8 C 0,0 km/h (0 Bft)
06.05.2020 01:35 0,7 C -1,7 C 84 % 1024,6 hPa 0,0 l/m 0,0 km/h (0 Bft) N-NO 22 0 min 0,0 UV-I 0 W/m -1,7 C 0,7 C 1,6 km/h (1 Bft)
06.05.2020 01:36 0,7 C -1,7 C 84 % 1024,7 hPa 0,0 l/m 0,0 km/h (0 Bft) N-NO 22 0 min 0,0 UV-I 0 W/m -1,7 C 0,7 C 1,6 km/h (1 Bft)
06.05.2020 01:37 0,6 C -1,7 C 85 % 1024,6 hPa 0,0 l/m 1,6 km/h (1 Bft) N-NO 22 0 min 0,0 UV-I 0 W/m -1,6 C 0,6 C 3,2 km/h (1 Bft)
06.05.2020 01:38 0,6 C -1,7 C 85 % 1024,6 hPa 0,0 l/m 1,6 km/h (1 Bft) N-NO 22 0 min 0,0 UV-I 0 W/m -1,6 C 0,6 C 3,2 km/h (1 Bft)
06.05.2020 01:39 0,5 C -1,7 C 85 % 1024,7 hPa 0,0 l/m 1,6 km/h (1 Bft) N-NO 22 0 min 0,0 UV-I 0 W/m -1,7 C 0,5 C 3,2 km/h (1 Bft)
06.05.2020 01:40 0,6 C -1,7 C 86 % 1024,7 hPa 0,0 l/m 1,6 km/h (1 Bft) N-NO 22 0 min 0,0 UV-I 0 W/m -1,5 C 0,6 C 1,6 km/h (1 Bft)
06.05.2020 01:41 0,6 C -1,7 C 86 % 1024,7 hPa 0,0 l/m 0,0 km/h (0 Bft) N-NO 22 0 min 0,0 UV-I 0 W/m -1,5 C 0,6 C 1,6 km/h (1 Bft)
06.05.2020 01:42 0,7 C -1,7 C 86 % 1024,7 hPa 0,0 l/m 0,0 km/h (0 Bft) N 0 0 min 0,0 UV-I 0 W/m -1,4 C 0,7 C 0,0 km/h (0 Bft)
06.05.2020 01:43 0,7 C -1,7 C 86 % 1024,7 hPa 0,0 l/m 0,0 km/h (0 Bft) N 0 0 min 0,0 UV-I 0 W/m -1,4 C 0,7 C 0,0 km/h (0 Bft)
06.05.2020 01:44 0,7 C -1,7 C 85 % 1024,7 hPa 0,0 l/m 0,0 km/h (0 Bft) N 0 0 min 0,0 UV-I 0 W/m -1,5 C 0,7 C 0,0 km/h (0 Bft)
06.05.2020 01:45 0,7 C -1,7 C 85 % 1024,6 hPa 0,0 l/m 0,0 km/h (0 Bft) N 0 0 min 0,0 UV-I 0 W/m -1,5 C 0,7 C 0,0 km/h (0 Bft)
06.05.2020 01:46 0,7 C -1,7 C 86 % 1024,7 hPa 0,0 l/m 0,0 km/h (0 Bft) N 0 0 min 0,0 UV-I 0 W/m -1,4 C 0,7 C 0,0 km/h (0 Bft)
06.05.2020 01:47 0,7 C -1,7 C 85 % 1024,7 hPa 0,0 l/m 0,0 km/h (0 Bft) N 0 0 min 0,0 UV-I 0 W/m -1,5 C 0,7 C 0,0 km/h (0 Bft)
06.05.2020 01:48 0,7 C -1,7 C 86 % 1024,7 hPa 0,0 l/m 0,0 km/h (0 Bft) N 0 0 min 0,0 UV-I 0 W/m -1,4 C 0,7 C 0,0 km/h (0 Bft)
06.05.2020 01:49 0,7 C -1,7 C 86 % 1024,6 hPa 0,0 l/m 0,0 km/h (0 Bft) N 0 0 min 0,0 UV-I 0 W/m -1,4 C 0,7 C 0,0 km/h (0 Bft)
06.05.2020 01:50 0,6 C -1,7 C 86 % 1024,7 hPa 0,0 l/m 0,0 km/h (0 Bft) N 0 0 min 0,0 UV-I 0 W/m -1,5 C 0,6 C 0,0 km/h (0 Bft)
06.05.2020 01:51 0,6 C -1,7 C 86 % 1024,6 hPa 0,0 l/m 0,0 km/h (0 Bft) N 0 0 min 0,0 UV-I 0 W/m -1,5 C 0,6 C 0,0 km/h (0 Bft)
06.05.2020 01:52 0,6 C -1,7 C 86 % 1024,6 hPa 0,0 l/m 0,0 km/h (0 Bft) N 0 0 min 0,0 UV-I 0 W/m -1,5 C 0,6 C 0,0 km/h (0 Bft)
06.05.2020 01:53 0,6 C -1,7 C 86 % 1024,7 hPa 0,0 l/m 0,0 km/h (0 Bft) N 0 0 min 0,0 UV-I 0 W/m -1,5 C 0,6 C 0,0 km/h (0 Bft)
06.05.2020 01:54 0,7 C -1,7 C 86 % 1024,6 hPa 0,0 l/m 0,0 km/h (0 Bft) N 0 0 min 0,0 UV-I 0 W/m -1,4 C 0,7 C 0,0 km/h (0 Bft)
06.05.2020 01:55 0,7 C -1,7 C 86 % 1024,6 hPa 0,0 l/m 0,0 km/h (0 Bft) N 0 0 min 0,0 UV-I 0 W/m -1,4 C 0,7 C 0,0 km/h (0 Bft)
06.05.2020 01:56 0,8 C -1,7 C 86 % 1024,7 hPa 0,0 l/m 0,0 km/h (0 Bft) N 0 0 min 0,0 UV-I 0 W/m -1,3 C 0,8 C 0,0 km/h (0 Bft)
06.05.2020 01:57 0,8 C -1,7 C 86 % 1024,6 hPa 0,0 l/m 0,0 km/h (0 Bft) N 0 0 min 0,0 UV-I 0 W/m -1,3 C 0,8 C 0,0 km/h (0 Bft)
06.05.2020 01:58 0,8 C -1,7 C 86 % 1024,6 hPa 0,0 l/m 0,0 km/h (0 Bft) N 0 0 min 0,0 UV-I 0 W/m -1,3 C 0,8 C 0,0 km/h (0 Bft)
06.05.2020 01:59 0,8 C -1,7 C 86 % 1024,6 hPa 0,0 l/m 0,0 km/h (0 Bft) N 0 0 min 0,0 UV-I 0 W/m -1,3 C 0,8 C 0,0 km/h (0 Bft)
06.05.2020 02:00 0,8 C -2,2 C 86 % 1024,6 hPa 0,0 l/m 0,0 km/h (0 Bft) N 0 0 min 0,0 UV-I 0 W/m -1,3 C 0,8 C 0,0 km/h (0 Bft)
06.05.2020 02:01 0,7 C -2,2 C 85 % 1024,6 hPa 0,0 l/m 0,0 km/h (0 Bft) N 0 0 min 0,0 UV-I 0 W/m -1,5 C 0,7 C 0,0 km/h (0 Bft)
06.05.2020 02:02 0,7 C -2,2 C 86 % 1024,7 hPa 0,0 l/m 0,0 km/h (0 Bft) N 0 0 min 0,0 UV-I 0 W/m -1,4 C 0,7 C 0,0 km/h (0 Bft)
06.05.2020 02:03 0,7 C -2,2 C 86 % 1024,6 hPa 0,0 l/m 0,0 km/h (0 Bft) N 0 0 min 0,0 UV-I 0 W/m -1,4 C 0,7 C 0,0 km/h (0 Bft)
06.05.2020 02:04 0,7 C -1,7 C 86 % 1024,6 hPa 0,0 l/m 0,0 km/h (0 Bft) N 0 0 min 0,0 UV-I 0 W/m -1,4 C 0,7 C 0,0 km/h (0 Bft)
06.05.2020 02:05 0,6 C -1,7 C 86 % 1024,5 hPa 0,0 l/m 0,0 km/h (0 Bft) N 0 0 min 0,0 UV-I 0 W/m -1,5 C 0,6 C 0,0 km/h (0 Bft)
06.05.2020 02:06 0,4 C -1,7 C 86 % 1024,5 hPa 0,0 l/m 0,0 km/h (0 Bft) N 0 0 min 0,0 UV-I 0 W/m -1,7 C 0,4 C 0,0 km/h (0 Bft)
06.05.2020 02:07 0,4 C -1,7 C 86 % 1024,6 hPa 0,0 l/m 0,0 km/h (0 Bft) N 0 0 min 0,0 UV-I 0 W/m -1,7 C 0,4 C 0,0 km/h (0 Bft)
06.05.2020 02:08 0,4 C -1,7 C 86 % 1024,6 hPa 0,0 l/m 0,0 km/h (0 Bft) N 0 0 min 0,0 UV-I 0 W/m -1,7 C 0,4 C 0,0 km/h (0 Bft)
06.05.2020 02:09 0,4 C -1,7 C 87 % 1024,7 hPa 0,0 l/m 0,0 km/h (0 Bft) N 0 0 min 0,0 UV-I 0 W/m -1,5 C 0,4 C 0,0 km/h (0 Bft)
06.05.2020 02:10 0,4 C -1,7 C 87 % 1024,6 hPa 0,0 l/m 0,0 km/h (0 Bft) N 0 0 min 0,0 UV-I 0 W/m -1,5 C 0,4 C 0,0 km/h (0 Bft)
06.05.2020 02:11 0,3 C -1,7 C 87 % 1024,7 hPa 0,0 l/m 0,0 km/h (0 Bft) N-NO 22 0 min 0,0 UV-I 0 W/m -1,6 C 0,3 C 1,6 km/h (1 Bft)
06.05.2020 02:12 0,3 C -1,7 C 86 % 1024,6 hPa 0,0 l/m 0,0 km/h (0 Bft) N 0 0 min 0,0 UV-I 0 W/m -1,8 C 0,3 C 0,0 km/h (0 Bft)
06.05.2020 02:13 0,2 C -2,2 C 86 % 1024,6 hPa 0,0 l/m 0,0 km/h (0 Bft) N 0 0 min 0,0 UV-I 0 W/m -1,9 C 0,2 C 0,0 km/h (0 Bft)
06.05.2020 02:14 0,0 C -2,2 C 86 % 1024,7 hPa 0,0 l/m 1,6 km/h (1 Bft) N-NO 22 0 min 0,0 UV-I 0 W/m -2,1 C 0,0 C 1,6 km/h (1 Bft)
06.05.2020 02:15 -0,1 C -2,2 C 86 % 1024,6 hPa 0,0 l/m 1,6 km/h (1 Bft) N-NO 22 0 min 0,0 UV-I 0 W/m -2,2 C -0,1 C 1,6 km/h (1 Bft)
06.05.2020 02:16 -0,1 C -2,2 C 87 % 1024,6 hPa 0,0 l/m 1,6 km/h (1 Bft) N-NO 22 0 min 0,0 UV-I 0 W/m -2,0 C -0,1 C 1,6 km/h (1 Bft)
06.05.2020 02:17 -0,1 C -2,2 C 87 % 1024,6 hPa 0,0 l/m 1,6 km/h (1 Bft) N-NO 22 0 min 0,0 UV-I 0 W/m -2,0 C -0,1 C 1,6 km/h (1 Bft)
06.05.2020 02:18 -0,1 C -2,2 C 87 % 1024,6 hPa 0,0 l/m 0,0 km/h (0 Bft) N-NO 22 0 min 0,0 UV-I 0 W/m -2,0 C -0,1 C 1,6 km/h (1 Bft)
06.05.2020 02:19 -0,1 C -2,8 C 88 % 1024,6 hPa 0,0 l/m 1,6 km/h (1 Bft) N-NO 22 0 min 0,0 UV-I 0 W/m -1,8 C -0,1 C 1,6 km/h (1 Bft)
06.05.2020 02:20 -0,1 C -2,8 C 87 % 1024,6 hPa 0,0 l/m 1,6 km/h (1 Bft) N-NO 22 0 min 0,0 UV-I 0 W/m -2,0 C -0,1 C 1,6 km/h (1 Bft)
06.05.2020 02:21 -0,2 C -2,8 C 87 % 1024,5 hPa 0,0 l/m 1,6 km/h (1 Bft) N-NO 22 0 min 0,0 UV-I 0 W/m -2,1 C -0,2 C 3,2 km/h (1 Bft)
06.05.2020 02:22 -0,2 C -2,8 C 88 % 1024,6 hPa 0,0 l/m 1,6 km/h (1 Bft) N-NO 22 0 min 0,0 UV-I 0 W/m -1,9 C -0,2 C 3,2 km/h (1 Bft)
06.05.2020 02:23 -0,2 C -2,8 C 88 % 1024,5 hPa 0,0 l/m 1,6 km/h (1 Bft) N-NO 22 0 min 0,0 UV-I 0 W/m -1,9 C -0,2 C 3,2 km/h (1 Bft)
06.05.2020 02:24 -0,2 C -2,8 C 88 % 1024,4 hPa 0,0 l/m 1,6 km/h (1 Bft) N-NO 22 0 min 0,0 UV-I 0 W/m -1,9 C -0,2 C 3,2 km/h (1 Bft)
06.05.2020 02:25 -0,2 C -2,2 C 88 % 1024,6 hPa 0,0 l/m 1,6 km/h (1 Bft) N-NO 22 0 min 0,0 UV-I 0 W/m -1,9 C -0,2 C 3,2 km/h (1 Bft)
06.05.2020 02:26 -0,1 C -2,2 C 88 % 1024,5 hPa 0,0 l/m 1,6 km/h (1 Bft) N-NO 22 0 min 0,0 UV-I 0 W/m -1,8 C -0,1 C 1,6 km/h (1 Bft)
06.05.2020 02:27 -0,1 C -2,2 C 89 % 1024,6 hPa 0,0 l/m 1,6 km/h (1 Bft) N-NO 22 0 min 0,0 UV-I 0 W/m -1,7 C -0,1 C 1,6 km/h (1 Bft)
06.05.2020 02:28 -0,1 C -2,2 C 89 % 1024,6 hPa 0,0 l/m 0,0 km/h (0 Bft) N 0 0 min 0,0 UV-I 0 W/m -1,7 C -0,1 C 0,0 km/h (0 Bft)
06.05.2020 02:29 0,0 C -2,2 C 88 % 1024,4 hPa 0,0 l/m 0,0 km/h (0 Bft) N-NO 22 0 min 0,0 UV-I 0 W/m -1,7 C 0,0 C 1,6 km/h (1 Bft)
06.05.2020 02:30 0,0 C -2,2 C 89 % 1024,5 hPa 0,0 l/m 1,6 km/h (1 Bft) N-NO 22 0 min 0,0 UV-I 0 W/m -1,6 C 0,0 C 1,6 km/h (1 Bft)
06.05.2020 02:31 0,1 C -2,2 C 89 % 1024,4 hPa 0,0 l/m 1,6 km/h (1 Bft) N-NO 22 0 min 0,0 UV-I 0 W/m -1,5 C 0,1 C 1,6 km/h (1 Bft)
06.05.2020 02:32 0,1 C -2,2 C 88 % 1024,5 hPa 0,0 l/m 0,0 km/h (0 Bft) N-NO 22 0 min 0,0 UV-I 0 W/m -1,6 C 0,1 C 1,6 km/h (1 Bft)
06.05.2020 02:33 0,1 C -2,2 C 89 % 1024,6 hPa 0,0 l/m 0,0 km/h (0 Bft) N 0 0 min 0,0 UV-I 0 W/m -1,5 C 0,1 C 0,0 km/h (0 Bft)
06.05.2020 02:34 0,1 C -2,2 C 88 % 1024,5 hPa 0,0 l/m 0,0 km/h (0 Bft) N 0 0 min 0,0 UV-I 0 W/m -1,6 C 0,1 C 0,0 km/h (0 Bft)
06.05.2020 02:35 0,1 C -2,2 C 88 % 1024,6 hPa 0,0 l/m 0,0 km/h (0 Bft) N 0 0 min 0,0 UV-I 0 W/m -1,6 C 0,1 C 0,0 km/h (0 Bft)
06.05.2020 02:36 -0,1 C -2,8 C 88 % 1024,4 hPa 0,0 l/m 0,0 km/h (0 Bft) N 0 0 min 0,0 UV-I 0 W/m -1,8 C -0,1 C 0,0 km/h (0 Bft)
06.05.2020 02:37 -0,1 C -2,8 C 87 % 1024,4 hPa 0,0 l/m 0,0 km/h (0 Bft) N 0 0 min 0,0 UV-I 0 W/m -2,0 C -0,1 C 0,0 km/h (0 Bft)
06.05.2020 02:38 -0,2 C -2,8 C 88 % 1024,4 hPa 0,0 l/m 0,0 km/h (0 Bft) N 0 0 min 0,0 UV-I 0 W/m -1,9 C -0,2 C 0,0 km/h (0 Bft)
06.05.2020 02:39 -0,2 C -2,8 C 88 % 1024,5 hPa 0,0 l/m 0,0 km/h (0 Bft) N 0 0 min 0,0 UV-I 0 W/m -1,9 C -0,2 C 0,0 km/h (0 Bft)
06.05.2020 02:40 -0,3 C -2,8 C 88 % 1024,4 hPa 0,0 l/m 0,0 km/h (0 Bft) N 0 0 min 0,0 UV-I 0 W/m -2,0 C -0,3 C 0,0 km/h (0 Bft)
06.05.2020 02:41 -0,3 C -2,8 C 88 % 1024,4 hPa 0,0 l/m 0,0 km/h (0 Bft) N 0 0 min 0,0 UV-I 0 W/m -2,0 C -0,3 C 0,0 km/h (0 Bft)
06.05.2020 02:42 -0,2 C -2,8 C 88 % 1024,4 hPa 0,0 l/m 0,0 km/h (0 Bft) N 0 0 min 0,0 UV-I 0 W/m -1,9 C -0,2 C 0,0 km/h (0 Bft)
06.05.2020 02:43 -0,2 C -2,8 C 88 % 1024,4 hPa 0,0 l/m 0,0 km/h (0 Bft) N 0 0 min 0,0 UV-I 0 W/m -1,9 C -0,2 C 0,0 km/h (0 Bft)
06.05.2020 02:44 -0,2 C -2,8 C 88 % 1024,6 hPa 0,0 l/m 0,0 km/h (0 Bft) N 0 0 min 0,0 UV-I 0 W/m -1,9 C -0,2 C 0,0 km/h (0 Bft)
06.05.2020 02:45 -0,2 C -2,8 C 88 % 1024,6 hPa 0,0 l/m 0,0 km/h (0 Bft) N 0 0 min 0,0 UV-I 0 W/m -1,9 C -0,2 C 0,0 km/h (0 Bft)
06.05.2020 02:46 -0,3 C -2,8 C 88 % 1024,4 hPa 0,0 l/m 0,0 km/h (0 Bft) N 0 0 min 0,0 UV-I 0 W/m -2,0 C -0,3 C 0,0 km/h (0 Bft)
06.05.2020 02:47 -0,3 C -2,8 C 88 % 1024,5 hPa 0,0 l/m 0,0 km/h (0 Bft) N 0 0 min 0,0 UV-I 0 W/m -2,0 C -0,3 C 0,0 km/h (0 Bft)
06.05.2020 02:48 -0,5 C -2,8 C 88 % 1024,5 hPa 0,0 l/m 0,0 km/h (0 Bft) N 0 0 min 0,0 UV-I 0 W/m -2,2 C -0,5 C 0,0 km/h (0 Bft)
06.05.2020 02:49 -0,6 C -2,8 C 88 % 1024,6 hPa 0,0 l/m 0,0 km/h (0 Bft) N 0 0 min 0,0 UV-I 0 W/m -2,3 C -0,6 C 0,0 km/h (0 Bft)
06.05.2020 02:50 -0,6 C -2,8 C 88 % 1024,6 hPa 0,0 l/m 0,0 km/h (0 Bft) N 0 0 min 0,0 UV-I 0 W/m -2,3 C -0,6 C 0,0 km/h (0 Bft)
06.05.2020 02:51 -0,6 C -2,8 C 88 % 1024,6 hPa 0,0 l/m 0,0 km/h (0 Bft) N 0 0 min 0,0 UV-I 0 W/m -2,3 C -0,6 C 0,0 km/h (0 Bft)
06.05.2020 02:52 -0,6 C -2,8 C 88 % 1024,6 hPa 0,0 l/m 0,0 km/h (0 Bft) N 0 0 min 0,0 UV-I 0 W/m -2,3 C -0,6 C 0,0 km/h (0 Bft)
06.05.2020 02:53 -0,6 C -2,8 C 88 % 1024,6 hPa 0,0 l/m 0,0 km/h (0 Bft) N 0 0 min 0,0 UV-I 0 W/m -2,3 C -0,6 C 0,0 km/h (0 Bft)
06.05.2020 02:54 -0,6 C -2,8 C 88 % 1024,5 hPa 0,0 l/m 0,0 km/h (0 Bft) N 0 0 min 0,0 UV-I 0 W/m -2,3 C -0,6 C 0,0 km/h (0 Bft)
06.05.2020 02:55 -0,6 C -2,8 C 88 % 1024,6 hPa 0,0 l/m 0,0 km/h (0 Bft) N 0 0 min 0,0 UV-I 0 W/m -2,3 C -0,6 C 0,0 km/h (0 Bft)
06.05.2020 02:56 -0,6 C -2,8 C 88 % 1024,7 hPa 0,0 l/m 0,0 km/h (0 Bft) N 0 0 min 0,0 UV-I 0 W/m -2,3 C -0,6 C 0,0 km/h (0 Bft)
06.05.2020 02:57 -0,6 C -2,8 C 88 % 1024,6 hPa 0,0 l/m 0,0 km/h (0 Bft) N 0 0 min 0,0 UV-I 0 W/m -2,3 C -0,6 C 0,0 km/h (0 Bft)
06.05.2020 02:58 -0,6 C -2,2 C 88 % 1024,6 hPa 0,0 l/m 0,0 km/h (0 Bft) N 0 0 min 0,0 UV-I 0 W/m -2,3 C -0,6 C 0,0 km/h (0 Bft)
06.05.2020 02:59 -0,6 C -2,2 C 88 % 1024,5 hPa 0,0 l/m 0,0 km/h (0 Bft) N 0 0 min 0,0 UV-I 0 W/m -2,3 C -0,6 C 0,0 km/h (0 Bft)
06.05.2020 03:00 -0,6 C -2,2 C 89 % 1024,5 hPa 0,0 l/m 0,0 km/h (0 Bft) N 0 0 min 0,0 UV-I 0 W/m -2,2 C -0,6 C 0,0 km/h (0 Bft)
06.05.2020 03:01 -0,6 C -2,2 C 89 % 1024,5 hPa 0,0 l/m 0,0 km/h (0 Bft) N 0 0 min 0,0 UV-I 0 W/m -2,2 C -0,6 C 0,0 km/h (0 Bft)
06.05.2020 03:02 -0,6 C -2,2 C 89 % 1024,5 hPa 0,0 l/m 0,0 km/h (0 Bft) N 0 0 min 0,0 UV-I 0 W/m -2,2 C -0,6 C 0,0 km/h (0 Bft)
06.05.2020 03:03 -0,6 C -2,2 C 88 % 1024,6 hPa 0,0 l/m 0,0 km/h (0 Bft) N 0 0 min 0,0 UV-I 0 W/m -2,3 C -0,6 C 0,0 km/h (0 Bft)
06.05.2020 03:04 -0,6 C -2,8 C 88 % 1024,6 hPa 0,0 l/m 0,0 km/h (0 Bft) N 0 0 min 0,0 UV-I 0 W/m -2,3 C -0,6 C 0,0 km/h (0 Bft)
06.05.2020 03:05 -0,6 C -2,8 C 88 % 1024,4 hPa 0,0 l/m 0,0 km/h (0 Bft) N 0 0 min 0,0 UV-I 0 W/m -2,3 C -0,6 C 0,0 km/h (0 Bft)
06.05.2020 03:06 -0,6 C -2,8 C 89 % 1024,5 hPa 0,0 l/m 0,0 km/h (0 Bft) N-NO 22 0 min 0,0 UV-I 0 W/m -2,2 C -0,6 C 1,6 km/h (1 Bft)
06.05.2020 03:07 -0,6 C -2,8 C 88 % 1024,5 hPa 0,0 l/m 0,0 km/h (0 Bft) N-NO 22 0 min 0,0 UV-I 0 W/m -2,3 C -0,6 C 1,6 km/h (1 Bft)
06.05.2020 03:08 -0,6 C -2,8 C 88 % 1024,6 hPa 0,0 l/m 0,0 km/h (0 Bft) N 0 0 min 0,0 UV-I 0 W/m -2,3 C -0,6 C 0,0 km/h (0 Bft)
06.05.2020 03:09 -0,6 C -2,2 C 88 % 1024,4 hPa 0,0 l/m 0,0 km/h (0 Bft) N 0 0 min 0,0 UV-I 0 W/m -2,3 C -0,6 C 0,0 km/h (0 Bft)
06.05.2020 03:10 -0,5 C -2,2 C 88 % 1024,4 hPa 0,0 l/m 0,0 km/h (0 Bft) N 0 0 min 0,0 UV-I 0 W/m -2,2 C -0,5 C 0,0 km/h (0 Bft)
06.05.2020 03:11 -0,5 C -2,2 C 89 % 1024,5 hPa 0,0 l/m 0,0 km/h (0 Bft) N 0 0 min 0,0 UV-I 0 W/m -2,1 C -0,5 C 0,0 km/h (0 Bft)
06.05.2020 03:12 -0,4 C -2,8 C 89 % 1024,3 hPa 0,0 l/m 0,0 km/h (0 Bft) N 0 0 min 0,0 UV-I 0 W/m -2,0 C -0,4 C 0,0 km/h (0 Bft)
06.05.2020 03:13 -0,4 C -2,8 C 89 % 1024,4 hPa 0,0 l/m 0,0 km/h (0 Bft) N 0 0 min 0,0 UV-I 0 W/m -2,0 C -0,4 C 0,0 km/h (0 Bft)
06.05.2020 03:14 -0,4 C -2,8 C 89 % 1024,5 hPa 0,0 l/m 0,0 km/h (0 Bft) N 0 0 min 0,0 UV-I 0 W/m -2,0 C -0,4 C 0,0 km/h (0 Bft)
06.05.2020 03:15 -0,4 C -2,8 C 89 % 1024,5 hPa 0,0 l/m 0,0 km/h (0 Bft) N 0 0 min 0,0 UV-I 0 W/m -2,0 C -0,4 C 0,0 km/h (0 Bft)
06.05.2020 03:16 -0,4 C -2,8 C 89 % 1024,6 hPa 0,0 l/m 0,0 km/h (0 Bft) N 0 0 min 0,0 UV-I 0 W/m -2,0 C -0,4 C 0,0 km/h (0 Bft)
06.05.2020 03:17 -0,4 C -2,8 C 89 % 1024,5 hPa 0,0 l/m 0,0 km/h (0 Bft) N 0 0 min 0,0 UV-I 0 W/m -2,0 C -0,4 C 0,0 km/h (0 Bft)
06.05.2020 03:18 -0,6 C -2,8 C 88 % 1024,5 hPa 0,0 l/m 0,0 km/h (0 Bft) N 0 0 min 0,0 UV-I 0 W/m -2,3 C -0,6 C 0,0 km/h (0 Bft)
06.05.2020 03:19 -0,6 C -2,8 C 88 % 1024,6 hPa 0,0 l/m 0,0 km/h (0 Bft) N 0 0 min 0,0 UV-I 0 W/m -2,3 C -0,6 C 0,0 km/h (0 Bft)
06.05.2020 03:20 -0,7 C -2,8 C 88 % 1024,6 hPa 0,0 l/m 0,0 km/h (0 Bft) N 0 0 min 0,0 UV-I 0 W/m -2,4 C -0,7 C 0,0 km/h (0 Bft)
06.05.2020 03:21 -0,7 C -2,8 C 89 % 1024,6 hPa 0,0 l/m 0,0 km/h (0 Bft) N 0 0 min 0,0 UV-I 0 W/m -2,3 C -0,7 C 0,0 km/h (0 Bft)
06.05.2020 03:22 -0,7 C -2,8 C 89 % 1024,5 hPa 0,0 l/m 0,0 km/h (0 Bft) N 0 0 min 0,0 UV-I 0 W/m -2,3 C -0,7 C 0,0 km/h (0 Bft)
06.05.2020 03:23 -0,7 C -2,8 C 89 % 1024,5 hPa 0,0 l/m 0,0 km/h (0 Bft) N 0 0 min 0,0 UV-I 0 W/m -2,3 C -0,7 C 0,0 km/h (0 Bft)
06.05.2020 03:24 -0,7 C -2,8 C 89 % 1024,5 hPa 0,0 l/m 0,0 km/h (0 Bft) N 0 0 min 0,0 UV-I 0 W/m -2,3 C -0,7 C 0,0 km/h (0 Bft)
06.05.2020 03:25 -0,7 C -2,8 C 89 % 1024,5 hPa 0,0 l/m 0,0 km/h (0 Bft) N-NO 22 0 min 0,0 UV-I 0 W/m -2,3 C -0,7 C 1,6 km/h (1 Bft)
06.05.2020 03:26 -0,7 C -2,8 C 89 % 1024,6 hPa 0,0 l/m 0,0 km/h (0 Bft) N 0 0 min 0,0 UV-I 0 W/m -2,3 C -0,7 C 0,0 km/h (0 Bft)
06.05.2020 03:27 -0,7 C -2,8 C 89 % 1024,6 hPa 0,0 l/m 0,0 km/h (0 Bft) N-NO 22 0 min 0,0 UV-I 0 W/m -2,3 C -0,7 C 1,6 km/h (1 Bft)
06.05.2020 03:28 -0,7 C -2,8 C 89 % 1024,6 hPa 0,0 l/m 0,0 km/h (0 Bft) N 0 0 min 0,0 UV-I 0 W/m -2,3 C -0,7 C 0,0 km/h (0 Bft)
06.05.2020 03:29 -0,8 C -2,8 C 89 % 1024,6 hPa 0,0 l/m 0,0 km/h (0 Bft) N 0 0 min 0,0 UV-I 0 W/m -2,4 C -0,8 C 0,0 km/h (0 Bft)
06.05.2020 03:30 -0,8 C -2,8 C 89 % 1024,5 hPa 0,0 l/m 0,0 km/h (0 Bft) N 0 0 min 0,0 UV-I 0 W/m -2,4 C -0,8 C 0,0 km/h (0 Bft)
06.05.2020 03:31 -0,8 C -2,8 C 89 % 1024,5 hPa 0,0 l/m 0,0 km/h (0 Bft) N 0 0 min 0,0 UV-I 0 W/m -2,4 C -0,8 C 0,0 km/h (0 Bft)
06.05.2020 03:32 -0,9 C -2,8 C 89 % 1024,5 hPa 0,0 l/m 0,0 km/h (0 Bft) N 0 0 min 0,0 UV-I 0 W/m -2,5 C -0,9 C 0,0 km/h (0 Bft)
06.05.2020 03:33 -0,9 C -2,8 C 89 % 1024,6 hPa 0,0 l/m 0,0 km/h (0 Bft) N 0 0 min 0,0 UV-I 0 W/m -2,5 C -0,9 C 0,0 km/h (0 Bft)
06.05.2020 03:34 -1,0 C -2,8 C 89 % 1024,6 hPa 0,0 l/m 0,0 km/h (0 Bft) N 0 0 min 0,0 UV-I 0 W/m -2,6 C -1,0 C 0,0 km/h (0 Bft)
06.05.2020 03:35 -1,0 C -2,8 C 89 % 1024,6 hPa 0,0 l/m 0,0 km/h (0 Bft) N 0 0 min 0,0 UV-I 0 W/m -2,6 C -1,0 C 0,0 km/h (0 Bft)
06.05.2020 03:36 -1,0 C -2,8 C 89 % 1024,6 hPa 0,0 l/m 0,0 km/h (0 Bft) N 0 0 min 0,0 UV-I 0 W/m -2,6 C -1,0 C 0,0 km/h (0 Bft)
06.05.2020 03:37 -1,0 C -2,8 C 89 % 1024,5 hPa 0,0 l/m 0,0 km/h (0 Bft) N 0 0 min 0,0 UV-I 0 W/m -2,6 C -1,0 C 0,0 km/h (0 Bft)
06.05.2020 03:38 -1,0 C -2,8 C 89 % 1024,6 hPa 0,0 l/m 0,0 km/h (0 Bft) N 0 0 min 0,0 UV-I 0 W/m -2,6 C -1,0 C 0,0 km/h (0 Bft)
06.05.2020 03:39 -0,9 C -2,8 C 89 % 1024,6 hPa 0,0 l/m 0,0 km/h (0 Bft) N 0 0 min 0,0 UV-I 0 W/m -2,5 C -0,9 C 0,0 km/h (0 Bft)
06.05.2020 03:40 -0,9 C -2,8 C 90 % 1024,6 hPa 0,0 l/m 0,0 km/h (0 Bft) N 0 0 min 0,0 UV-I 0 W/m -2,3 C -0,9 C 0,0 km/h (0 Bft)
06.05.2020 03:41 -0,9 C -2,8 C 90 % 1024,5 hPa 0,0 l/m 0,0 km/h (0 Bft) N 0 0 min 0,0 UV-I 0 W/m -2,3 C -0,9 C 0,0 km/h (0 Bft)
06.05.2020 03:42 -1,0 C -2,8 C 89 % 1024,5 hPa 0,0 l/m 0,0 km/h (0 Bft) N 0 0 min 0,0 UV-I 0 W/m -2,6 C -1,0 C 0,0 km/h (0 Bft)
06.05.2020 03:43 -1,0 C -2,8 C 90 % 1024,5 hPa 0,0 l/m 0,0 km/h (0 Bft) N 0 0 min 0,0 UV-I 0 W/m -2,4 C -1,0 C 0,0 km/h (0 Bft)
06.05.2020 03:44 -0,9 C -2,8 C 90 % 1024,6 hPa 0,0 l/m 0,0 km/h (0 Bft) N 0 0 min 0,0 UV-I 0 W/m -2,3 C -0,9 C 0,0 km/h (0 Bft)
06.05.2020 03:45 -1,0 C -2,8 C 90 % 1024,5 hPa 0,0 l/m 0,0 km/h (0 Bft) N 0 0 min 0,0 UV-I 0 W/m -2,4 C -1,0 C 0,0 km/h (0 Bft)
06.05.2020 03:46 -1,0 C -2,8 C 90 % 1024,6 hPa 0,0 l/m 0,0 km/h (0 Bft) N 0 0 min 0,0 UV-I 0 W/m -2,4 C -1,0 C 0,0 km/h (0 Bft)
06.05.2020 03:47 -1,1 C -2,8 C 90 % 1024,6 hPa 0,0 l/m 0,0 km/h (0 Bft) N 0 0 min 0,0 UV-I 0 W/m -2,5 C -1,1 C 0,0 km/h (0 Bft)
06.05.2020 03:48 -1,1 C -2,8 C 90 % 1024,6 hPa 0,0 l/m 0,0 km/h (0 Bft) N 0 0 min 0,0 UV-I 0 W/m -2,5 C -1,1 C 0,0 km/h (0 Bft)
06.05.2020 03:49 -1,1 C -3,3 C 90 % 1024,5 hPa 0,0 l/m 0,0 km/h (0 Bft) N 0 0 min 0,0 UV-I 0 W/m -2,5 C -1,1 C 0,0 km/h (0 Bft)
06.05.2020 03:50 -1,1 C -3,3 C 90 % 1024,6 hPa 0,0 l/m 0,0 km/h (0 Bft) N 0 0 min 0,0 UV-I 0 W/m -2,5 C -1,1 C 0,0 km/h (0 Bft)
06.05.2020 03:51 -1,2 C -3,3 C 90 % 1024,6 hPa 0,0 l/m 0,0 km/h (0 Bft) N 0 0 min 0,0 UV-I 0 W/m -2,6 C -1,2 C 0,0 km/h (0 Bft)
06.05.2020 03:52 -1,2 C -3,3 C 90 % 1024,7 hPa 0,0 l/m 0,0 km/h (0 Bft) N 0 0 min 0,0 UV-I 0 W/m -2,6 C -1,2 C 0,0 km/h (0 Bft)
06.05.2020 03:53 -1,1 C -3,3 C 90 % 1024,7 hPa 0,0 l/m 0,0 km/h (0 Bft) N 0 0 min 0,0 UV-I 0 W/m -2,5 C -1,1 C 0,0 km/h (0 Bft)
06.05.2020 03:54 -1,1 C -3,3 C 90 % 1024,7 hPa 0,0 l/m 0,0 km/h (0 Bft) N 0 0 min 0,0 UV-I 0 W/m -2,5 C -1,1 C 0,0 km/h (0 Bft)
06.05.2020 03:55 -1,1 C -3,3 C 90 % 1024,7 hPa 0,0 l/m 0,0 km/h (0 Bft) N 0 0 min 0,0 UV-I 0 W/m -2,5 C -1,1 C 0,0 km/h (0 Bft)
06.05.2020 03:56 -1,2 C -3,3 C 90 % 1024,7 hPa 0,0 l/m 0,0 km/h (0 Bft) N 0 0 min 0,0 UV-I 0 W/m -2,6 C -1,2 C 0,0 km/h (0 Bft)
06.05.2020 03:57 -1,2 C -3,3 C 90 % 1024,7 hPa 0,0 l/m 0,0 km/h (0 Bft) N 0 0 min 0,0 UV-I 0 W/m -2,6 C -1,2 C 0,0 km/h (0 Bft)
06.05.2020 03:58 -1,3 C -3,3 C 90 % 1024,7 hPa 0,0 l/m 0,0 km/h (0 Bft) N 0 0 min 0,0 UV-I 0 W/m -2,7 C -1,3 C 0,0 km/h (0 Bft)
06.05.2020 03:59 -1,3 C -3,3 C 90 % 1024,7 hPa 0,0 l/m 0,0 km/h (0 Bft) N 0 0 min 0,0 UV-I 0 W/m -2,7 C -1,3 C 0,0 km/h (0 Bft)
06.05.2020 04:00 -1,3 C -3,3 C 90 % 1024,7 hPa 0,0 l/m 0,0 km/h (0 Bft) N 0 0 min 0,0 UV-I 0 W/m -2,7 C -1,3 C 0,0 km/h (0 Bft)
06.05.2020 04:01 -1,3 C -3,3 C 90 % 1024,7 hPa 0,0 l/m 0,0 km/h (0 Bft) N 0 0 min 0,0 UV-I 0 W/m -2,7 C -1,3 C 0,0 km/h (0 Bft)
06.05.2020 04:02 -1,4 C -3,3 C 90 % 1024,7 hPa 0,0 l/m 0,0 km/h (0 Bft) N 0 0 min 0,0 UV-I 0 W/m -2,8 C -1,4 C 0,0 km/h (0 Bft)
06.05.2020 04:03 -1,4 C -3,3 C 90 % 1024,7 hPa 0,0 l/m 0,0 km/h (0 Bft) N 0 0 min 0,0 UV-I 0 W/m -2,8 C -1,4 C 0,0 km/h (0 Bft)
06.05.2020 04:04 -1,4 C -3,3 C 90 % 1024,7 hPa 0,0 l/m 0,0 km/h (0 Bft) N 0 0 min 0,0 UV-I 0 W/m -2,8 C -1,4 C 0,0 km/h (0 Bft)
06.05.2020 04:05 -1,4 C -2,8 C 90 % 1024,7 hPa 0,0 l/m 0,0 km/h (0 Bft) N 0 0 min 0,0 UV-I 0 W/m -2,8 C -1,4 C 0,0 km/h (0 Bft)
06.05.2020 04:06 -1,4 C -2,8 C 90 % 1024,8 hPa 0,0 l/m 0,0 km/h (0 Bft) N 0 0 min 0,0 UV-I 0 W/m -2,8 C -1,4 C 0,0 km/h (0 Bft)
06.05.2020 04:07 -1,3 C -3,3 C 90 % 1024,7 hPa 0,0 l/m 0,0 km/h (0 Bft) N 0 0 min 0,0 UV-I 0 W/m -2,7 C -1,3 C 0,0 km/h (0 Bft)
06.05.2020 04:08 -1,3 C -3,3 C 90 % 1024,7 hPa 0,0 l/m 0,0 km/h (0 Bft) N 0 0 min 0,0 UV-I 0 W/m -2,7 C -1,3 C 0,0 km/h (0 Bft)
06.05.2020 04:09 -1,3 C -3,3 C 90 % 1024,8 hPa 0,0 l/m 0,0 km/h (0 Bft) N 0 0 min 0,0 UV-I 0 W/m -2,7 C -1,3 C 0,0 km/h (0 Bft)
06.05.2020 04:10 -1,2 C -3,3 C 90 % 1024,8 hPa 0,0 l/m 0,0 km/h (0 Bft) N 0 0 min 0,0 UV-I 0 W/m -2,6 C -1,2 C 0,0 km/h (0 Bft)
06.05.2020 04:11 -1,3 C -2,8 C 90 % 1024,7 hPa 0,0 l/m 0,0 km/h (0 Bft) N 0 0 min 0,0 UV-I 0 W/m -2,7 C -1,3 C 0,0 km/h (0 Bft)
06.05.2020 04:12 -1,2 C -2,8 C 90 % 1024,8 hPa 0,0 l/m 0,0 km/h (0 Bft) N 0 0 min 0,0 UV-I 0 W/m -2,6 C -1,2 C 0,0 km/h (0 Bft)
06.05.2020 04:13 -1,2 C -2,8 C 90 % 1024,8 hPa 0,0 l/m 0,0 km/h (0 Bft) N 0 0 min 0,0 UV-I 0 W/m -2,6 C -1,2 C 0,0 km/h (0 Bft)
06.05.2020 04:14 -1,2 C -2,8 C 90 % 1024,7 hPa 0,0 l/m 0,0 km/h (0 Bft) N 0 0 min 0,0 UV-I 0 W/m -2,6 C -1,2 C 0,0 km/h (0 Bft)
06.05.2020 04:15 -1,2 C -2,8 C 90 % 1024,8 hPa 0,0 l/m 0,0 km/h (0 Bft) N 0 0 min 0,0 UV-I 0 W/m -2,6 C -1,2 C 0,0 km/h (0 Bft)
06.05.2020 04:16 -1,1 C -2,8 C 90 % 1024,8 hPa 0,0 l/m 0,0 km/h (0 Bft) N 0 0 min 0,0 UV-I 0 W/m -2,5 C -1,1 C 0,0 km/h (0 Bft)
06.05.2020 04:17 -1,1 C -3,3 C 90 % 1024,9 hPa 0,0 l/m 0,0 km/h (0 Bft) N 0 0 min 0,0 UV-I 0 W/m -2,5 C -1,1 C 0,0 km/h (0 Bft)
06.05.2020 04:18 -1,1 C -3,3 C 90 % 1024,9 hPa 0,0 l/m 0,0 km/h (0 Bft) N 0 0 min 0,0 UV-I 0 W/m -2,5 C -1,1 C 0,0 km/h (0 Bft)
06.05.2020 04:19 -1,2 C -3,3 C 90 % 1024,8 hPa 0,0 l/m 0,0 km/h (0 Bft) N 0 0 min 0,0 UV-I 0 W/m -2,6 C -1,2 C 0,0 km/h (0 Bft)
06.05.2020 04:20 -1,2 C -3,3 C 90 % 1024,8 hPa 0,0 l/m 0,0 km/h (0 Bft) N 0 0 min 0,0 UV-I 0 W/m -2,6 C -1,2 C 0,0 km/h (0 Bft)
06.05.2020 04:21 -1,3 C -3,3 C 90 % 1024,8 hPa 0,0 l/m 0,0 km/h (0 Bft) N 0 0 min 0,0 UV-I 0 W/m -2,7 C -1,3 C 0,0 km/h (0 Bft)
06.05.2020 04:22 -1,3 C -3,3 C 90 % 1024,9 hPa 0,0 l/m 0,0 km/h (0 Bft) N 0 0 min 0,0 UV-I 0 W/m -2,7 C -1,3 C 0,0 km/h (0 Bft)
06.05.2020 04:23 -1,4 C -3,3 C 90 % 1024,9 hPa 0,0 l/m 0,0 km/h (0 Bft) N 0 0 min 0,0 UV-I 0 W/m -2,8 C -1,4 C 0,0 km/h (0 Bft)
06.05.2020 04:24 -1,5 C -3,3 C 90 % 1024,8 hPa 0,0 l/m 0,0 km/h (0 Bft) N 0 0 min 0,0 UV-I 0 W/m -2,9 C -1,5 C 0,0 km/h (0 Bft)
06.05.2020 04:25 -1,6 C -3,3 C 90 % 1024,8 hPa 0,0 l/m 0,0 km/h (0 Bft) N 0 0 min 0,0 UV-I 0 W/m -3,0 C -1,6 C 0,0 km/h (0 Bft)
06.05.2020 04:26 -1,6 C -3,3 C 90 % 1024,8 hPa 0,0 l/m 0,0 km/h (0 Bft) N 0 0 min 0,0 UV-I 0 W/m -3,0 C -1,6 C 0,0 km/h (0 Bft)
06.05.2020 04:27 -1,6 C -3,3 C 90 % 1024,8 hPa 0,0 l/m 0,0 km/h (0 Bft) N 0 0 min 0,0 UV-I 0 W/m -3,0 C -1,6 C 0,0 km/h (0 Bft)
06.05.2020 04:28 -1,6 C -3,3 C 90 % 1024,8 hPa 0,0 l/m 0,0 km/h (0 Bft) N 0 0 min 0,0 UV-I 0 W/m -3,0 C -1,6 C 0,0 km/h (0 Bft)
06.05.2020 04:29 -1,6 C -3,3 C 90 % 1024,8 hPa 0,0 l/m 0,0 km/h (0 Bft) N 0 0 min 0,0 UV-I 0 W/m -3,0 C -1,6 C 0,0 km/h (0 Bft)
06.05.2020 04:30 -1,7 C -3,3 C 90 % 1024,8 hPa 0,0 l/m 0,0 km/h (0 Bft) N 0 0 min 0,0 UV-I 0 W/m -3,1 C -1,7 C 0,0 km/h (0 Bft)
06.05.2020 04:31 -1,6 C -3,3 C 90 % 1024,9 hPa 0,0 l/m 0,0 km/h (0 Bft) N 0 0 min 0,0 UV-I 0 W/m -3,0 C -1,6 C 0,0 km/h (0 Bft)
06.05.2020 04:32 -1,6 C -3,3 C 90 % 1024,8 hPa 0,0 l/m 0,0 km/h (0 Bft) N 0 0 min 0,0 UV-I 0 W/m -3,0 C -1,6 C 0,0 km/h (0 Bft)
06.05.2020 04:33 -1,5 C -3,3 C 90 % 1024,9 hPa 0,0 l/m 0,0 km/h (0 Bft) N 0 0 min 0,0 UV-I 0 W/m -2,9 C -1,5 C 0,0 km/h (0 Bft)
06.05.2020 04:34 -1,5 C -3,3 C 90 % 1024,8 hPa 0,0 l/m 0,0 km/h (0 Bft) N 0 0 min 0,0 UV-I 0 W/m -2,9 C -1,5 C 0,0 km/h (0 Bft)
06.05.2020 04:35 -1,5 C -3,3 C 90 % 1024,8 hPa 0,0 l/m 0,0 km/h (0 Bft) N 0 0 min 0,0 UV-I 0 W/m -2,9 C -1,5 C 0,0 km/h (0 Bft)
06.05.2020 04:36 -1,4 C -3,3 C 90 % 1024,8 hPa 0,0 l/m 0,0 km/h (0 Bft) N 0 0 min 0,0 UV-I 0 W/m -2,8 C -1,4 C 0,0 km/h (0 Bft)
06.05.2020 04:37 -1,4 C -3,3 C 90 % 1024,8 hPa 0,0 l/m 0,0 km/h (0 Bft) N 0 0 min 0,0 UV-I 0 W/m -2,8 C -1,4 C 0,0 km/h (0 Bft)
06.05.2020 04:38 -1,4 C -3,3 C 90 % 1024,8 hPa 0,0 l/m 0,0 km/h (0 Bft) N 0 0 min 0,0 UV-I 0 W/m -2,8 C -1,4 C 0,0 km/h (0 Bft)
06.05.2020 04:39 -1,4 C -3,3 C 90 % 1024,8 hPa 0,0 l/m 0,0 km/h (0 Bft) N 0 0 min 0,0 UV-I 0 W/m -2,8 C -1,4 C 0,0 km/h (0 Bft)
06.05.2020 04:40 -1,4 C -3,3 C 90 % 1024,8 hPa 0,0 l/m 0,0 km/h (0 Bft) N 0 0 min 0,0 UV-I 0 W/m -2,8 C -1,4 C 0,0 km/h (0 Bft)
06.05.2020 04:41 -1,5 C -3,3 C 90 % 1024,8 hPa 0,0 l/m 0,0 km/h (0 Bft) N 0 0 min 0,0 UV-I 0 W/m -2,9 C -1,5 C 0,0 km/h (0 Bft)
06.05.2020 04:42 -1,6 C -3,3 C 90 % 1024,8 hPa 0,0 l/m 0,0 km/h (0 Bft) N 0 0 min 0,0 UV-I 0 W/m -3,0 C -1,6 C 0,0 km/h (0 Bft)
06.05.2020 04:43 -1,6 C -3,3 C 90 % 1024,8 hPa 0,0 l/m 0,0 km/h (0 Bft) N 0 0 min 0,0 UV-I 0 W/m -3,0 C -1,6 C 0,0 km/h (0 Bft)
06.05.2020 04:44 -1,6 C -3,3 C 90 % 1024,8 hPa 0,0 l/m 0,0 km/h (0 Bft) N 0 0 min 0,0 UV-I 0 W/m -3,0 C -1,6 C 0,0 km/h (0 Bft)
06.05.2020 04:45 -1,6 C -3,3 C 90 % 1024,8 hPa 0,0 l/m 0,0 km/h (0 Bft) N 0 0 min 0,0 UV-I 0 W/m -3,0 C -1,6 C 0,0 km/h (0 Bft)
06.05.2020 04:46 -1,6 C -3,3 C 90 % 1024,8 hPa 0,0 l/m 0,0 km/h (0 Bft) N 0 0 min 0,0 UV-I 0 W/m -3,0 C -1,6 C 0,0 km/h (0 Bft)
06.05.2020 04:47 -1,6 C -3,3 C 90 % 1024,8 hPa 0,0 l/m 0,0 km/h (0 Bft) N 0 0 min 0,0 UV-I 0 W/m -3,0 C -1,6 C 0,0 km/h (0 Bft)
06.05.2020 04:48 -1,6 C -3,3 C 90 % 1024,8 hPa 0,0 l/m 0,0 km/h (0 Bft) N 0 0 min 0,0 UV-I 0 W/m -3,0 C -1,6 C 0,0 km/h (0 Bft)
06.05.2020 04:49 -1,6 C -3,3 C 90 % 1024,9 hPa 0,0 l/m 0,0 km/h (0 Bft) N 0 0 min 0,0 UV-I 0 W/m -3,0 C -1,6 C 0,0 km/h (0 Bft)
06.05.2020 04:50 -1,6 C -3,3 C 90 % 1024,8 hPa 0,0 l/m 0,0 km/h (0 Bft) N 0 0 min 0,0 UV-I 0 W/m -3,0 C -1,6 C 0,0 km/h (0 Bft)
06.05.2020 04:51 -1,6 C -3,3 C 90 % 1024,9 hPa 0,0 l/m 0,0 km/h (0 Bft) N 0 0 min 0,0 UV-I 0 W/m -3,0 C -1,6 C 0,0 km/h (0 Bft)
06.05.2020 04:52 -1,6 C -3,3 C 90 % 1024,8 hPa 0,0 l/m 0,0 km/h (0 Bft) N 0 0 min 0,0 UV-I 0 W/m -3,0 C -1,6 C 0,0 km/h (0 Bft)
06.05.2020 04:53 -1,6 C -3,3 C 90 % 1024,8 hPa 0,0 l/m 0,0 km/h (0 Bft) N 0 0 min 0,0 UV-I 0 W/m -3,0 C -1,6 C 0,0 km/h (0 Bft)
06.05.2020 04:54 -1,6 C -3,3 C 90 % 1024,8 hPa 0,0 l/m 0,0 km/h (0 Bft) N 0 0 min 0,0 UV-I 0 W/m -3,0 C -1,6 C 0,0 km/h (0 Bft)
06.05.2020 04:55 -1,6 C -3,3 C 90 % 1024,9 hPa 0,0 l/m 0,0 km/h (0 Bft) N 0 0 min 0,0 UV-I 0 W/m -3,0 C -1,6 C 0,0 km/h (0 Bft)
06.05.2020 04:56 -1,6 C -3,3 C 90 % 1024,8 hPa 0,0 l/m 0,0 km/h (0 Bft) N 0 0 min 0,0 UV-I 0 W/m -3,0 C -1,6 C 0,0 km/h (0 Bft)
06.05.2020 04:57 -1,6 C -3,3 C 90 % 1024,8 hPa 0,0 l/m 0,0 km/h (0 Bft) N 0 0 min 0,0 UV-I 0 W/m -3,0 C -1,6 C 0,0 km/h (0 Bft)
06.05.2020 04:58 -1,7 C -3,3 C 90 % 1024,8 hPa 0,0 l/m 0,0 km/h (0 Bft) N 0 0 min 0,0 UV-I 0 W/m -3,1 C -1,7 C 0,0 km/h (0 Bft)
06.05.2020 04:59 -1,7 C -3,3 C 90 % 1024,7 hPa 0,0 l/m 0,0 km/h (0 Bft) N 0 0 min 0,0 UV-I 0 W/m -3,1 C -1,7 C 0,0 km/h (0 Bft)
06.05.2020 05:00 -1,6 C -3,3 C 90 % 1024,8 hPa 0,0 l/m 0,0 km/h (0 Bft) N 0 0 min 0,0 UV-I 0 W/m -3,0 C -1,6 C 0,0 km/h (0 Bft)
06.05.2020 05:01 -1,7 C -3,3 C 90 % 1024,7 hPa 0,0 l/m 0,0 km/h (0 Bft) N 0 0 min 0,0 UV-I 0 W/m -3,1 C -1,7 C 0,0 km/h (0 Bft)
06.05.2020 05:02 -1,7 C -3,3 C 90 % 1024,7 hPa 0,0 l/m 0,0 km/h (0 Bft) N 0 0 min 0,0 UV-I 0 W/m -3,1 C -1,7 C 0,0 km/h (0 Bft)
06.05.2020 05:03 -1,7 C -3,3 C 90 % 1024,7 hPa 0,0 l/m 0,0 km/h (0 Bft) N 0 0 min 0,0 UV-I 0 W/m -3,1 C -1,7 C 0,0 km/h (0 Bft)
06.05.2020 05:04 -1,8 C -3,9 C 90 % 1024,8 hPa 0,0 l/m 0,0 km/h (0 Bft) N 0 0 min 0,0 UV-I 0 W/m -3,2 C -1,8 C 0,0 km/h (0 Bft)
06.05.2020 05:05 -1,8 C -3,9 C 90 % 1024,7 hPa 0,0 l/m 0,0 km/h (0 Bft) N 0 0 min 0,0 UV-I 0 W/m -3,2 C -1,8 C 0,0 km/h (0 Bft)
06.05.2020 05:06 -1,8 C -3,9 C 90 % 1024,7 hPa 0,0 l/m 0,0 km/h (0 Bft) N 0 0 min 0,0 UV-I 0 W/m -3,2 C -1,8 C 0,0 km/h (0 Bft)
06.05.2020 05:07 -1,8 C -3,9 C 91 % 1024,7 hPa 0,0 l/m 0,0 km/h (0 Bft) N 0 0 min 0,0 UV-I 0 W/m -3,1 C -1,8 C 0,0 km/h (0 Bft)
06.05.2020 05:08 -1,8 C -3,9 C 91 % 1024,7 hPa 0,0 l/m 0,0 km/h (0 Bft) N 0 0 min 0,0 UV-I 0 W/m -3,1 C -1,8 C 0,0 km/h (0 Bft)
06.05.2020 05:09 -1,8 C -3,9 C 91 % 1024,7 hPa 0,0 l/m 0,0 km/h (0 Bft) N 0 0 min 0,0 UV-I 0 W/m -3,1 C -1,8 C 0,0 km/h (0 Bft)
06.05.2020 05:10 -1,8 C -3,9 C 91 % 1024,6 hPa 0,0 l/m 0,0 km/h (0 Bft) N 0 0 min 0,0 UV-I 0 W/m -3,1 C -1,8 C 0,0 km/h (0 Bft)
06.05.2020 05:11 -1,8 C -3,9 C 91 % 1024,7 hPa 0,0 l/m 0,0 km/h (0 Bft) N 0 0 min 0,0 UV-I 0 W/m -3,1 C -1,8 C 0,0 km/h (0 Bft)
06.05.2020 05:12 -1,8 C -3,9 C 91 % 1024,7 hPa 0,0 l/m 0,0 km/h (0 Bft) N 0 0 min 0,0 UV-I 0 W/m -3,1 C -1,8 C 0,0 km/h (0 Bft)
06.05.2020 05:13 -1,8 C -3,9 C 91 % 1024,7 hPa 0,0 l/m 0,0 km/h (0 Bft) N 0 0 min 0,0 UV-I 0 W/m -3,1 C -1,8 C 0,0 km/h (0 Bft)
06.05.2020 05:14 -1,8 C -3,9 C 90 % 1024,6 hPa 0,0 l/m 0,0 km/h (0 Bft) N-NO 22 0 min 0,0 UV-I 0 W/m -3,2 C -1,8 C 1,6 km/h (1 Bft)
06.05.2020 05:15 -1,8 C -3,9 C 90 % 1024,7 hPa 0,0 l/m 0,0 km/h (0 Bft) N-NO 22 0 min 0,0 UV-I 0 W/m -3,2 C -1,8 C 1,6 km/h (1 Bft)
06.05.2020 05:16 -1,8 C -3,9 C 90 % 1024,7 hPa 0,0 l/m 0,0 km/h (0 Bft) N-NO 22 0 min 0,0 UV-I 0 W/m -3,2 C -1,8 C 1,6 km/h (1 Bft)
06.05.2020 05:17 -1,8 C -3,9 C 90 % 1024,6 hPa 0,0 l/m 1,6 km/h (1 Bft) N-NO 22 0 min 0,0 UV-I 0 W/m -3,2 C -1,8 C 1,6 km/h (1 Bft)
06.05.2020 05:18 -1,9 C -3,9 C 90 % 1024,7 hPa 0,0 l/m 1,6 km/h (1 Bft) N-NO 22 0 min 0,0 UV-I 0 W/m -3,3 C -1,9 C 1,6 km/h (1 Bft)
06.05.2020 05:19 -1,9 C -3,9 C 90 % 1024,7 hPa 0,0 l/m 1,6 km/h (1 Bft) N-NO 22 0 min 0,0 UV-I 0 W/m -3,3 C -1,9 C 1,6 km/h (1 Bft)
06.05.2020 05:20 -1,9 C -3,9 C 90 % 1024,7 hPa 0,0 l/m 1,6 km/h (1 Bft) N-NO 22 0 min 0,0 UV-I 0 W/m -3,3 C -1,9 C 1,6 km/h (1 Bft)
06.05.2020 05:21 -2,0 C -3,9 C 90 % 1024,7 hPa 0,0 l/m 0,0 km/h (0 Bft) N-NO 22 0 min 0,0 UV-I 0 W/m -3,4 C -2,0 C 1,6 km/h (1 Bft)
06.05.2020 05:22 -2,1 C -3,9 C 91 % 1024,7 hPa 0,0 l/m 0,0 km/h (0 Bft) N-NO 22 0 min 0,0 UV-I 0 W/m -3,4 C -2,1 C 1,6 km/h (1 Bft)
06.05.2020 05:23 -2,1 C -3,9 C 91 % 1024,7 hPa 0,0 l/m 0,0 km/h (0 Bft) N-NO 22 0 min 0,0 UV-I 0 W/m -3,4 C -2,1 C 1,6 km/h (1 Bft)
06.05.2020 05:24 -2,0 C -3,9 C 91 % 1024,7 hPa 0,0 l/m 0,0 km/h (0 Bft) N 0 0 min 0,0 UV-I 0 W/m -3,3 C -2,0 C 0,0 km/h (0 Bft)
06.05.2020 05:25 -2,1 C -3,9 C 91 % 1024,7 hPa 0,0 l/m 0,0 km/h (0 Bft) N 0 0 min 0,0 UV-I 0 W/m -3,4 C -2,1 C 0,0 km/h (0 Bft)
06.05.2020 05:26 -2,1 C -3,9 C 91 % 1024,7 hPa 0,0 l/m 0,0 km/h (0 Bft) N 0 0 min 0,0 UV-I 0 W/m -3,4 C -2,1 C 0,0 km/h (0 Bft)
06.05.2020 05:27 -2,2 C -3,9 C 90 % 1024,7 hPa 0,0 l/m 0,0 km/h (0 Bft) N 0 0 min 0,0 UV-I 0 W/m -3,6 C -2,2 C 0,0 km/h (0 Bft)
06.05.2020 05:28 -2,2 C -3,9 C 90 % 1024,7 hPa 0,0 l/m 0,0 km/h (0 Bft) N 0 0 min 0,0 UV-I 0 W/m -3,6 C -2,2 C 0,0 km/h (0 Bft)
06.05.2020 05:29 -2,2 C -3,9 C 91 % 1024,7 hPa 0,0 l/m 0,0 km/h (0 Bft) N 0 0 min 0,0 UV-I 0 W/m -3,5 C -2,2 C 0,0 km/h (0 Bft)
06.05.2020 05:30 -2,2 C -3,9 C 91 % 1024,6 hPa 0,0 l/m 0,0 km/h (0 Bft) N 0 0 min 0,0 UV-I 0 W/m -3,5 C -2,2 C 0,0 km/h (0 Bft)
06.05.2020 05:31 -2,2 C -3,9 C 91 % 1024,7 hPa 0,0 l/m 0,0 km/h (0 Bft) N 0 0 min 0,0 UV-I 0 W/m -3,5 C -2,2 C 0,0 km/h (0 Bft)
06.05.2020 05:32 -2,2 C -3,9 C 91 % 1024,7 hPa 0,0 l/m 0,0 km/h (0 Bft) N-NO 22 0 min 0,0 UV-I 0 W/m -3,5 C -2,2 C 1,6 km/h (1 Bft)
06.05.2020 05:33 -2,2 C -3,9 C 91 % 1024,7 hPa 0,0 l/m 0,0 km/h (0 Bft) N 0 0 min 0,0 UV-I 0 W/m -3,5 C -2,2 C 0,0 km/h (0 Bft)
06.05.2020 05:34 -2,1 C -3,9 C 91 % 1024,7 hPa 0,0 l/m 0,0 km/h (0 Bft) N 0 0 min 0,0 UV-I 0 W/m -3,4 C -2,1 C 0,0 km/h (0 Bft)
06.05.2020 05:35 -2,1 C -3,9 C 91 % 1024,7 hPa 0,0 l/m 0,0 km/h (0 Bft) N-NO 22 0 min 0,0 UV-I 0 W/m -3,4 C -2,1 C 1,6 km/h (1 Bft)
06.05.2020 05:36 -2,0 C -3,9 C 91 % 1024,7 hPa 0,0 l/m 1,6 km/h (1 Bft) N-NO 22 0 min 0,0 UV-I 0 W/m -3,3 C -2,0 C 1,6 km/h (1 Bft)
06.05.2020 05:37 -2,0 C -3,9 C 91 % 1024,7 hPa 0,0 l/m 0,0 km/h (0 Bft) N-NO 22 0 min 0,0 UV-I 0 W/m -3,3 C -2,0 C 1,6 km/h (1 Bft)
06.05.2020 05:38 -2,0 C -3,9 C 91 % 1024,7 hPa 0,0 l/m 0,0 km/h (0 Bft) N-NO 22 0 min 0,0 UV-I 0 W/m -3,3 C -2,0 C 1,6 km/h (1 Bft)
06.05.2020 05:39 -2,1 C -3,9 C 91 % 1024,8 hPa 0,0 l/m 1,6 km/h (1 Bft) N-NO 22 0 min 0,0 UV-I 0 W/m -3,4 C -2,1 C 1,6 km/h (1 Bft)
06.05.2020 05:40 -2,1 C -4,4 C 91 % 1024,7 hPa 0,0 l/m 1,6 km/h (1 Bft) N-NO 22 0 min 0,0 UV-I 0 W/m -3,4 C -2,1 C 1,6 km/h (1 Bft)
06.05.2020 05:41 -2,1 C -4,4 C 91 % 1024,6 hPa 0,0 l/m 1,6 km/h (1 Bft) N-NO 22 0 min 0,0 UV-I 0 W/m -3,4 C -2,1 C 3,2 km/h (1 Bft)
06.05.2020 05:42 -2,1 C -4,4 C 91 % 1024,6 hPa 0,0 l/m 1,6 km/h (1 Bft) N-NO 22 0 min 0,0 UV-I 0 W/m -3,4 C -2,1 C 3,2 km/h (1 Bft)
06.05.2020 05:43 -2,1 C -4,4 C 91 % 1024,8 hPa 0,0 l/m 1,6 km/h (1 Bft) N-NO 22 0 min 0,0 UV-I 0 W/m -3,4 C -2,1 C 3,2 km/h (1 Bft)
06.05.2020 05:44 -2,1 C -3,9 C 91 % 1024,7 hPa 0,0 l/m 1,6 km/h (1 Bft) N-NO 22 0 min 0,0 UV-I 0 W/m -3,4 C -2,1 C 3,2 km/h (1 Bft)
06.05.2020 05:45 -2,1 C -3,9 C 91 % 1024,7 hPa 0,0 l/m 1,6 km/h (1 Bft) N-NO 22 0 min 0,0 UV-I 0 W/m -3,4 C -2,1 C 1,6 km/h (1 Bft)
06.05.2020 05:46 -2,1 C -3,9 C 91 % 1024,8 hPa 0,0 l/m 1,6 km/h (1 Bft) N-NO 22 0 min 0,0 UV-I 0 W/m -3,4 C -2,1 C 1,6 km/h (1 Bft)
06.05.2020 05:47 -2,1 C -3,9 C 91 % 1024,8 hPa 0,0 l/m 0,0 km/h (0 Bft) N-NO 22 0 min 0,0 UV-I 0 W/m -3,4 C -2,1 C 1,6 km/h (1 Bft)
06.05.2020 05:48 -2,1 C -3,9 C 91 % 1024,7 hPa 0,0 l/m 0,0 km/h (0 Bft) N 0 0 min 0,0 UV-I 0 W/m -3,4 C -2,1 C 0,0 km/h (0 Bft)
06.05.2020 05:49 -1,9 C -3,9 C 91 % 1024,8 hPa 0,0 l/m 0,0 km/h (0 Bft) N 0 0 min 0,0 UV-I 0 W/m -3,2 C -1,9 C 0,0 km/h (0 Bft)
06.05.2020 05:50 -2,0 C -3,9 C 91 % 1024,8 hPa 0,0 l/m 0,0 km/h (0 Bft) N 0 0 min 0,0 UV-I 0 W/m -3,3 C -2,0 C 0,0 km/h (0 Bft)
06.05.2020 05:51 -2,0 C -3,9 C 91 % 1024,8 hPa 0,0 l/m 0,0 km/h (0 Bft) N 0 0 min 0,0 UV-I 0 W/m -3,3 C -2,0 C 0,0 km/h (0 Bft)
06.05.2020 05:52 -2,0 C -3,9 C 91 % 1024,8 hPa 0,0 l/m 0,0 km/h (0 Bft) N 0 0 min 0,0 UV-I 0 W/m -3,3 C -2,0 C 0,0 km/h (0 Bft)
06.05.2020 05:53 -2,1 C -3,9 C 91 % 1024,8 hPa 0,0 l/m 0,0 km/h (0 Bft) N 0 0 min 0,0 UV-I 0 W/m -3,4 C -2,1 C 0,0 km/h (0 Bft)
06.05.2020 05:54 -2,1 C -3,9 C 91 % 1024,9 hPa 0,0 l/m 0,0 km/h (0 Bft) N 0 0 min 0,0 UV-I 0 W/m -3,4 C -2,1 C 0,0 km/h (0 Bft)
06.05.2020 05:55 -2,1 C -3,9 C 91 % 1024,9 hPa 0,0 l/m 0,0 km/h (0 Bft) N 0 0 min 0,0 UV-I 0 W/m -3,4 C -2,1 C 0,0 km/h (0 Bft)
06.05.2020 05:56 -2,2 C -3,9 C 91 % 1024,9 hPa 0,0 l/m 0,0 km/h (0 Bft) N 0 0 min 0,0 UV-I 0 W/m -3,5 C -2,2 C 0,0 km/h (0 Bft)
06.05.2020 05:57 -2,2 C -3,9 C 91 % 1025,0 hPa 0,0 l/m 0,0 km/h (0 Bft) N 0 0 min 0,0 UV-I 0 W/m -3,5 C -2,2 C 0,0 km/h (0 Bft)
06.05.2020 05:58 -2,3 C -3,9 C 91 % 1025,0 hPa 0,0 l/m 0,0 km/h (0 Bft) N 0 0 min 0,0 UV-I 0 W/m -3,6 C -2,3 C 0,0 km/h (0 Bft)
06.05.2020 05:59 -2,2 C -3,9 C 91 % 1024,9 hPa 0,0 l/m 0,0 km/h (0 Bft) N 0 0 min 0,0 UV-I 0 W/m -3,5 C -2,2 C 0,0 km/h (0 Bft)
06.05.2020 06:00 -2,2 C -3,9 C 91 % 1024,9 hPa 0,0 l/m 0,0 km/h (0 Bft) N 0 0 min 0,0 UV-I 0 W/m -3,5 C -2,2 C 0,0 km/h (0 Bft)
06.05.2020 06:01 -2,1 C -3,9 C 91 % 1024,9 hPa 0,0 l/m 0,0 km/h (0 Bft) N 0 0 min 0,0 UV-I 0 W/m -3,4 C -2,1 C 0,0 km/h (0 Bft)
06.05.2020 06:02 -2,1 C -3,9 C 91 % 1024,9 hPa 0,0 l/m 0,0 km/h (0 Bft) N 0 0 min 0,0 UV-I 0 W/m -3,4 C -2,1 C 0,0 km/h (0 Bft)
06.05.2020 06:03 -2,2 C -3,9 C 91 % 1025,0 hPa 0,0 l/m 0,0 km/h (0 Bft) N 0 0 min 0,0 UV-I 5 W/m -3,5 C -2,2 C 0,0 km/h (0 Bft)
06.05.2020 06:04 -2,2 C -3,9 C 91 % 1025,0 hPa 0,0 l/m 0,0 km/h (0 Bft) N 0 0 min 0,0 UV-I 5 W/m -3,5 C -2,2 C 0,0 km/h (0 Bft)
06.05.2020 06:05 -2,2 C -3,9 C 91 % 1025,0 hPa 0,0 l/m 0,0 km/h (0 Bft) N 0 0 min 0,0 UV-I 5 W/m -3,5 C -2,2 C 0,0 km/h (0 Bft)
06.05.2020 06:06 -2,2 C -3,9 C 91 % 1025,0 hPa 0,0 l/m 0,0 km/h (0 Bft) N 0 0 min 0,0 UV-I 5 W/m -3,5 C -2,2 C 0,0 km/h (0 Bft)
06.05.2020 06:07 -2,2 C -3,9 C 91 % 1025,0 hPa 0,0 l/m 0,0 km/h (0 Bft) N 0 0 min 0,0 UV-I 5 W/m -3,5 C -2,2 C 0,0 km/h (0 Bft)
06.05.2020 06:08 -2,2 C -3,9 C 91 % 1025,0 hPa 0,0 l/m 0,0 km/h (0 Bft) N 0 0 min 0,0 UV-I 5 W/m -3,5 C -2,2 C 0,0 km/h (0 Bft)
06.05.2020 06:09 -2,2 C -3,9 C 91 % 1025,0 hPa 0,0 l/m 0,0 km/h (0 Bft) N 0 0 min 0,0 UV-I 7 W/m -3,5 C -2,2 C 0,0 km/h (0 Bft)
06.05.2020 06:10 -2,1 C -3,9 C 91 % 1025,1 hPa 0,0 l/m 0,0 km/h (0 Bft) N 0 0 min 0,0 UV-I 7 W/m -3,4 C -2,1 C 0,0 km/h (0 Bft)
06.05.2020 06:11 -2,1 C -3,9 C 91 % 1025,1 hPa 0,0 l/m 0,0 km/h (0 Bft) N 0 0 min 0,0 UV-I 7 W/m -3,4 C -2,1 C 0,0 km/h (0 Bft)
06.05.2020 06:12 -2,2 C -3,9 C 91 % 1025,0 hPa 0,0 l/m 0,0 km/h (0 Bft) N 0 0 min 0,0 UV-I 7 W/m -3,5 C -2,2 C 0,0 km/h (0 Bft)
06.05.2020 06:13 -2,1 C -3,9 C 91 % 1025,0 hPa 0,0 l/m 0,0 km/h (0 Bft) N 0 0 min 0,0 UV-I 7 W/m -3,4 C -2,1 C 0,0 km/h (0 Bft)
06.05.2020 06:14 -2,1 C -3,9 C 91 % 1025,1 hPa 0,0 l/m 0,0 km/h (0 Bft) N-NO 22 0 min 0,0 UV-I 9 W/m -3,4 C -2,1 C 1,6 km/h (1 Bft)
06.05.2020 06:15 -2,2 C -3,9 C 91 % 1025,1 hPa 0,0 l/m 0,0 km/h (0 Bft) N-NO 22 0 min 0,0 UV-I 9 W/m -3,5 C -2,2 C 1,6 km/h (1 Bft)
06.05.2020 06:16 -2,2 C -3,9 C 91 % 1025,1 hPa 0,0 l/m 0,0 km/h (0 Bft) N-NO 22 0 min 0,0 UV-I 10 W/m -3,5 C -2,2 C 1,6 km/h (1 Bft)
06.05.2020 06:17 -2,2 C -3,9 C 91 % 1025,0 hPa 0,0 l/m 0,0 km/h (0 Bft) N 0 0 min 0,0 UV-I 11 W/m -3,5 C -2,2 C 0,0 km/h (0 Bft)
06.05.2020 06:18 -2,2 C -3,9 C 91 % 1025,1 hPa 0,0 l/m 0,0 km/h (0 Bft) N 0 0 min 0,0 UV-I 11 W/m -3,5 C -2,2 C 0,0 km/h (0 Bft)
06.05.2020 06:19 -2,2 C -3,9 C 91 % 1025,2 hPa 0,0 l/m 0,0 km/h (0 Bft) N 0 0 min 0,0 UV-I 11 W/m -3,5 C -2,2 C 0,0 km/h (0 Bft)
06.05.2020 06:20 -2,1 C -3,3 C 91 % 1025,1 hPa 0,0 l/m 0,0 km/h (0 Bft) N 0 0 min 0,0 UV-I 11 W/m -3,4 C -2,1 C 0,0 km/h (0 Bft)
06.05.2020 06:21 -2,2 C -3,3 C 91 % 1025,1 hPa 0,0 l/m 0,0 km/h (0 Bft) N 0 0 min 0,0 UV-I 11 W/m -3,5 C -2,2 C 0,0 km/h (0 Bft)
06.05.2020 06:22 -2,2 C -3,3 C 91 % 1025,1 hPa 0,0 l/m 0,0 km/h (0 Bft) N 0 0 min 0,0 UV-I 12 W/m -3,5 C -2,2 C 0,0 km/h (0 Bft)
06.05.2020 06:23 -2,2 C -3,3 C 91 % 1025,2 hPa 0,0 l/m 0,0 km/h (0 Bft) N 0 0 min 0,0 UV-I 12 W/m -3,5 C -2,2 C 0,0 km/h (0 Bft)
06.05.2020 06:24 -2,2 C -3,3 C 91 % 1025,1 hPa 0,0 l/m 0,0 km/h (0 Bft) N 0 0 min 0,0 UV-I 12 W/m -3,5 C -2,2 C 0,0 km/h (0 Bft)
06.05.2020 06:25 -2,2 C -3,3 C 91 % 1025,2 hPa 0,0 l/m 0,0 km/h (0 Bft) N 0 0 min 0,0 UV-I 12 W/m -3,5 C -2,2 C 0,0 km/h (0 Bft)
06.05.2020 06:26 -2,1 C -3,3 C 91 % 1025,1 hPa 0,0 l/m 0,0 km/h (0 Bft) N 0 0 min 0,0 UV-I 12 W/m -3,4 C -2,1 C 0,0 km/h (0 Bft)
06.05.2020 06:27 -2,1 C -3,3 C 91 % 1025,2 hPa 0,0 l/m 0,0 km/h (0 Bft) N 0 0 min 0,0 UV-I 14 W/m -3,4 C -2,1 C 0,0 km/h (0 Bft)
06.05.2020 06:28 -2,0 C -3,3 C 92 % 1025,2 hPa 0,0 l/m 0,0 km/h (0 Bft) N 0 0 min 0,0 UV-I 14 W/m -3,1 C -2,0 C 0,0 km/h (0 Bft)
06.05.2020 06:29 -1,9 C -3,3 C 92 % 1025,2 hPa 0,0 l/m 0,0 km/h (0 Bft) N 0 0 min 0,0 UV-I 14 W/m -3,0 C -1,9 C 0,0 km/h (0 Bft)
06.05.2020 06:30 -1,8 C -3,3 C 91 % 1025,1 hPa 0,0 l/m 0,0 km/h (0 Bft) N 0 0 min 0,0 UV-I 14 W/m -3,1 C -1,8 C 0,0 km/h (0 Bft)
06.05.2020 06:31 -1,8 C -3,3 C 91 % 1025,1 hPa 0,0 l/m 0,0 km/h (0 Bft) N 0 0 min 0,0 UV-I 16 W/m -3,1 C -1,8 C 0,0 km/h (0 Bft)
06.05.2020 06:32 -1,8 C -3,3 C 91 % 1025,1 hPa 0,0 l/m 0,0 km/h (0 Bft) N 0 0 min 0,0 UV-I 16 W/m -3,1 C -1,8 C 0,0 km/h (0 Bft)
06.05.2020 06:33 -1,8 C -3,3 C 91 % 1025,2 hPa 0,0 l/m 0,0 km/h (0 Bft) N 0 0 min 0,0 UV-I 16 W/m -3,1 C -1,8 C 0,0 km/h (0 Bft)
06.05.2020 06:34 -1,8 C -3,3 C 91 % 1025,1 hPa 0,0 l/m 0,0 km/h (0 Bft) N 0 0 min 0,0 UV-I 18 W/m -3,1 C -1,8 C 0,0 km/h (0 Bft)
06.05.2020 06:35 -1,8 C -3,3 C 91 % 1025,2 hPa 0,0 l/m 0,0 km/h (0 Bft) N 0 0 min 0,0 UV-I 18 W/m -3,1 C -1,8 C 0,0 km/h (0 Bft)
06.05.2020 06:36 -1,7 C -3,3 C 91 % 1025,1 hPa 0,0 l/m 0,0 km/h (0 Bft) N 0 0 min 0,0 UV-I 18 W/m -3,0 C -1,7 C 0,0 km/h (0 Bft)
06.05.2020 06:37 -1,7 C -3,3 C 91 % 1025,2 hPa 0,0 l/m 0,0 km/h (0 Bft) N 0 0 min 0,0 UV-I 18 W/m -3,0 C -1,7 C 0,0 km/h (0 Bft)
06.05.2020 06:38 -1,7 C -3,3 C 91 % 1025,2 hPa 0,0 l/m 0,0 km/h (0 Bft) N 0 0 min 0,0 UV-I 19 W/m -3,0 C -1,7 C 0,0 km/h (0 Bft)
06.05.2020 06:39 -1,8 C -3,3 C 91 % 1025,1 hPa 0,0 l/m 0,0 km/h (0 Bft) N 0 0 min 0,0 UV-I 19 W/m -3,1 C -1,8 C 0,0 km/h (0 Bft)
06.05.2020 06:40 -1,9 C -3,3 C 90 % 1025,3 hPa 0,0 l/m 0,0 km/h (0 Bft) N 0 0 min 0,0 UV-I 21 W/m -3,3 C -1,9 C 0,0 km/h (0 Bft)
06.05.2020 06:41 -1,9 C -3,3 C 90 % 1025,2 hPa 0,0 l/m 0,0 km/h (0 Bft) N 0 0 min 0,0 UV-I 21 W/m -3,3 C -1,9 C 0,0 km/h (0 Bft)
06.05.2020 06:42 -2,1 C -3,3 C 90 % 1025,2 hPa 0,0 l/m 0,0 km/h (0 Bft) N 0 0 min 0,0 UV-I 23 W/m -3,5 C -2,1 C 0,0 km/h (0 Bft)
06.05.2020 06:43 -2,1 C -3,3 C 90 % 1025,2 hPa 0,0 l/m 0,0 km/h (0 Bft) N 0 0 min 0,0 UV-I 23 W/m -3,5 C -2,1 C 0,0 km/h (0 Bft)
06.05.2020 06:44 -2,2 C -3,3 C 90 % 1025,3 hPa 0,0 l/m 0,0 km/h (0 Bft) N 0 0 min 0,0 UV-I 25 W/m -3,6 C -2,2 C 0,0 km/h (0 Bft)
06.05.2020 06:45 -2,2 C -3,3 C 90 % 1025,2 hPa 0,0 l/m 0,0 km/h (0 Bft) N 0 0 min 0,0 UV-I 26 W/m -3,6 C -2,2 C 0,0 km/h (0 Bft)
06.05.2020 06:46 -2,2 C -3,3 C 90 % 1025,2 hPa 0,0 l/m 0,0 km/h (0 Bft) N 0 0 min 0,0 UV-I 28 W/m -3,6 C -2,2 C 0,0 km/h (0 Bft)
06.05.2020 06:47 -2,1 C -3,3 C 91 % 1025,3 hPa 0,0 l/m 0,0 km/h (0 Bft) N 0 0 min 0,0 UV-I 30 W/m -3,4 C -2,1 C 0,0 km/h (0 Bft)
06.05.2020 06:48 -2,1 C -3,3 C 91 % 1025,2 hPa 0,0 l/m 0,0 km/h (0 Bft) N 0 0 min 0,0 UV-I 32 W/m -3,4 C -2,1 C 0,0 km/h (0 Bft)
06.05.2020 06:49 -1,9 C -3,3 C 91 % 1025,3 hPa 0,0 l/m 0,0 km/h (0 Bft) N 0 0 min 0,0 UV-I 32 W/m -3,2 C -1,9 C 0,0 km/h (0 Bft)
06.05.2020 06:50 -1,8 C -3,3 C 91 % 1025,3 hPa 0,0 l/m 0,0 km/h (0 Bft) N 0 0 min 0,0 UV-I 33 W/m -3,1 C -1,8 C 0,0 km/h (0 Bft)
06.05.2020 06:51 -1,8 C -3,3 C 91 % 1025,3 hPa 0,0 l/m 0,0 km/h (0 Bft) N 0 0 min 0,0 UV-I 35 W/m -3,1 C -1,8 C 0,0 km/h (0 Bft)
06.05.2020 06:52 -1,8 C -2,8 C 91 % 1025,3 hPa 0,0 l/m 0,0 km/h (0 Bft) N 0 0 min 0,0 UV-I 39 W/m -3,1 C -1,8 C 0,0 km/h (0 Bft)
06.05.2020 06:53 -1,7 C -2,8 C 91 % 1025,4 hPa 0,0 l/m 0,0 km/h (0 Bft) N 0 0 min 0,0 UV-I 42 W/m -3,0 C -1,7 C 0,0 km/h (0 Bft)
06.05.2020 06:54 -1,7 C -2,8 C 91 % 1025,4 hPa 0,0 l/m 0,0 km/h (0 Bft) N 0 0 min 0,0 UV-I 44 W/m -3,0 C -1,7 C 0,0 km/h (0 Bft)
06.05.2020 06:55 -1,7 C -2,8 C 90 % 1025,4 hPa 0,0 l/m 0,0 km/h (0 Bft) N 0 0 min 0,0 UV-I 47 W/m -3,1 C -1,7 C 0,0 km/h (0 Bft)
06.05.2020 06:56 -1,7 C -2,8 C 90 % 1025,4 hPa 0,0 l/m 0,0 km/h (0 Bft) N 0 0 min 0,0 UV-I 49 W/m -3,1 C -1,7 C 0,0 km/h (0 Bft)
06.05.2020 06:57 -1,7 C -2,8 C 90 % 1025,4 hPa 0,0 l/m 0,0 km/h (0 Bft) N 0 0 min 0,0 UV-I 54 W/m -3,1 C -1,7 C 0,0 km/h (0 Bft)
06.05.2020 06:58 -1,7 C -2,8 C 90 % 1025,4 hPa 0,0 l/m 0,0 km/h (0 Bft) N 0 0 min 0,0 UV-I 56 W/m -3,1 C -1,7 C 0,0 km/h (0 Bft)
06.05.2020 06:59 -1,6 C -2,8 C 90 % 1025,4 hPa 0,0 l/m 0,0 km/h (0 Bft) N 0 0 min 0,0 UV-I 60 W/m -3,0 C -1,6 C 0,0 km/h (0 Bft)
06.05.2020 07:00 -1,6 C -2,8 C 90 % 1025,4 hPa 0,0 l/m 0,0 km/h (0 Bft) N 0 0 min 0,0 UV-I 62 W/m -3,0 C -1,6 C 0,0 km/h (0 Bft)
06.05.2020 07:01 -1,6 C -2,8 C 90 % 1025,4 hPa 0,0 l/m 0,0 km/h (0 Bft) N 0 0 min 0,0 UV-I 65 W/m -3,0 C -1,6 C 0,0 km/h (0 Bft)
06.05.2020 07:02 -1,6 C -2,8 C 90 % 1025,4 hPa 0,0 l/m 0,0 km/h (0 Bft) N 0 0 min 0,0 UV-I 67 W/m -3,0 C -1,6 C 0,0 km/h (0 Bft)
06.05.2020 07:03 -1,6 C -2,8 C 90 % 1025,5 hPa 0,0 l/m 0,0 km/h (0 Bft) N 0 0 min 0,0 UV-I 70 W/m -3,0 C -1,6 C 0,0 km/h (0 Bft)
06.05.2020 07:04 -1,5 C -2,8 C 90 % 1025,4 hPa 0,0 l/m 0,0 km/h (0 Bft) N 0 0 min 0,0 UV-I 74 W/m -2,9 C -1,5 C 0,0 km/h (0 Bft)
06.05.2020 07:05 -1,5 C -2,8 C 90 % 1025,5 hPa 0,0 l/m 0,0 km/h (0 Bft) N 0 0 min 0,0 UV-I 76 W/m -2,9 C -1,5 C 0,0 km/h (0 Bft)
06.05.2020 07:06 -1,5 C -2,8 C 90 % 1025,5 hPa 0,0 l/m 0,0 km/h (0 Bft) N 0 0 min 0,0 UV-I 77 W/m -2,9 C -1,5 C 0,0 km/h (0 Bft)
06.05.2020 07:07 -1,4 C -2,2 C 90 % 1025,6 hPa 0,0 l/m 0,0 km/h (0 Bft) N 0 0 min 0,0 UV-I 79 W/m -2,8 C -1,4 C 0,0 km/h (0 Bft)
06.05.2020 07:08 -1,4 C -2,2 C 90 % 1025,6 hPa 0,0 l/m 0,0 km/h (0 Bft) N 0 0 min 0,0 UV-I 83 W/m -2,8 C -1,4 C 0,0 km/h (0 Bft)
06.05.2020 07:09 -1,3 C -2,2 C 90 % 1025,5 hPa 0,0 l/m 0,0 km/h (0 Bft) N 0 0 min 0,0 UV-I 85 W/m -2,7 C -1,3 C 0,0 km/h (0 Bft)
06.05.2020 07:10 -1,3 C -2,2 C 90 % 1025,5 hPa 0,0 l/m 0,0 km/h (0 Bft) N 0 0 min 0,0 UV-I 88 W/m -2,7 C -1,3 C 0,0 km/h (0 Bft)
06.05.2020 07:11 -1,2 C -2,2 C 90 % 1025,6 hPa 0,0 l/m 0,0 km/h (0 Bft) N 0 0 min 0,0 UV-I 90 W/m -2,6 C -1,2 C 0,0 km/h (0 Bft)
06.05.2020 07:12 -1,2 C -2,2 C 90 % 1025,5 hPa 0,0 l/m 0,0 km/h (0 Bft) N 0 0 min 0,0 UV-I 93 W/m -2,6 C -1,2 C 0,0 km/h (0 Bft)
06.05.2020 07:13 -1,1 C -2,2 C 90 % 1025,5 hPa 0,0 l/m 0,0 km/h (0 Bft) N 0 0 min 0,0 UV-I 95 W/m -2,5 C -1,1 C 0,0 km/h (0 Bft)
06.05.2020 07:14 -1,1 C -2,2 C 90 % 1025,5 hPa 0,0 l/m 0,0 km/h (0 Bft) N-NO 22 0 min 0,0 UV-I 99 W/m -2,5 C -1,1 C 1,6 km/h (1 Bft)
06.05.2020 07:15 -1,0 C -1,7 C 90 % 1025,5 hPa 0,0 l/m 0,0 km/h (0 Bft) N 0 0 min 0,0 UV-I 102 W/m -2,4 C -1,0 C 0,0 km/h (0 Bft)
06.05.2020 07:16 -0,9 C -1,7 C 89 % 1025,5 hPa 0,0 l/m 0,0 km/h (0 Bft) N-NO 22 0 min 0,0 UV-I 104 W/m -2,5 C -0,9 C 1,6 km/h (1 Bft)
06.05.2020 07:17 -0,9 C -1,7 C 89 % 1025,4 hPa 0,0 l/m 0,0 km/h (0 Bft) N-NO 22 0 min 0,0 UV-I 107 W/m -2,5 C -0,9 C 1,6 km/h (1 Bft)
06.05.2020 07:18 -0,8 C -1,7 C 89 % 1025,5 hPa 0,0 l/m 0,0 km/h (0 Bft) N 0 0 min 0,0 UV-I 109 W/m -2,4 C -0,8 C 0,0 km/h (0 Bft)
06.05.2020 07:19 -0,8 C -1,7 C 89 % 1025,6 hPa 0,0 l/m 0,0 km/h (0 Bft) N 0 0 min 0,0 UV-I 113 W/m -2,4 C -0,8 C 0,0 km/h (0 Bft)
06.05.2020 07:20 -0,7 C -1,7 C 89 % 1025,6 hPa 0,0 l/m 0,0 km/h (0 Bft) N-NO 22 0 min 0,0 UV-I 116 W/m -2,3 C -0,7 C 1,6 km/h (1 Bft)
06.05.2020 07:21 -0,7 C -1,7 C 89 % 1025,5 hPa 0,0 l/m 0,0 km/h (0 Bft) N 0 0 min 0,0 UV-I 118 W/m -2,3 C -0,7 C 0,0 km/h (0 Bft)
06.05.2020 07:22 -0,6 C -1,7 C 89 % 1025,6 hPa 0,0 l/m 0,0 km/h (0 Bft) N 0 0 min 0,0 UV-I 123 W/m -2,2 C -0,6 C 0,0 km/h (0 Bft)
06.05.2020 07:23 -0,6 C -1,1 C 89 % 1025,6 hPa 0,0 l/m 0,0 km/h (0 Bft) N 0 0 min 0,0 UV-I 127 W/m -2,2 C -0,6 C 0,0 km/h (0 Bft)
06.05.2020 07:24 -0,6 C -1,1 C 88 % 1025,6 hPa 0,0 l/m 0,0 km/h (0 Bft) N 0 0 min 0,0 UV-I 128 W/m -2,3 C -0,6 C 0,0 km/h (0 Bft)
06.05.2020 07:25 -0,6 C -1,1 C 88 % 1025,7 hPa 0,0 l/m 0,0 km/h (0 Bft) N 0 0 min 0,0 UV-I 132 W/m -2,3 C -0,6 C 0,0 km/h (0 Bft)
06.05.2020 07:26 -0,6 C -1,1 C 88 % 1025,6 hPa 0,0 l/m 0,0 km/h (0 Bft) N 0 0 min 0,5 UV-I 139 W/m -2,3 C -0,6 C 0,0 km/h (0 Bft)
06.05.2020 07:27 -0,5 C -1,1 C 88 % 1025,6 hPa 0,0 l/m 0,0 km/h (0 Bft) N 0 0 min 0,5 UV-I 146 W/m -2,2 C -0,5 C 0,0 km/h (0 Bft)
06.05.2020 07:30 -0,4 C -1,1 C 88 % 1025,6 hPa 0,0 l/m 0,1 km/h (0 Bft) N-NO 25 0 min 0,5 UV-I 153 W/m -2,1 C -0,4 C 1,6 km/h (1 Bft)
06.05.2020 07:32 -0,3 C -0,6 C 88 % 1025,7 hPa 0,0 l/m 0,0 km/h (0 Bft) N-NO 25 0 min 0,5 UV-I 158 W/m -2,0 C -0,3 C 0,0 km/h (0 Bft)
06.05.2020 07:34 -0,2 C -1,1 C 88 % 1025,8 hPa 0,0 l/m 0,0 km/h (0 Bft) N-NO 25 0 min 0,5 UV-I 163 W/m -1,9 C -0,2 C 0,0 km/h (0 Bft)
06.05.2020 07:36 0,0 C -0,6 C 88 % 1025,7 hPa 0,0 l/m 0,0 km/h (0 Bft) N-NO 25 0 min 0,6 UV-I 165 W/m -1,7 C 0,0 C 0,0 km/h (0 Bft)
06.05.2020 07:38 0,2 C -0,6 C 88 % 1025,7 hPa 0,0 l/m 0,0 km/h (0 Bft) N-NO 25 0 min 0,6 UV-I 165 W/m -1,5 C 0,2 C 0,0 km/h (0 Bft)
06.05.2020 07:40 0,4 C -0,6 C 88 % 1025,7 hPa 0,0 l/m 0,0 km/h (0 Bft) N-NO 25 0 min 0,6 UV-I 167 W/m -1,3 C 0,4 C 0,0 km/h (0 Bft)
06.05.2020 07:42 0,6 C -0,6 C 87 % 1025,7 hPa 0,0 l/m 0,0 km/h (0 Bft) N-NO 25 0 min 0,6 UV-I 170 W/m -1,3 C 0,6 C 1,6 km/h (1 Bft)
06.05.2020 07:44 0,7 C 0,0 C 87 % 1025,8 hPa 0,0 l/m 0,4 km/h (0 Bft) N-NO 25 0 min 0,6 UV-I 172 W/m -1,2 C 0,7 C 1,6 km/h (1 Bft)
06.05.2020 07:46 0,9 C 0,0 C 86 % 1025,7 hPa 0,0 l/m 0,2 km/h (0 Bft) N-NO 25 0 min 0,7 UV-I 172 W/m -1,2 C 0,9 C 1,6 km/h (1 Bft)
06.05.2020 07:48 1,1 C 0,6 C 86 % 1025,7 hPa 0,0 l/m 0,5 km/h (0 Bft) N-NO 25 0 min 0,7 UV-I 171 W/m -1,0 C 1,1 C 1,6 km/h (1 Bft)
06.05.2020 07:50 1,2 C 1,1 C 86 % 1025,8 hPa 0,0 l/m 0,7 km/h (0 Bft) N-NO 25 0 min 0,7 UV-I 169 W/m -0,9 C 1,2 C 1,6 km/h (1 Bft)
06.05.2020 07:52 1,3 C 1,7 C 86 % 1025,8 hPa 0,0 l/m 0,9 km/h (0 Bft) N-NO 25 0 min 0,8 UV-I 167 W/m -0,8 C 1,3 C 1,6 km/h (1 Bft)
06.05.2020 07:54 1,5 C 2,2 C 86 % 1025,7 hPa 0,0 l/m 0,5 km/h (0 Bft) N-NO 25 0 min 0,8 UV-I 169 W/m -0,6 C 1,5 C 1,6 km/h (1 Bft)
06.05.2020 07:56 1,6 C 2,2 C 86 % 1025,8 hPa 0,0 l/m 0,5 km/h (0 Bft) N-NO 25 0 min 0,8 UV-I 177 W/m -0,5 C 1,6 C 1,6 km/h (1 Bft)
06.05.2020 07:58 1,8 C 2,8 C 86 % 1025,8 hPa 0,0 l/m 1,5 km/h (1 Bft) N-NO 25 0 min 0,8 UV-I 186 W/m -0,3 C 1,8 C 4,8 km/h (1 Bft)
06.05.2020 08:00 1,9 C 2,8 C 85 % 1025,8 hPa 0,0 l/m 1,3 km/h (1 Bft) N-NO 25 0 min 0,9 UV-I 207 W/m -0,3 C 1,9 C 3,2 km/h (1 Bft)
06.05.2020 08:02 2,2 C 3,3 C 85 % 1025,9 hPa 0,0 l/m 1,8 km/h (1 Bft) N-NO 28 0 min 0,9 UV-I 226 W/m -0,1 C 2,2 C 6,4 km/h (2 Bft)
06.05.2020 08:04 2,6 C 3,3 C 85 % 1025,9 hPa 0,0 l/m 4,6 km/h (1 Bft) N-NO 28 0 min 0,9 UV-I 232 W/m 0,3 C 2,6 C 8,0 km/h (2 Bft)
06.05.2020 08:06 3,1 C 3,9 C 84 % 1025,9 hPa 0,0 l/m 6,1 km/h (2 Bft) NO 53 0 min 0,9 UV-I 242 W/m 0,7 C 3,1 C 9,7 km/h (2 Bft)
06.05.2020 08:08 3,6 C 4,4 C 83 % 1025,9 hPa 0,0 l/m 7,8 km/h (2 Bft) NO 53 0 min 1,0 UV-I 248 W/m 1,0 C 2,3 C 12,9 km/h (3 Bft)
06.05.2020 08:10 4,1 C 5,0 C 80 % 1025,9 hPa 0,0 l/m 6,0 km/h (2 Bft) NO 55 0 min 1,0 UV-I 253 W/m 1,0 C 4,1 C 9,7 km/h (2 Bft)
06.05.2020 08:12 4,3 C 5,0 C 77 % 1026,0 hPa 0,0 l/m 6,5 km/h (2 Bft) NO 44 0 min 1,0 UV-I 258 W/m 0,6 C 4,2 C 8,0 km/h (2 Bft)
06.05.2020 08:14 4,5 C 5,6 C 78 % 1025,9 hPa 0,0 l/m 6,9 km/h (2 Bft) N-NO 28 0 min 1,1 UV-I 265 W/m 1,0 C 4,1 C 9,7 km/h (2 Bft)
06.05.2020 08:16 4,8 C 5,6 C 76 % 1026,0 hPa 0,0 l/m 8,0 km/h (2 Bft) NO 36 0 min 1,1 UV-I 268 W/m 0,9 C 3,4 C 11,3 km/h (2 Bft)
06.05.2020 08:18 5,0 C 6,1 C 75 % 1026,0 hPa 0,0 l/m 8,6 km/h (2 Bft) NO 44 0 min 1,1 UV-I 275 W/m 0,9 C 3,1 C 12,9 km/h (3 Bft)
06.05.2020 08:20 5,2 C 6,1 C 73 % 1026,0 hPa 0,0 l/m 10,2 km/h (2 Bft) NO 35 0 min 1,1 UV-I 280 W/m 0,8 C 2,2 C 14,5 km/h (3 Bft)
06.05.2020 08:22 5,4 C 6,1 C 73 % 1026,1 hPa 0,0 l/m 10,5 km/h (2 Bft) NO 37 0 min 1,2 UV-I 286 W/m 1,0 C 2,2 C 17,7 km/h (3 Bft)
06.05.2020 08:24 5,6 C 6,1 C 71 % 1026,1 hPa 0,0 l/m 10,5 km/h (2 Bft) NO 46 0 min 1,2 UV-I 292 W/m 0,8 C 2,4 C 14,5 km/h (3 Bft)
06.05.2020 08:26 5,7 C 6,1 C 70 % 1026,1 hPa 0,0 l/m 10,5 km/h (2 Bft) N-NO 32 0 min 1,2 UV-I 298 W/m 0,7 C 2,5 C 14,5 km/h (3 Bft)
06.05.2020 08:28 5,8 C 6,1 C 70 % 1026,1 hPa 0,0 l/m 12,3 km/h (3 Bft) N-NO 26 0 min 1,3 UV-I 304 W/m 0,8 C 1,5 C 17,7 km/h (3 Bft)
06.05.2020 08:30 5,9 C 6,7 C 71 % 1026,1 hPa 0,0 l/m 11,0 km/h (2 Bft) NO 40 0 min 1,3 UV-I 309 W/m 1,1 C 2,4 C 16,1 km/h (3 Bft)
06.05.2020 08:32 6,1 C 6,7 C 69 % 1026,1 hPa 0,0 l/m 12,6 km/h (3 Bft) NO 36 0 min 1,3 UV-I 314 W/m 0,8 C 1,7 C 19,3 km/h (3 Bft)
06.05.2020 08:34 6,2 C 6,7 C 68 % 1026,1 hPa 0,0 l/m 11,9 km/h (2 Bft) NO 50 0 min 1,3 UV-I 317 W/m 0,7 C 2,2 C 16,1 km/h (3 Bft)
06.05.2020 08:36 6,2 C 6,7 C 68 % 1026,1 hPa 0,0 l/m 10,8 km/h (2 Bft) NO 34 0 min 1,4 UV-I 324 W/m 0,7 C 2,9 C 16,1 km/h (3 Bft)
06.05.2020 08:38 6,2 C 6,7 C 68 % 1026,1 hPa 0,0 l/m 11,7 km/h (2 Bft) NO 49 0 min 1,4 UV-I 330 W/m 0,7 C 2,3 C 16,1 km/h (3 Bft)
06.05.2020 08:40 6,3 C 6,7 C 67 % 1026,1 hPa 0,0 l/m 9,0 km/h (2 Bft) NO 50 0 min 1,4 UV-I 335 W/m 0,6 C 4,2 C 14,5 km/h (3 Bft)
06.05.2020 08:42 6,3 C 6,7 C 66 % 1026,2 hPa 0,0 l/m 10,6 km/h (2 Bft) NO 42 0 min 1,5 UV-I 341 W/m 0,4 C 3,1 C 14,5 km/h (3 Bft)
06.05.2020 08:44 6,6 C 6,7 C 67 % 1026,1 hPa 0,0 l/m 12,3 km/h (3 Bft) N-NO 26 0 min 1,5 UV-I 346 W/m 0,9 C 2,4 C 16,1 km/h (3 Bft)
06.05.2020 08:46 6,7 C 7,2 C 66 % 1026,2 hPa 0,0 l/m 10,4 km/h (2 Bft) NO 42 0 min 1,5 UV-I 353 W/m 0,8 C 3,7 C 14,5 km/h (3 Bft)
06.05.2020 08:48 6,7 C 7,2 C 66 % 1026,1 hPa 0,0 l/m 11,0 km/h (2 Bft) NO 43 0 min 1,6 UV-I 358 W/m 0,8 C 3,3 C 14,5 km/h (3 Bft)
06.05.2020 08:50 6,8 C 7,2 C 65 % 1026,2 hPa 0,0 l/m 10,6 km/h (2 Bft) O-NO 57 0 min 1,6 UV-I 363 W/m 0,7 C 3,7 C 16,1 km/h (3 Bft)
06.05.2020 08:52 7,0 C 7,8 C 67 % 1026,2 hPa 0,0 l/m 10,1 km/h (2 Bft) NO 51 0 min 1,6 UV-I 368 W/m 1,3 C 4,2 C 14,5 km/h (3 Bft)
06.05.2020 08:54 7,2 C 7,8 C 66 % 1026,1 hPa 0,0 l/m 8,5 km/h (2 Bft) NO 41 0 min 1,7 UV-I 374 W/m 1,3 C 5,5 C 14,5 km/h (3 Bft)
06.05.2020 08:56 7,3 C 8,3 C 66 % 1026,1 hPa 0,0 l/m 10,7 km/h (2 Bft) NO 39 0 min 1,7 UV-I 380 W/m 1,4 C 4,2 C 16,1 km/h (3 Bft)
06.05.2020 08:58 7,3 C 8,3 C 63 % 1026,2 hPa 0,0 l/m 10,4 km/h (2 Bft) N-NO 24 0 min 1,7 UV-I 385 W/m 0,7 C 4,4 C 14,5 km/h (3 Bft)
06.05.2020 09:00 7,5 C 8,3 C 65 % 1026,3 hPa 0,0 l/m 10,0 km/h (2 Bft) N-NO 24 0 min 1,8 UV-I 390 W/m 1,4 C 4,8 C 12,9 km/h (3 Bft)
06.05.2020 09:02 7,6 C 8,3 C 64 % 1026,3 hPa 0,0 l/m 9,4 km/h (2 Bft) NO 34 0 min 1,8 UV-I 396 W/m 1,2 C 5,3 C 14,5 km/h (3 Bft)
06.05.2020 09:04 7,7 C 8,9 C 63 % 1026,3 hPa 0,0 l/m 9,8 km/h (2 Bft) NO 46 0 min 1,8 UV-I 402 W/m 1,1 C 5,2 C 14,5 km/h (3 Bft)
06.05.2020 09:06 7,8 C 8,9 C 65 % 1026,3 hPa 0,0 l/m 10,3 km/h (2 Bft) N-NO 30 0 min 1,9 UV-I 407 W/m 1,6 C 5,0 C 14,5 km/h (3 Bft)
06.05.2020 09:08 7,9 C 8,9 C 63 % 1026,3 hPa 0,0 l/m 10,2 km/h (2 Bft) NO 48 0 min 1,9 UV-I 412 W/m 1,3 C 5,1 C 16,1 km/h (3 Bft)
06.05.2020 09:10 8,1 C 9,4 C 63 % 1026,2 hPa 0,0 l/m 11,4 km/h (2 Bft) N-NO 30 0 min 1,9 UV-I 416 W/m 1,5 C 4,7 C 16,1 km/h (3 Bft)
06.05.2020 09:12 8,1 C 9,4 C 61 % 1026,2 hPa 0,0 l/m 11,2 km/h (2 Bft) NO 41 0 min 2,0 UV-I 418 W/m 1,0 C 4,8 C 14,5 km/h (3 Bft)
06.05.2020 09:14 8,2 C 9,4 C 61 % 1026,2 hPa 0,0 l/m 10,4 km/h (2 Bft) NO 42 0 min 2,0 UV-I 420 W/m 1,1 C 5,4 C 16,1 km/h (3 Bft)
06.05.2020 09:16 8,3 C 9,4 C 62 % 1026,2 hPa 0,0 l/m 9,0 km/h (2 Bft) NO 43 0 min 2,1 UV-I 421 W/m 1,5 C 6,4 C 16,1 km/h (3 Bft)
06.05.2020 09:18 8,4 C 10,0 C 62 % 1026,1 hPa 0,0 l/m 6,8 km/h (2 Bft) NO 53 0 min 2,1 UV-I 420 W/m 1,6 C 8,1 C 14,5 km/h (3 Bft)
06.05.2020 09:20 8,6 C 10,0 C 62 % 1026,1 hPa 0,0 l/m 8,1 km/h (2 Bft) NO 46 0 min 2,1 UV-I 420 W/m 1,7 C 7,3 C 14,5 km/h (3 Bft)
06.05.2020 09:22 8,7 C 10,0 C 60 % 1026,1 hPa 0,0 l/m 8,6 km/h (2 Bft) NO 34 0 min 2,2 UV-I 419 W/m 1,4 C 7,1 C 14,5 km/h (3 Bft)
06.05.2020 09:24 8,8 C 10,0 C 60 % 1026,1 hPa 0,0 l/m 10,2 km/h (2 Bft) NO 50 0 min 2,2 UV-I 418 W/m 1,5 C 6,1 C 17,7 km/h (3 Bft)
06.05.2020 09:26 8,9 C 10,0 C 59 % 1026,2 hPa 0,0 l/m 12,1 km/h (2 Bft) O-NO 64 0 min 2,2 UV-I 417 W/m 1,3 C 5,2 C 16,1 km/h (3 Bft)
06.05.2020 09:28 8,9 C 10,0 C 56 % 1026,2 hPa 0,0 l/m 12,0 km/h (2 Bft) O 84 0 min 2,3 UV-I 416 W/m 0,6 C 5,2 C 19,3 km/h (3 Bft)
06.05.2020 09:30 8,9 C 10,0 C 53 % 1026,1 hPa 0,0 l/m 13,8 km/h (3 Bft) O-NO 76 0 min 2,3 UV-I 413 W/m -0,1 C 4,3 C 22,5 km/h (4 Bft)
06.05.2020 09:32 9,0 C 10,0 C 55 % 1026,2 hPa 0,0 l/m 9,8 km/h (2 Bft) O-NO 71 0 min 2,3 UV-I 410 W/m 0,5 C 6,6 C 19,3 km/h (3 Bft)
06.05.2020 09:34 9,1 C 10,0 C 52 % 1026,2 hPa 0,0 l/m 9,5 km/h (2 Bft) O-SO 117 0 min 2,3 UV-I 408 W/m -0,2 C 6,9 C 16,1 km/h (3 Bft)
06.05.2020 09:36 9,3 C 10,6 C 56 % 1026,2 hPa 0,0 l/m 7,8 km/h (2 Bft) NO 52 0 min 2,4 UV-I 407 W/m 1,0 C 8,3 C 16,1 km/h (3 Bft)
06.05.2020 09:38 9,5 C 11,1 C 53 % 1026,2 hPa 0,0 l/m 13,8 km/h (3 Bft) O 80 0 min 2,4 UV-I 405 W/m 0,4 C 5,1 C 25,7 km/h (4 Bft)
06.05.2020 09:40 9,4 C 10,6 C 52 % 1026,3 hPa 0,0 l/m 13,5 km/h (3 Bft) O 80 0 min 2,5 UV-I 403 W/m 0,1 C 5,1 C 17,7 km/h (3 Bft)
06.05.2020 09:42 9,4 C 10,6 C 50 % 1026,3 hPa 0,0 l/m 13,3 km/h (3 Bft) SO 125 0 min 2,5 UV-I 404 W/m -0,5 C 5,2 C 19,3 km/h (3 Bft)
06.05.2020 09:44 9,2 C 10,6 C 52 % 1026,4 hPa 0,0 l/m 14,6 km/h (3 Bft) O 95 0 min 2,5 UV-I 405 W/m -0,1 C 4,3 C 24,1 km/h (4 Bft)
06.05.2020 09:46 9,3 C 10,6 C 51 % 1026,3 hPa 0,0 l/m 16,7 km/h (3 Bft) O 80 0 min 2,6 UV-I 406 W/m -0,3 C 3,6 C 24,1 km/h (4 Bft)
06.05.2020 09:48 9,2 C 10,6 C 50 % 1026,3 hPa 0,0 l/m 18,5 km/h (3 Bft) O-NO 75 0 min 2,6 UV-I 410 W/m -0,7 C 2,8 C 24,1 km/h (4 Bft)
06.05.2020 09:50 9,1 C 10,0 C 50 % 1026,3 hPa 0,0 l/m 14,1 km/h (3 Bft) O 82 0 min 2,6 UV-I 414 W/m -0,8 C 4,4 C 20,9 km/h (4 Bft)
06.05.2020 09:52 9,3 C 10,0 C 50 % 1026,3 hPa 0,0 l/m 15,1 km/h (3 Bft) O 83 0 min 2,7 UV-I 418 W/m -0,6 C 4,2 C 22,5 km/h (4 Bft)
06.05.2020 09:54 9,4 C 10,6 C 50 % 1026,4 hPa 0,0 l/m 15,9 km/h (3 Bft) NO 49 0 min 2,7 UV-I 425 W/m -0,5 C 4,0 C 29,0 km/h (5 Bft)
06.05.2020 09:56 9,3 C 10,6 C 49 % 1026,3 hPa 0,0 l/m 19,7 km/h (3 Bft) O 80 0 min 2,8 UV-I 434 W/m -0,9 C 2,5 C 27,4 km/h (4 Bft)
06.05.2020 09:58 9,3 C 10,6 C 51 % 1026,3 hPa 0,0 l/m 16,7 km/h (3 Bft) O-NO 70 0 min 2,8 UV-I 442 W/m -0,3 C 3,6 C 24,1 km/h (4 Bft)
06.05.2020 10:00 9,4 C 10,6 C 50 % 1026,3 hPa 0,0 l/m 13,6 km/h (3 Bft) NO 42 0 min 2,8 UV-I 451 W/m -0,5 C 5,0 C 20,9 km/h (4 Bft)
06.05.2020 10:02 9,6 C 10,6 C 50 % 1026,3 hPa 0,0 l/m 16,9 km/h (3 Bft) O 82 0 min 2,8 UV-I 463 W/m -0,3 C 3,9 C 27,4 km/h (4 Bft)
06.05.2020 10:04 9,6 C 10,6 C 50 % 1026,2 hPa 0,0 l/m 13,9 km/h (3 Bft) O 84 0 min 2,9 UV-I 474 W/m -0,3 C 5,1 C 22,5 km/h (4 Bft)
06.05.2020 10:06 9,7 C 11,1 C 50 % 1026,3 hPa 0,0 l/m 14,5 km/h (3 Bft) O-SO 102 0 min 2,9 UV-I 489 W/m -0,2 C 5,0 C 22,5 km/h (4 Bft)
06.05.2020 10:08 9,7 C 11,1 C 49 % 1026,3 hPa 0,0 l/m 16,8 km/h (3 Bft) O 81 0 min 3,0 UV-I 503 W/m -0,5 C 4,0 C 22,5 km/h (4 Bft)
06.05.2020 10:10 9,7 C 11,1 C 49 % 1026,4 hPa 0,0 l/m 16,6 km/h (3 Bft) NO 54 0 min 3,0 UV-I 518 W/m -0,5 C 4,1 C 22,5 km/h (4 Bft)
06.05.2020 10:12 9,7 C 11,1 C 50 % 1026,4 hPa 0,0 l/m 13,6 km/h (3 Bft) O-NO 78 0 min 3,0 UV-I 532 W/m -0,2 C 5,4 C 20,9 km/h (4 Bft)
06.05.2020 10:14 10,1 C 11,7 C 52 % 1026,4 hPa 0,0 l/m 9,7 km/h (2 Bft) O 91 0 min 3,1 UV-I 544 W/m 0,7 C 7,9 C 14,5 km/h (3 Bft)
06.05.2020 10:16 10,3 C 12,2 C 49 % 1026,4 hPa 0,0 l/m 9,6 km/h (2 Bft) SO 136 0 min 3,1 UV-I 556 W/m 0,1 C 8,2 C 14,5 km/h (3 Bft)
06.05.2020 10:18 10,2 C 11,7 C 48 % 1026,4 hPa 0,0 l/m 13,9 km/h (3 Bft) S-SO 153 0 min 3,1 UV-I 571 W/m -0,3 C 5,8 C 20,9 km/h (4 Bft)
06.05.2020 10:20 10,0 C 11,7 C 48 % 1026,4 hPa 0,0 l/m 11,1 km/h (2 Bft) O 86 0 min 3,2 UV-I 583 W/m -0,5 C 7,0 C 16,1 km/h (3 Bft)
06.05.2020 10:22 10,2 C 11,7 C 50 % 1026,4 hPa 0,0 l/m 11,5 km/h (2 Bft) O-NO 58 2 min 3,2 UV-I 590 W/m 0,3 C 7,0 C 16,1 km/h (3 Bft)
06.05.2020 10:24 10,2 C 12,2 C 48 % 1026,3 hPa 0,0 l/m 16,4 km/h (3 Bft) O 80 2 min 3,3 UV-I 602 W/m -0,3 C 4,8 C 22,5 km/h (4 Bft)
06.05.2020 10:26 10,1 C 12,2 C 47 % 1026,3 hPa 0,0 l/m 9,3 km/h (2 Bft) O-NO 75 2 min 3,3 UV-I 606 W/m -0,7 C 8,1 C 14,5 km/h (3 Bft)
06.05.2020 10:28 10,4 C 12,2 C 49 % 1026,4 hPa 0,0 l/m 12,1 km/h (2 Bft) NO 36 2 min 3,3 UV-I 609 W/m 0,2 C 6,9 C 19,3 km/h (3 Bft)
06.05.2020 10:30 10,4 C 12,8 C 48 % 1026,3 hPa 0,0 l/m 17,7 km/h (3 Bft) NO 48 2 min 3,4 UV-I 613 W/m -0,1 C 4,6 C 22,5 km/h (4 Bft)
06.05.2020 10:32 10,2 C 12,8 C 47 % 1026,4 hPa 0,0 l/m 14,0 km/h (3 Bft) NO 36 2 min 3,4 UV-I 618 W/m -0,6 C 5,8 C 22,5 km/h (4 Bft)
06.05.2020 10:34 10,4 C 13,3 C 52 % 1026,4 hPa 0,0 l/m 9,9 km/h (2 Bft) O-NO 67 2 min 3,4 UV-I 624 W/m 1,0 C 8,1 C 16,1 km/h (3 Bft)
06.05.2020 10:36 10,6 C 13,3 C 49 % 1026,4 hPa 0,0 l/m 9,5 km/h (2 Bft) O-NO 76 2 min 3,5 UV-I 628 W/m 0,3 C 8,5 C 17,7 km/h (3 Bft)
06.05.2020 10:38 10,6 C 13,3 C 48 % 1026,4 hPa 0,0 l/m 13,0 km/h (3 Bft) O 92 2 min 3,5 UV-I 630 W/m 0,1 C 6,7 C 19,3 km/h (3 Bft)
06.05.2020 10:40 10,4 C 13,3 C 49 % 1026,4 hPa 0,0 l/m 7,1 km/h (2 Bft) O 88 2 min 3,6 UV-I 634 W/m 0,2 C 9,9 C 12,9 km/h (3 Bft)
06.05.2020 10:42 10,5 C 12,8 C 46 % 1026,4 hPa 0,0 l/m 9,9 km/h (2 Bft) SO 143 2 min 3,6 UV-I 642 W/m -0,6 C 8,2 C 17,7 km/h (3 Bft)
06.05.2020 10:44 10,4 C 12,8 C 46 % 1026,4 hPa 0,0 l/m 6,5 km/h (2 Bft) O-SO 118 2 min 3,7 UV-I 647 W/m -0,7 C 10,4 C 16,1 km/h (3 Bft)
06.05.2020 10:46 10,6 C 13,9 C 49 % 1026,4 hPa 0,0 l/m 6,9 km/h (2 Bft) O 84 2 min 3,7 UV-I 651 W/m 0,3 C 10,3 C 12,9 km/h (3 Bft)
06.05.2020 10:48 10,8 C 13,9 C 48 % 1026,5 hPa 0,0 l/m 14,9 km/h (3 Bft) O 92 2 min 3,7 UV-I 656 W/m 0,2 C 6,1 C 22,5 km/h (4 Bft)
06.05.2020 10:50 10,6 C 13,3 C 45 % 1026,5 hPa 0,0 l/m 16,9 km/h (3 Bft) O-NO 67 2 min 3,8 UV-I 661 W/m -0,8 C 5,1 C 24,1 km/h (4 Bft)
06.05.2020 10:52 10,6 C 13,9 C 47 % 1026,5 hPa 0,0 l/m 8,9 km/h (2 Bft) O 84 2 min 3,8 UV-I 663 W/m -0,2 C 8,9 C 20,9 km/h (4 Bft)
06.05.2020 10:54 10,6 C 13,9 C 45 % 1026,4 hPa 0,0 l/m 13,8 km/h (3 Bft) NO 52 2 min 3,9 UV-I 667 W/m -0,8 C 6,4 C 20,9 km/h (4 Bft)
06.05.2020 10:56 10,6 C 13,9 C 48 % 1026,3 hPa 0,0 l/m 12,9 km/h (3 Bft) O-NO 67 2 min 3,9 UV-I 671 W/m 0,1 C 6,8 C 20,9 km/h (4 Bft)
06.05.2020 10:58 10,6 C 14,4 C 45 % 1026,4 hPa 0,0 l/m 12,7 km/h (3 Bft) O-NO 59 2 min 3,9 UV-I 678 W/m -0,8 C 6,9 C 22,5 km/h (4 Bft)
06.05.2020 11:00 10,8 C 15,0 C 45 % 1026,5 hPa 0,0 l/m 11,6 km/h (2 Bft) O-NO 76 2 min 4,0 UV-I 682 W/m -0,6 C 7,6 C 20,9 km/h (4 Bft)
06.05.2020 11:02 10,7 C 14,4 C 44 % 1026,4 hPa 0,0 l/m 13,3 km/h (3 Bft) O 100 2 min 4,0 UV-I 685 W/m -1,0 C 6,7 C 22,5 km/h (4 Bft)
06.05.2020 11:04 10,6 C 13,9 C 44 % 1026,3 hPa 0,0 l/m 15,5 km/h (3 Bft) O 93 2 min 4,0 UV-I 687 W/m -1,1 C 5,7 C 27,4 km/h (4 Bft)
06.05.2020 11:06 10,7 C 15,0 C 47 % 1026,5 hPa 0,0 l/m 16,3 km/h (3 Bft) NO 44 2 min 4,0 UV-I 690 W/m -0,1 C 5,5 C 25,7 km/h (4 Bft)
06.05.2020 11:08 11,0 C 15,6 C 49 % 1026,4 hPa 0,0 l/m 15,6 km/h (3 Bft) O-NO 61 2 min 4,1 UV-I 693 W/m 0,7 C 6,1 C 20,9 km/h (4 Bft)
06.05.2020 11:10 10,8 C 16,7 C 45 % 1026,5 hPa 0,0 l/m 15,2 km/h (3 Bft) N-NO 19 2 min 4,1 UV-I 697 W/m -0,6 C 6,0 C 22,5 km/h (4 Bft)
06.05.2020 11:12 10,8 C 16,7 C 48 % 1026,4 hPa 0,0 l/m 10,8 km/h (2 Bft) NO 54 2 min 4,2 UV-I 701 W/m 0,2 C 8,0 C 14,5 km/h (3 Bft)
06.05.2020 11:14 10,9 C 16,1 C 46 % 1026,5 hPa 0,0 l/m 10,4 km/h (2 Bft) O 97 2 min 4,2 UV-I 706 W/m -0,3 C 8,4 C 17,7 km/h (3 Bft)
06.05.2020 11:16 10,8 C 15,6 C 43 % 1026,4 hPa 0,0 l/m 8,6 km/h (2 Bft) O 95 2 min 4,2 UV-I 709 W/m -1,3 C 9,3 C 14,5 km/h (3 Bft)
06.05.2020 11:18 10,7 C 16,1 C 43 % 1026,4 hPa 0,0 l/m 10,7 km/h (2 Bft) O 100 2 min 4,3 UV-I 713 W/m -1,4 C 8,0 C 17,7 km/h (3 Bft)
06.05.2020 11:20 10,7 C 16,1 C 46 % 1026,4 hPa 0,0 l/m 10,4 km/h (2 Bft) N-NO 32 2 min 4,3 UV-I 714 W/m -0,4 C 8,1 C 19,3 km/h (3 Bft)
06.05.2020 11:22 11,1 C 17,2 C 49 % 1026,4 hPa 0,0 l/m 14,1 km/h (3 Bft) O-NO 64 2 min 4,3 UV-I 720 W/m 0,8 C 6,8 C 20,9 km/h (4 Bft)
06.05.2020 11:24 11,3 C 17,8 C 51 % 1026,4 hPa 0,0 l/m 12,9 km/h (3 Bft) N-NO 20 2 min 4,4 UV-I 724 W/m 1,5 C 7,6 C 20,9 km/h (4 Bft)
06.05.2020 11:26 11,4 C 18,3 C 45 % 1026,4 hPa 0,0 l/m 10,9 km/h (2 Bft) NO 46 2 min 4,4 UV-I 729 W/m -0,1 C 8,7 C 19,3 km/h (3 Bft)
06.05.2020 11:28 11,5 C 18,3 C 47 % 1026,5 hPa 0,0 l/m 14,5 km/h (3 Bft) O 92 2 min 4,5 UV-I 731 W/m 0,6 C 7,2 C 22,5 km/h (4 Bft)
06.05.2020 11:30 11,0 C 17,2 C 45 % 1026,5 hPa 0,0 l/m 12,1 km/h (2 Bft) SO 129 2 min 4,5 UV-I 734 W/m -0,5 C 7,6 C 17,7 km/h (3 Bft)
06.05.2020 11:32 11,1 C 17,2 C 47 % 1026,5 hPa 0,0 l/m 9,1 km/h (2 Bft) NO 53 2 min 4,5 UV-I 734 W/m 0,2 C 9,3 C 16,1 km/h (3 Bft)
06.05.2020 11:34 11,1 C 17,2 C 47 % 1026,4 hPa 0,0 l/m 5,4 km/h (1 Bft) O 82 2 min 4,6 UV-I 740 W/m 0,2 C 11,1 C 14,5 km/h (3 Bft)
06.05.2020 11:36 11,2 C 16,7 C 46 % 1026,4 hPa 0,0 l/m 6,1 km/h (2 Bft) O 99 2 min 4,6 UV-I 744 W/m 0,0 C 11,2 C 16,1 km/h (3 Bft)
06.05.2020 11:38 11,2 C 17,2 C 46 % 1026,3 hPa 0,0 l/m 3,2 km/h (1 Bft) O 84 2 min 4,6 UV-I 747 W/m 0,0 C 11,2 C 8,0 km/h (2 Bft)
06.05.2020 11:40 11,7 C 17,8 C 48 % 1026,5 hPa 0,0 l/m 10,8 km/h (2 Bft) O-SO 119 2 min 4,7 UV-I 747 W/m 1,1 C 9,1 C 19,3 km/h (3 Bft)
06.05.2020 11:42 11,7 C 17,8 C 43 % 1026,5 hPa 0,0 l/m 11,6 km/h (2 Bft) O 87 2 min 4,7 UV-I 751 W/m -0,5 C 8,7 C 19,3 km/h (3 Bft)
06.05.2020 11:44 11,6 C 17,8 C 45 % 1026,4 hPa 0,0 l/m 5,5 km/h (1 Bft) N-NO 27 2 min 4,7 UV-I 753 W/m 0,1 C 11,6 C 11,3 km/h (2 Bft)
06.05.2020 11:46 12,0 C 18,3 C 49 % 1026,5 hPa 0,0 l/m 10,2 km/h (2 Bft) O-SO 105 2 min 4,8 UV-I 757 W/m 1,6 C 9,7 C 16,1 km/h (3 Bft)
06.05.2020 11:48 11,8 C 16,7 C 41 % 1026,6 hPa 0,0 l/m 9,8 km/h (2 Bft) SO 130 2 min 4,8 UV-I 759 W/m -1,0 C 9,7 C 17,7 km/h (3 Bft)
06.05.2020 11:50 11,8 C 17,8 C 46 % 1026,4 hPa 0,0 l/m 13,3 km/h (3 Bft) O-NO 66 2 min 4,8 UV-I 762 W/m 0,6 C 8,0 C 24,1 km/h (4 Bft)
06.05.2020 11:52 11,8 C 17,8 C 45 % 1026,5 hPa 0,0 l/m 13,8 km/h (3 Bft) O 95 2 min 4,9 UV-I 769 W/m 0,3 C 7,8 C 22,5 km/h (4 Bft)
06.05.2020 11:54 11,8 C 17,8 C 45 % 1026,4 hPa 0,0 l/m 13,4 km/h (3 Bft) NO 40 2 min 4,9 UV-I 773 W/m 0,3 C 8,0 C 22,5 km/h (4 Bft)
06.05.2020 11:56 11,9 C 18,3 C 45 % 1026,6 hPa 0,0 l/m 16,7 km/h (3 Bft) N-NO 32 2 min 4,9 UV-I 774 W/m 0,4 C 6,8 C 24,1 km/h (4 Bft)
06.05.2020 11:58 11,9 C 18,3 C 45 % 1026,6 hPa 0,0 l/m 14,9 km/h (3 Bft) N-NO 23 2 min 4,9 UV-I 777 W/m 0,4 C 7,5 C 19,3 km/h (3 Bft)
06.05.2020 12:00 12,0 C 18,9 C 43 % 1026,6 hPa 0,0 l/m 19,8 km/h (3 Bft) O-NO 59 2 min 4,9 UV-I 780 W/m -0,2 C 5,9 C 27,4 km/h (4 Bft)
06.05.2020 12:02 11,9 C 18,3 C 44 % 1026,6 hPa 0,0 l/m 13,3 km/h (3 Bft) O-NO 78 2 min 5,0 UV-I 782 W/m 0,0 C 8,1 C 20,9 km/h (4 Bft)
06.05.2020 12:04 11,9 C 18,9 C 43 % 1026,6 hPa 0,0 l/m 15,8 km/h (3 Bft) NO 34 2 min 5,0 UV-I 786 W/m -0,3 C 7,1 C 20,9 km/h (4 Bft)
06.05.2020 12:06 11,8 C 18,9 C 43 % 1026,6 hPa 0,0 l/m 15,7 km/h (3 Bft) N-NO 26 2 min 5,0 UV-I 788 W/m -0,4 C 7,0 C 22,5 km/h (4 Bft)
06.05.2020 12:08 11,8 C 18,9 C 45 % 1026,6 hPa 0,0 l/m 14,5 km/h (3 Bft) N 5 2 min 5,1 UV-I 791 W/m 0,3 C 7,5 C 22,5 km/h (4 Bft)
06.05.2020 12:10 12,0 C 20,0 C 46 % 1026,5 hPa 0,0 l/m 11,1 km/h (2 Bft) O-NO 57 2 min 5,1 UV-I 794 W/m 0,7 C 9,2 C 16,1 km/h (3 Bft)
06.05.2020 12:12 12,0 C 19,4 C 46 % 1026,6 hPa 0,0 l/m 8,5 km/h (2 Bft) NO 40 2 min 5,1 UV-I 797 W/m 0,7 C 10,6 C 17,7 km/h (3 Bft)
06.05.2020 12:14 12,2 C 20,0 C 43 % 1026,5 hPa 0,0 l/m 15,8 km/h (3 Bft) NO 42 2 min 5,2 UV-I 800 W/m -0,0 C 7,5 C 19,3 km/h (3 Bft)
06.05.2020 12:16 12,0 C 19,4 C 45 % 1026,7 hPa 0,0 l/m 11,9 km/h (2 Bft) NO 41 2 min 5,2 UV-I 800 W/m 0,4 C 8,9 C 17,7 km/h (3 Bft)
06.05.2020 12:18 12,2 C 19,4 C 44 % 1026,6 hPa 0,0 l/m 6,5 km/h (2 Bft) O-SO 103 2 min 5,2 UV-I 802 W/m 0,3 C 12,2 C 11,3 km/h (2 Bft)
06.05.2020 12:20 12,1 C 17,8 C 45 % 1026,7 hPa 0,0 l/m 6,1 km/h (2 Bft) N-NO 32 2 min 5,2 UV-I 802 W/m 0,5 C 12,1 C 12,9 km/h (3 Bft)
06.05.2020 12:22 12,3 C 18,3 C 45 % 1026,7 hPa 0,0 l/m 13,7 km/h (3 Bft) NO 40 2 min 5,2 UV-I 807 W/m 0,7 C 8,4 C 19,3 km/h (3 Bft)
06.05.2020 12:24 12,0 C 18,3 C 44 % 1026,6 hPa 0,0 l/m 7,1 km/h (2 Bft) N-NO 23 2 min 5,2 UV-I 809 W/m 0,1 C 11,5 C 16,1 km/h (3 Bft)
06.05.2020 12:26 12,1 C 18,3 C 44 % 1026,7 hPa 0,0 l/m 13,2 km/h (3 Bft) N-NO 19 2 min 5,3 UV-I 812 W/m 0,2 C 8,4 C 20,9 km/h (4 Bft)
06.05.2020 12:28 12,3 C 18,9 C 41 % 1026,6 hPa 0,0 l/m 14,5 km/h (3 Bft) O-NO 72 2 min 5,3 UV-I 815 W/m -0,6 C 8,1 C 22,5 km/h (4 Bft)
06.05.2020 12:30 12,3 C 19,4 C 49 % 1026,6 hPa 0,0 l/m 5,2 km/h (1 Bft) NO 38 2 min 5,4 UV-I 818 W/m 1,9 C 12,3 C 12,9 km/h (3 Bft)
06.05.2020 12:32 12,6 C 20,0 C 47 % 1026,5 hPa 0,0 l/m 12,9 km/h (3 Bft) O-NO 59 2 min 5,4 UV-I 821 W/m 1,6 C 9,1 C 22,5 km/h (4 Bft)
06.05.2020 12:34 12,6 C 19,4 C 41 % 1026,5 hPa 0,0 l/m 17,4 km/h (3 Bft) O-NO 60 2 min 5,4 UV-I 821 W/m -0,3 C 7,4 C 24,1 km/h (4 Bft)
06.05.2020 12:36 12,2 C 19,4 C 45 % 1026,5 hPa 0,0 l/m 9,0 km/h (2 Bft) N 9 2 min 5,4 UV-I 823 W/m 0,6 C 10,6 C 17,7 km/h (3 Bft)
06.05.2020 12:38 12,5 C 20,0 C 44 % 1026,5 hPa 0,0 l/m 14,7 km/h (3 Bft) N-NO 24 2 min 5,5 UV-I 826 W/m 0,6 C 8,3 C 22,5 km/h (4 Bft)
06.05.2020 12:40 12,6 C 20,0 C 40 % 1026,6 hPa 0,0 l/m 14,5 km/h (3 Bft) NO 49 2 min 5,5 UV-I 826 W/m -0,6 C 8,5 C 22,5 km/h (4 Bft)
06.05.2020 12:42 12,4 C 19,4 C 44 % 1026,5 hPa 0,0 l/m 10,9 km/h (2 Bft) N-NO 17 2 min 5,5 UV-I 829 W/m 0,5 C 9,8 C 17,7 km/h (3 Bft)
06.05.2020 12:44 12,6 C 20,6 C 44 % 1026,5 hPa 0,0 l/m 16,1 km/h (3 Bft) NO 44 2 min 5,5 UV-I 831 W/m 0,7 C 7,9 C 22,5 km/h (4 Bft)
06.05.2020 12:46 12,3 C 20,6 C 40 % 1026,6 hPa 0,0 l/m 8,5 km/h (2 Bft) N-NO 32 2 min 5,5 UV-I 831 W/m -0,9 C 11,0 C 16,1 km/h (3 Bft)
06.05.2020 12:48 12,6 C 20,0 C 48 % 1026,5 hPa 0,0 l/m 10,3 km/h (2 Bft) N-NO 30 2 min 5,5 UV-I 830 W/m 1,9 C 10,3 C 19,3 km/h (3 Bft)
06.05.2020 12:50 12,6 C 20,0 C 43 % 1026,6 hPa 0,0 l/m 18,1 km/h (3 Bft) NO 53 2 min 5,6 UV-I 834 W/m 0,4 C 7,2 C 25,7 km/h (4 Bft)
06.05.2020 12:52 12,3 C 20,0 C 47 % 1026,6 hPa 0,0 l/m 11,8 km/h (2 Bft) N-NO 32 2 min 5,6 UV-I 837 W/m 1,3 C 9,3 C 17,7 km/h (3 Bft)
06.05.2020 12:54 12,3 C 20,0 C 46 % 1026,6 hPa 0,0 l/m 12,6 km/h (3 Bft) N-NO 26 2 min 5,6 UV-I 837 W/m 1,0 C 8,9 C 17,7 km/h (3 Bft)
06.05.2020 12:56 12,4 C 20,0 C 47 % 1026,5 hPa 0,0 l/m 17,1 km/h (3 Bft) O-NO 59 2 min 5,6 UV-I 837 W/m 1,4 C 7,3 C 20,9 km/h (4 Bft)
06.05.2020 12:58 12,5 C 20,6 C 42 % 1026,6 hPa 0,0 l/m 16,8 km/h (3 Bft) NO 45 2 min 5,6 UV-I 837 W/m -0,1 C 7,5 C 24,1 km/h (4 Bft)
06.05.2020 13:00 12,6 C 21,1 C 45 % 1026,6 hPa 0,0 l/m 15,3 km/h (3 Bft) NO 40 2 min 5,6 UV-I 839 W/m 1,0 C 8,2 C 22,5 km/h (4 Bft)
06.05.2020 13:02 12,6 C 21,1 C 44 % 1026,6 hPa 0,0 l/m 9,8 km/h (2 Bft) O-NO 73 2 min 5,6 UV-I 842 W/m 0,7 C 10,6 C 17,7 km/h (3 Bft)
06.05.2020 13:04 12,6 C 20,6 C 42 % 1026,5 hPa 0,0 l/m 8,3 km/h (2 Bft) N-NO 26 2 min 5,7 UV-I 842 W/m 0,0 C 11,4 C 12,9 km/h (3 Bft)
06.05.2020 13:06 12,2 C 20,6 C 40 % 1026,5 hPa 0,0 l/m 4,0 km/h (1 Bft) N-NW 329 2 min 5,7 UV-I 845 W/m -1,0 C 12,2 C 9,7 km/h (2 Bft)
06.05.2020 13:08 12,4 C 20,6 C 44 % 1026,5 hPa 0,0 l/m 3,6 km/h (1 Bft) NO 48 2 min 5,7 UV-I 845 W/m 0,5 C 12,4 C 6,4 km/h (2 Bft)
06.05.2020 13:10 12,4 C 20,6 C 45 % 1026,6 hPa 0,0 l/m 8,8 km/h (2 Bft) N-NO 28 2 min 5,7 UV-I 847 W/m 0,8 C 10,9 C 19,3 km/h (3 Bft)
06.05.2020 13:12 12,5 C 21,1 C 42 % 1026,6 hPa 0,0 l/m 13,3 km/h (3 Bft) O-NO 69 2 min 5,8 UV-I 848 W/m -0,1 C 8,8 C 19,3 km/h (3 Bft)
06.05.2020 13:14 12,8 C 20,0 C 43 % 1026,6 hPa 0,0 l/m 11,8 km/h (2 Bft) O-NO 58 2 min 5,8 UV-I 849 W/m 0,5 C 9,8 C 19,3 km/h (3 Bft)
06.05.2020 13:16 12,8 C 20,6 C 42 % 1026,7 hPa 0,0 l/m 11,6 km/h (2 Bft) O 86 2 min 5,8 UV-I 849 W/m 0,2 C 9,9 C 16,1 km/h (3 Bft)
06.05.2020 13:18 12,7 C 19,4 C 42 % 1026,6 hPa 0,0 l/m 10,7 km/h (2 Bft) O-SO 105 2 min 5,7 UV-I 851 W/m 0,1 C 10,2 C 14,5 km/h (3 Bft)
06.05.2020 13:20 12,5 C 18,9 C 42 % 1026,7 hPa 0,0 l/m 7,4 km/h (2 Bft) O-SO 117 2 min 5,7 UV-I 849 W/m -0,1 C 11,9 C 11,3 km/h (2 Bft)
06.05.2020 13:22 12,2 C 18,3 C 42 % 1026,7 hPa 0,0 l/m 6,1 km/h (2 Bft) O-SO 108 2 min 5,7 UV-I 848 W/m -0,3 C 12,2 C 14,5 km/h (3 Bft)
06.05.2020 13:24 12,7 C 20,0 C 44 % 1026,6 hPa 0,0 l/m 7,8 km/h (2 Bft) O 85 2 min 5,7 UV-I 847 W/m 0,8 C 11,8 C 16,1 km/h (3 Bft)
06.05.2020 13:26 12,9 C 21,1 C 44 % 1026,5 hPa 0,0 l/m 10,4 km/h (2 Bft) NO 49 2 min 5,8 UV-I 852 W/m 1,0 C 10,6 C 16,1 km/h (3 Bft)
06.05.2020 13:28 12,9 C 21,7 C 41 % 1026,6 hPa 0,0 l/m 8,0 km/h (2 Bft) O-NO 63 2 min 5,8 UV-I 850 W/m -0,0 C 11,9 C 11,3 km/h (2 Bft)
06.05.2020 13:30 12,6 C 21,7 C 41 % 1026,6 hPa 0,0 l/m 11,6 km/h (2 Bft) N-NO 28 2 min 5,8 UV-I 853 W/m -0,3 C 9,7 C 22,5 km/h (4 Bft)
06.05.2020 13:32 12,7 C 22,2 C 44 % 1026,5 hPa 0,0 l/m 17,4 km/h (3 Bft) O-NO 62 2 min 5,8 UV-I 855 W/m 0,8 C 7,6 C 22,5 km/h (4 Bft)
06.05.2020 13:34 12,8 C 21,7 C 40 % 1026,6 hPa 0,0 l/m 14,4 km/h (3 Bft) NO 35 2 min 5,8 UV-I 856 W/m -0,5 C 8,8 C 19,3 km/h (3 Bft)
06.05.2020 13:36 12,8 C 21,7 C 40 % 1026,5 hPa 0,0 l/m 11,2 km/h (2 Bft) N-NO 33 2 min 5,8 UV-I 856 W/m -0,5 C 10,1 C 17,7 km/h (3 Bft)
06.05.2020 13:38 12,9 C 22,2 C 44 % 1026,6 hPa 0,0 l/m 10,1 km/h (2 Bft) O-NO 61 2 min 5,8 UV-I 855 W/m 1,0 C 10,7 C 22,5 km/h (4 Bft)
06.05.2020 13:40 12,9 C 22,8 C 40 % 1026,5 hPa 0,0 l/m 11,9 km/h (2 Bft) NO 49 2 min 5,8 UV-I 854 W/m -0,4 C 9,9 C 24,1 km/h (4 Bft)
06.05.2020 13:42 13,1 C 22,2 C 43 % 1026,6 hPa 0,0 l/m 11,4 km/h (2 Bft) O-NO 72 2 min 5,8 UV-I 854 W/m 0,8 C 10,4 C 19,3 km/h (3 Bft)
06.05.2020 13:44 12,9 C 22,2 C 43 % 1026,5 hPa 0,0 l/m 6,4 km/h (2 Bft) N 360 2 min 5,8 UV-I 853 W/m 0,6 C 12,9 C 12,9 km/h (3 Bft)
06.05.2020 13:46 13,1 C 21,7 C 41 % 1026,5 hPa 0,0 l/m 10,3 km/h (2 Bft) N-NO 32 2 min 5,8 UV-I 853 W/m 0,2 C 10,9 C 17,7 km/h (3 Bft)
06.05.2020 13:48 13,3 C 22,8 C 43 % 1026,6 hPa 0,0 l/m 13,4 km/h (3 Bft) O-NO 63 2 min 5,8 UV-I 852 W/m 1,0 C 9,7 C 20,9 km/h (4 Bft)
06.05.2020 13:50 13,1 C 21,7 C 40 % 1026,5 hPa 0,0 l/m 11,3 km/h (2 Bft) NO 38 2 min 5,8 UV-I 851 W/m -0,2 C 10,4 C 17,7 km/h (3 Bft)
06.05.2020 13:52 13,0 C 21,1 C 40 % 1026,6 hPa 0,0 l/m 11,9 km/h (2 Bft) O-NO 65 2 min 5,8 UV-I 850 W/m -0,3 C 10,0 C 20,9 km/h (4 Bft)
06.05.2020 13:54 13,1 C 21,7 C 38 % 1026,6 hPa 0,0 l/m 10,8 km/h (2 Bft) O-NO 71 2 min 5,8 UV-I 855 W/m -0,9 C 10,6 C 16,1 km/h (3 Bft)
06.05.2020 13:56 13,1 C 21,7 C 39 % 1026,6 hPa 0,0 l/m 8,5 km/h (2 Bft) S-SO 150 2 min 5,8 UV-I 857 W/m -0,5 C 11,8 C 17,7 km/h (3 Bft)
06.05.2020 13:58 12,9 C 20,6 C 37 % 1026,7 hPa 0,0 l/m 10,0 km/h (2 Bft) O-SO 121 2 min 5,8 UV-I 855 W/m -1,4 C 10,8 C 19,3 km/h (3 Bft)
06.05.2020 14:00 13,2 C 20,0 C 43 % 1026,4 hPa 0,0 l/m 6,8 km/h (2 Bft) O-NO 76 2 min 5,8 UV-I 854 W/m 0,9 C 13,0 C 17,7 km/h (3 Bft)
06.05.2020 14:02 13,3 C 21,1 C 37 % 1026,5 hPa 0,0 l/m 10,7 km/h (2 Bft) O 86 2 min 5,8 UV-I 848 W/m -1,1 C 10,9 C 20,9 km/h (4 Bft)
06.05.2020 14:04 13,3 C 21,1 C 36 % 1026,6 hPa 0,0 l/m 8,0 km/h (2 Bft) O-SO 117 2 min 5,8 UV-I 851 W/m -1,4 C 12,3 C 14,5 km/h (3 Bft)
06.05.2020 14:06 12,9 C 20,0 C 37 % 1026,6 hPa 0,0 l/m 6,9 km/h (2 Bft) N 5 2 min 5,8 UV-I 852 W/m -1,4 C 12,6 C 14,5 km/h (3 Bft)
06.05.2020 14:08 13,3 C 21,1 C 36 % 1026,5 hPa 0,0 l/m 7,9 km/h (2 Bft) O-SO 113 2 min 5,8 UV-I 853 W/m -1,4 C 12,4 C 16,1 km/h (3 Bft)
06.05.2020 14:10 13,3 C 20,6 C 39 % 1026,6 hPa 0,0 l/m 5,0 km/h (1 Bft) NO 53 2 min 5,8 UV-I 852 W/m -0,4 C 13,3 C 8,0 km/h (2 Bft)
06.05.2020 14:12 13,5 C 22,2 C 41 % 1026,6 hPa 0,0 l/m 10,4 km/h (2 Bft) N-NO 25 2 min 5,8 UV-I 850 W/m 0,5 C 11,3 C 17,7 km/h (3 Bft)
06.05.2020 14:14 13,7 C 22,2 C 41 % 1026,5 hPa 0,0 l/m 14,0 km/h (3 Bft) NO 36 2 min 5,8 UV-I 847 W/m 0,7 C 10,0 C 20,9 km/h (4 Bft)
06.05.2020 14:16 13,6 C 22,2 C 37 % 1026,5 hPa 0,0 l/m 14,5 km/h (3 Bft) NO 50 2 min 5,8 UV-I 846 W/m -0,8 C 9,7 C 22,5 km/h (4 Bft)
06.05.2020 14:18 13,6 C 22,2 C 43 % 1026,4 hPa 0,0 l/m 12,3 km/h (3 Bft) O-NO 71 2 min 5,8 UV-I 845 W/m 1,3 C 10,5 C 20,9 km/h (4 Bft)
06.05.2020 14:20 13,4 C 21,1 C 40 % 1026,6 hPa 0,0 l/m 12,1 km/h (2 Bft) O 86 2 min 5,8 UV-I 844 W/m 0,1 C 10,4 C 22,5 km/h (4 Bft)
06.05.2020 14:22 13,7 C 21,7 C 45 % 1026,5 hPa 0,0 l/m 6,7 km/h (2 Bft) NO 50 2 min 5,7 UV-I 843 W/m 2,0 C 13,5 C 11,3 km/h (2 Bft)
06.05.2020 14:24 13,9 C 22,2 C 41 % 1026,5 hPa 0,0 l/m 11,1 km/h (2 Bft) N-NO 17 2 min 5,7 UV-I 842 W/m 0,9 C 11,4 C 16,1 km/h (3 Bft)
06.05.2020 14:26 13,7 C 22,2 C 38 % 1026,4 hPa 0,0 l/m 7,8 km/h (2 Bft) O 99 2 min 5,7 UV-I 840 W/m -0,4 C 12,9 C 12,9 km/h (3 Bft)
06.05.2020 14:28 13,3 C 21,7 C 42 % 1026,5 hPa 0,0 l/m 4,8 km/h (1 Bft) NO 46 2 min 5,7 UV-I 839 W/m 0,7 C 13,3 C 9,7 km/h (2 Bft)
06.05.2020 14:30 13,6 C 22,2 C 41 % 1026,5 hPa 0,0 l/m 7,1 km/h (2 Bft) O-NO 57 2 min 5,7 UV-I 838 W/m 0,6 C 13,2 C 12,9 km/h (3 Bft)
06.05.2020 14:32 13,7 C 22,2 C 43 % 1026,4 hPa 0,0 l/m 11,0 km/h (2 Bft) NO 35 2 min 5,7 UV-I 838 W/m 1,4 C 11,2 C 14,5 km/h (3 Bft)
06.05.2020 14:34 13,7 C 23,3 C 40 % 1026,4 hPa 0,0 l/m 9,5 km/h (2 Bft) NO 46 2 min 5,6 UV-I 837 W/m 0,4 C 11,9 C 14,5 km/h (3 Bft)
06.05.2020 14:36 13,8 C 23,3 C 41 % 1026,5 hPa 0,0 l/m 8,6 km/h (2 Bft) NO 54 2 min 5,6 UV-I 834 W/m 0,8 C 12,5 C 14,5 km/h (3 Bft)
06.05.2020 14:38 13,7 C 22,2 C 41 % 1026,5 hPa 0,0 l/m 7,2 km/h (2 Bft) O-NO 57 2 min 5,6 UV-I 833 W/m 0,7 C 13,2 C 11,3 km/h (2 Bft)
06.05.2020 14:40 13,6 C 22,2 C 37 % 1026,5 hPa 0,0 l/m 7,3 km/h (2 Bft) O 90 2 min 5,6 UV-I 830 W/m -0,8 C 13,0 C 11,3 km/h (2 Bft)
06.05.2020 14:42 13,2 C 21,7 C 38 % 1026,4 hPa 0,0 l/m 2,5 km/h (1 Bft) O 88 2 min 5,6 UV-I 828 W/m -0,8 C 13,2 C 6,4 km/h (2 Bft)
06.05.2020 14:44 13,3 C 21,7 C 42 % 1026,4 hPa 0,0 l/m 5,2 km/h (1 Bft) N 355 2 min 5,6 UV-I 828 W/m 0,7 C 13,3 C 9,7 km/h (2 Bft)
06.05.2020 14:46 13,9 C 22,8 C 43 % 1026,3 hPa 0,0 l/m 10,8 km/h (2 Bft) W-NW 284 2 min 5,6 UV-I 825 W/m 1,5 C 11,5 C 16,1 km/h (3 Bft)
06.05.2020 14:48 14,0 C 21,7 C 41 % 1026,2 hPa 0,0 l/m 10,4 km/h (2 Bft) W-NW 288 2 min 5,6 UV-I 824 W/m 1,0 C 11,8 C 16,1 km/h (3 Bft)
06.05.2020 14:50 13,8 C 21,1 C 39 % 1026,3 hPa 0,0 l/m 12,2 km/h (2 Bft) W-NW 297 2 min 5,6 UV-I 821 W/m 0,1 C 10,8 C 14,5 km/h (3 Bft)
06.05.2020 14:52 13,7 C 21,1 C 40 % 1026,4 hPa 0,0 l/m 5,5 km/h (1 Bft) N 5 2 min 5,5 UV-I 816 W/m 0,4 C 13,7 C 14,5 km/h (3 Bft)
06.05.2020 14:54 13,8 C 22,2 C 42 % 1026,4 hPa 0,0 l/m 6,3 km/h (2 Bft) O-NO 63 2 min 5,6 UV-I 815 W/m 1,1 C 13,8 C 14,5 km/h (3 Bft)
06.05.2020 14:56 13,7 C 23,3 C 37 % 1026,3 hPa 0,0 l/m 8,2 km/h (2 Bft) O-NO 67 2 min 5,6 UV-I 814 W/m -0,7 C 12,6 C 17,7 km/h (3 Bft)
06.05.2020 14:58 13,6 C 23,3 C 39 % 1026,3 hPa 0,0 l/m 8,1 km/h (2 Bft) O 81 2 min 5,6 UV-I 811 W/m -0,1 C 12,6 C 16,1 km/h (3 Bft)
06.05.2020 15:00 13,7 C 22,8 C 38 % 1026,3 hPa 0,0 l/m 5,8 km/h (2 Bft) SO 135 2 min 5,5 UV-I 810 W/m -0,4 C 13,7 C 14,5 km/h (3 Bft)
06.05.2020 15:02 13,7 C 21,7 C 46 % 1026,2 hPa 0,0 l/m 5,8 km/h (2 Bft) NO 40 2 min 5,5 UV-I 806 W/m 2,3 C 13,7 C 14,5 km/h (3 Bft)
06.05.2020 15:04 14,3 C 23,3 C 44 % 1026,2 hPa 0,0 l/m 9,3 km/h (2 Bft) NO 53 2 min 5,5 UV-I 806 W/m 2,2 C 12,7 C 14,5 km/h (3 Bft)
06.05.2020 15:06 14,4 C 23,3 C 38 % 1026,3 hPa 0,0 l/m 9,7 km/h (2 Bft) N-NO 26 2 min 5,4 UV-I 803 W/m 0,3 C 12,6 C 17,7 km/h (3 Bft)
06.05.2020 15:08 14,2 C 23,3 C 38 % 1026,2 hPa 0,0 l/m 6,2 km/h (2 Bft) N-NO 30 2 min 5,4 UV-I 802 W/m 0,1 C 14,2 C 19,3 km/h (3 Bft)
06.05.2020 15:10 14,2 C 23,9 C 40 % 1026,2 hPa 0,0 l/m 12,2 km/h (2 Bft) O-NO 73 2 min 5,4 UV-I 799 W/m 0,8 C 11,3 C 19,3 km/h (3 Bft)
06.05.2020 15:12 14,2 C 24,4 C 39 % 1026,2 hPa 0,0 l/m 12,1 km/h (2 Bft) N-NO 23 2 min 5,3 UV-I 796 W/m 0,5 C 11,3 C 19,3 km/h (3 Bft)
06.05.2020 15:14 14,2 C 23,9 C 37 % 1026,3 hPa 0,0 l/m 11,8 km/h (2 Bft) N-NO 29 2 min 5,3 UV-I 796 W/m -0,3 C 11,4 C 16,1 km/h (3 Bft)
06.05.2020 15:16 14,3 C 24,4 C 40 % 1026,1 hPa 0,0 l/m 13,5 km/h (3 Bft) O-NO 64 2 min 5,3 UV-I 792 W/m 0,9 C 10,9 C 20,9 km/h (4 Bft)
06.05.2020 15:18 14,1 C 23,9 C 40 % 1026,3 hPa 0,0 l/m 10,4 km/h (2 Bft) N-NO 26 2 min 5,2 UV-I 788 W/m 0,7 C 11,9 C 17,7 km/h (3 Bft)
06.05.2020 15:20 13,9 C 23,9 C 36 % 1026,2 hPa 0,0 l/m 5,4 km/h (1 Bft) NO 46 2 min 5,2 UV-I 784 W/m -0,9 C 13,9 C 12,9 km/h (3 Bft)
06.05.2020 15:22 13,6 C 22,2 C 40 % 1026,2 hPa 0,0 l/m 4,7 km/h (1 Bft) O-NO 69 2 min 5,2 UV-I 782 W/m 0,3 C 13,6 C 12,9 km/h (3 Bft)
06.05.2020 15:24 14,2 C 22,8 C 41 % 1026,2 hPa 0,0 l/m 10,2 km/h (2 Bft) NO 38 2 min 5,2 UV-I 780 W/m 1,1 C 12,1 C 17,7 km/h (3 Bft)
06.05.2020 15:26 14,3 C 23,3 C 38 % 1026,1 hPa 0,0 l/m 14,2 km/h (3 Bft) O-NO 73 2 min 5,1 UV-I 778 W/m 0,2 C 10,6 C 22,5 km/h (4 Bft)
06.05.2020 15:28 14,2 C 22,8 C 38 % 1026,2 hPa 0,0 l/m 16,0 km/h (3 Bft) NO 45 2 min 5,0 UV-I 775 W/m 0,1 C 9,9 C 20,9 km/h (4 Bft)
06.05.2020 15:30 14,3 C 23,3 C 38 % 1026,1 hPa 0,0 l/m 13,0 km/h (3 Bft) O 80 2 min 5,0 UV-I 772 W/m 0,2 C 11,1 C 19,3 km/h (3 Bft)
06.05.2020 15:32 14,3 C 23,3 C 35 % 1026,2 hPa 0,0 l/m 10,7 km/h (2 Bft) O-NO 69 2 min 5,0 UV-I 771 W/m -0,9 C 12,0 C 19,3 km/h (3 Bft)
06.05.2020 15:34 14,3 C 23,3 C 40 % 1026,2 hPa 0,0 l/m 9,9 km/h (2 Bft) N-NO 28 2 min 4,9 UV-I 768 W/m 0,9 C 12,4 C 17,7 km/h (3 Bft)
06.05.2020 15:36 14,7 C 24,4 C 42 % 1026,2 hPa 0,0 l/m 11,9 km/h (2 Bft) N-NO 22 2 min 4,9 UV-I 766 W/m 1,9 C 12,0 C 19,3 km/h (3 Bft)
06.05.2020 15:38 14,8 C 25,0 C 35 % 1026,1 hPa 0,0 l/m 7,7 km/h (2 Bft) NO 34 2 min 4,9 UV-I 762 W/m -0,5 C 14,1 C 11,3 km/h (2 Bft)
06.05.2020 15:40 14,7 C 25,0 C 38 % 1026,2 hPa 0,0 l/m 9,9 km/h (2 Bft) NO 42 2 min 4,9 UV-I 760 W/m 0,5 C 12,8 C 16,1 km/h (3 Bft)
06.05.2020 15:42 14,6 C 25,6 C 38 % 1026,2 hPa 0,0 l/m 8,5 km/h (2 Bft) N-NO 32 2 min 4,9 UV-I 758 W/m 0,4 C 13,4 C 16,1 km/h (3 Bft)
06.05.2020 15:44 14,2 C 25,6 C 36 % 1026,1 hPa 0,0 l/m 2,7 km/h (1 Bft) NO 54 2 min 4,9 UV-I 754 W/m -0,6 C 14,2 C 8,0 km/h (2 Bft)
06.05.2020 15:46 14,3 C 25,6 C 41 % 1026,1 hPa 0,0 l/m 11,1 km/h (2 Bft) O-SO 102 2 min 4,9 UV-I 751 W/m 1,2 C 11,8 C 20,9 km/h (4 Bft)
06.05.2020 15:48 14,2 C 22,8 C 39 % 1026,1 hPa 0,0 l/m 10,6 km/h (2 Bft) NO 54 2 min 4,8 UV-I 749 W/m 0,5 C 12,0 C 20,9 km/h (4 Bft)
06.05.2020 15:50 14,2 C 22,2 C 38 % 1026,1 hPa 0,0 l/m 12,2 km/h (2 Bft) O-NO 76 2 min 4,7 UV-I 745 W/m 0,1 C 11,3 C 17,7 km/h (3 Bft)
06.05.2020 15:52 14,1 C 22,8 C 39 % 1026,0 hPa 0,0 l/m 5,0 km/h (1 Bft) SO 125 2 min 4,7 UV-I 743 W/m 0,4 C 14,1 C 12,9 km/h (3 Bft)
06.05.2020 15:54 14,2 C 22,8 C 41 % 1026,2 hPa 0,0 l/m 9,6 km/h (2 Bft) O 96 2 min 4,7 UV-I 740 W/m 1,1 C 12,4 C 16,1 km/h (3 Bft)
06.05.2020 15:56 14,2 C 22,2 C 36 % 1026,1 hPa 0,0 l/m 9,0 km/h (2 Bft) O-SO 109 2 min 4,6 UV-I 733 W/m -0,6 C 12,7 C 14,5 km/h (3 Bft)
06.05.2020 15:58 13,9 C 21,1 C 37 % 1026,1 hPa 0,0 l/m 5,1 km/h (1 Bft) SO 134 2 min 4,5 UV-I 731 W/m -0,5 C 13,9 C 11,3 km/h (2 Bft)
06.05.2020 16:00 13,9 C 21,7 C 38 % 1026,0 hPa 0,0 l/m 4,3 km/h (1 Bft) SO 134 2 min 4,5 UV-I 727 W/m -0,2 C 13,9 C 8,0 km/h (2 Bft)
06.05.2020 16:02 14,0 C 21,7 C 36 % 1026,1 hPa 0,0 l/m 3,4 km/h (1 Bft) O-NO 63 2 min 4,5 UV-I 722 W/m -0,8 C 14,0 C 4,8 km/h (1 Bft)
06.05.2020 16:04 14,6 C 22,8 C 40 % 1025,9 hPa 0,0 l/m 7,9 km/h (2 Bft) N-NW 348 2 min 4,4 UV-I 718 W/m 1,2 C 13,7 C 14,5 km/h (3 Bft)
06.05.2020 16:06 14,7 C 23,9 C 36 % 1026,0 hPa 0,0 l/m 11,1 km/h (2 Bft) N-NO 33 2 min 4,4 UV-I 716 W/m -0,2 C 12,3 C 17,7 km/h (3 Bft)
06.05.2020 16:08 14,9 C 23,9 C 33 % 1026,0 hPa 0,0 l/m 10,2 km/h (2 Bft) N 351 2 min 4,4 UV-I 713 W/m -1,2 C 12,9 C 17,7 km/h (3 Bft)
06.05.2020 16:10 15,0 C 24,4 C 40 % 1025,9 hPa 0,0 l/m 7,0 km/h (2 Bft) N 360 2 min 4,3 UV-I 709 W/m 1,5 C 14,7 C 12,9 km/h (3 Bft)
06.05.2020 16:12 14,8 C 23,9 C 34 % 1025,9 hPa 0,0 l/m 7,2 km/h (2 Bft) O-NO 58 2 min 4,3 UV-I 705 W/m -0,9 C 14,3 C 11,3 km/h (2 Bft)
06.05.2020 16:14 14,5 C 22,2 C 37 % 1025,9 hPa 0,0 l/m 9,7 km/h (2 Bft) O-SO 107 2 min 4,3 UV-I 701 W/m -0,0 C 12,7 C 22,5 km/h (4 Bft)
06.05.2020 16:16 14,8 C 22,2 C 39 % 1025,9 hPa 0,0 l/m 12,0 km/h (2 Bft) O-NO 74 2 min 4,2 UV-I 698 W/m 1,0 C 12,0 C 17,7 km/h (3 Bft)
06.05.2020 16:18 14,9 C 23,3 C 37 % 1026,0 hPa 0,0 l/m 12,2 km/h (2 Bft) N-NO 20 2 min 4,2 UV-I 694 W/m 0,3 C 12,1 C 17,7 km/h (3 Bft)
06.05.2020 16:20 14,8 C 25,0 C 36 % 1026,0 hPa 0,0 l/m 10,6 km/h (2 Bft) N-NO 32 2 min 4,1 UV-I 687 W/m -0,1 C 12,6 C 17,7 km/h (3 Bft)
06.05.2020 16:22 14,8 C 25,0 C 34 % 1025,9 hPa 0,0 l/m 9,7 km/h (2 Bft) NO 53 2 min 4,1 UV-I 684 W/m -0,9 C 13,0 C 16,1 km/h (3 Bft)
06.05.2020 16:24 14,7 C 24,4 C 33 % 1025,9 hPa 0,0 l/m 5,2 km/h (1 Bft) NO 46 2 min 4,1 UV-I 680 W/m -1,4 C 14,7 C 17,7 km/h (3 Bft)
06.05.2020 16:26 14,8 C 24,4 C 37 % 1025,9 hPa 0,0 l/m 11,8 km/h (2 Bft) O-NO 67 2 min 4,0 UV-I 677 W/m 0,3 C 12,1 C 16,1 km/h (3 Bft)
06.05.2020 16:28 14,4 C 23,3 C 36 % 1025,9 hPa 0,0 l/m 3,7 km/h (1 Bft) O 82 2 min 4,0 UV-I 673 W/m -0,5 C 14,4 C 11,3 km/h (2 Bft)
06.05.2020 16:30 14,3 C 22,2 C 33 % 1025,9 hPa 0,0 l/m 7,7 km/h (2 Bft) O-NO 75 2 min 4,0 UV-I 668 W/m -1,7 C 13,5 C 19,3 km/h (3 Bft)
06.05.2020 16:32 14,1 C 21,1 C 35 % 1025,9 hPa 0,0 l/m 5,1 km/h (1 Bft) SO 134 2 min 3,9 UV-I 664 W/m -1,1 C 14,1 C 9,7 km/h (2 Bft)
06.05.2020 16:34 14,0 C 21,1 C 36 % 1025,9 hPa 0,0 l/m 5,0 km/h (1 Bft) NO 44 2 min 3,9 UV-I 661 W/m -0,8 C 14,0 C 8,0 km/h (2 Bft)
06.05.2020 16:36 14,2 C 22,2 C 34 % 1025,9 hPa 0,0 l/m 5,0 km/h (1 Bft) NO 43 2 min 3,8 UV-I 657 W/m -1,4 C 14,2 C 9,7 km/h (2 Bft)
06.05.2020 16:38 14,7 C 23,3 C 34 % 1026,0 hPa 0,0 l/m 10,7 km/h (2 Bft) O-NO 62 2 min 3,8 UV-I 652 W/m -1,0 C 12,5 C 19,3 km/h (3 Bft)
06.05.2020 16:40 14,5 C 22,8 C 34 % 1025,8 hPa 0,0 l/m 5,3 km/h (1 Bft) S 172 2 min 3,8 UV-I 649 W/m -1,2 C 14,5 C 11,3 km/h (2 Bft)
06.05.2020 16:42 14,4 C 21,7 C 34 % 1025,8 hPa 0,0 l/m 4,3 km/h (1 Bft) S-SO 159 2 min 3,7 UV-I 644 W/m -1,3 C 14,4 C 8,0 km/h (2 Bft)
06.05.2020 16:44 14,4 C 20,6 C 35 % 1025,9 hPa 0,0 l/m 7,4 km/h (2 Bft) S-SO 148 2 min 3,7 UV-I 639 W/m -0,9 C 13,8 C 11,3 km/h (2 Bft)
06.05.2020 16:46 14,5 C 21,1 C 36 % 1025,9 hPa 0,0 l/m 8,1 km/h (2 Bft) SO 132 2 min 3,6 UV-I 635 W/m -0,4 C 13,5 C 12,9 km/h (3 Bft)
06.05.2020 16:48 14,7 C 21,7 C 34 % 1025,9 hPa 0,0 l/m 9,7 km/h (2 Bft) NO 56 2 min 3,6 UV-I 630 W/m -1,0 C 12,9 C 17,7 km/h (3 Bft)
06.05.2020 16:50 14,7 C 22,2 C 34 % 1025,9 hPa 0,0 l/m 8,9 km/h (2 Bft) NO 56 2 min 3,5 UV-I 625 W/m -1,0 C 13,3 C 14,5 km/h (3 Bft)
06.05.2020 16:52 14,6 C 22,2 C 32 % 1025,8 hPa 0,0 l/m 9,3 km/h (2 Bft) S 170 2 min 3,5 UV-I 620 W/m -1,9 C 13,0 C 17,7 km/h (3 Bft)
06.05.2020 16:54 14,6 C 22,2 C 33 % 1025,7 hPa 0,0 l/m 9,9 km/h (2 Bft) O-NO 63 2 min 3,4 UV-I 615 W/m -1,5 C 12,7 C 17,7 km/h (3 Bft)
06.05.2020 16:56 14,8 C 22,8 C 38 % 1025,8 hPa 0,0 l/m 11,6 km/h (2 Bft) N-NO 17 2 min 3,4 UV-I 610 W/m 0,6 C 12,2 C 20,9 km/h (4 Bft)
06.05.2020 16:58 14,9 C 23,9 C 39 % 1025,8 hPa 0,0 l/m 9,0 km/h (2 Bft) NO 38 2 min 3,4 UV-I 606 W/m 1,1 C 13,5 C 12,9 km/h (3 Bft)
06.05.2020 17:00 14,9 C 24,4 C 37 % 1025,8 hPa 0,0 l/m 6,2 km/h (2 Bft) NO 34 2 min 3,3 UV-I 600 W/m 0,3 C 14,9 C 11,3 km/h (2 Bft)
06.05.2020 17:02 14,8 C 23,9 C 34 % 1025,7 hPa 0,0 l/m 6,6 km/h (2 Bft) O-NO 76 2 min 3,3 UV-I 594 W/m -0,9 C 14,7 C 9,7 km/h (2 Bft)
06.05.2020 17:04 14,8 C 22,2 C 37 % 1025,7 hPa 0,0 l/m 13,1 km/h (3 Bft) NO 51 2 min 3,2 UV-I 591 W/m 0,3 C 11,6 C 20,9 km/h (4 Bft)
06.05.2020 17:06 14,7 C 22,8 C 36 % 1025,8 hPa 0,0 l/m 9,7 km/h (2 Bft) N-NO 24 2 min 3,2 UV-I 588 W/m -0,2 C 12,9 C 16,1 km/h (3 Bft)
06.05.2020 17:08 14,9 C 23,9 C 38 % 1025,7 hPa 0,0 l/m 11,1 km/h (2 Bft) O 84 0 min 3,1 UV-I 582 W/m 0,7 C 12,5 C 17,7 km/h (3 Bft)
06.05.2020 17:10 14,8 C 22,8 C 34 % 1025,7 hPa 0,0 l/m 9,5 km/h (2 Bft) O 90 0 min 3,1 UV-I 576 W/m -0,9 C 13,1 C 16,1 km/h (3 Bft)
06.05.2020 17:12 14,4 C 22,2 C 36 % 1025,6 hPa 0,0 l/m 3,8 km/h (1 Bft) O-SO 102 0 min 3,1 UV-I 571 W/m -0,5 C 14,4 C 11,3 km/h (2 Bft)
06.05.2020 17:14 14,5 C 23,3 C 37 % 1025,8 hPa 0,0 l/m 4,6 km/h (1 Bft) O-NO 63 0 min 3,0 UV-I 565 W/m -0,0 C 14,5 C 9,7 km/h (2 Bft)
06.05.2020 17:16 14,6 C 23,3 C 37 % 1025,7 hPa 0,0 l/m 4,8 km/h (1 Bft) O-NO 67 0 min 3,0 UV-I 561 W/m 0,1 C 14,6 C 12,9 km/h (3 Bft)
06.05.2020 17:18 14,9 C 23,9 C 39 % 1025,7 hPa 0,0 l/m 6,7 km/h (2 Bft) N-NO 30 0 min 2,9 UV-I 556 W/m 1,1 C 14,7 C 9,7 km/h (2 Bft)
06.05.2020 17:20 15,0 C 23,3 C 40 % 1025,8 hPa 0,0 l/m 6,0 km/h (2 Bft) O-NO 69 0 min 2,9 UV-I 552 W/m 1,5 C 15,0 C 9,7 km/h (2 Bft)
06.05.2020 17:22 14,6 C 22,8 C 34 % 1025,7 hPa 0,0 l/m 2,8 km/h (1 Bft) N-NO 22 0 min 2,9 UV-I 548 W/m -1,1 C 14,6 C 6,4 km/h (2 Bft)
06.05.2020 17:24 14,8 C 23,3 C 40 % 1025,7 hPa 0,0 l/m 3,3 km/h (1 Bft) NO 53 0 min 2,8 UV-I 543 W/m 1,3 C 14,8 C 6,4 km/h (2 Bft)
06.05.2020 17:26 14,9 C 23,3 C 37 % 1025,7 hPa 0,0 l/m 13,0 km/h (3 Bft) NO 34 0 min 2,8 UV-I 538 W/m 0,3 C 11,8 C 19,3 km/h (3 Bft)
06.05.2020 17:28 14,9 C 23,9 C 40 % 1025,8 hPa 0,0 l/m 12,3 km/h (3 Bft) N-NO 22 0 min 2,7 UV-I 532 W/m 1,4 C 12,0 C 17,7 km/h (3 Bft)
06.05.2020 17:30 15,1 C 23,9 C 41 % 1025,8 hPa 0,0 l/m 7,7 km/h (2 Bft) NO 49 0 min 2,7 UV-I 528 W/m 2,0 C 14,4 C 14,5 km/h (3 Bft)
06.05.2020 17:32 15,1 C 23,3 C 37 % 1025,8 hPa 0,0 l/m 11,5 km/h (2 Bft) NO 46 0 min 2,7 UV-I 521 W/m 0,5 C 12,6 C 19,3 km/h (3 Bft)
06.05.2020 17:34 14,9 C 22,8 C 38 % 1025,8 hPa 0,0 l/m 11,5 km/h (2 Bft) O-NO 58 0 min 2,6 UV-I 515 W/m 0,7 C 12,4 C 17,7 km/h (3 Bft)
06.05.2020 17:36 14,7 C 22,2 C 35 % 1025,9 hPa 0,0 l/m 13,3 km/h (3 Bft) O-NO 62 0 min 2,6 UV-I 508 W/m -0,6 C 11,4 C 17,7 km/h (3 Bft)
06.05.2020 17:38 14,4 C 21,7 C 35 % 1025,9 hPa 0,0 l/m 7,7 km/h (2 Bft) O-NO 66 0 min 2,5 UV-I 503 W/m -0,9 C 13,6 C 14,5 km/h (3 Bft)
06.05.2020 17:40 14,6 C 21,7 C 38 % 1025,9 hPa 0,0 l/m 6,2 km/h (2 Bft) O-NO 59 0 min 2,5 UV-I 498 W/m 0,4 C 14,6 C 12,9 km/h (3 Bft)
06.05.2020 17:42 14,8 C 21,7 C 39 % 1025,9 hPa 0,0 l/m 6,8 km/h (2 Bft) N-NO 28 0 min 2,4 UV-I 494 W/m 1,0 C 14,6 C 12,9 km/h (3 Bft)
06.05.2020 17:44 14,8 C 22,2 C 38 % 1025,8 hPa 0,0 l/m 4,4 km/h (1 Bft) NO 44 0 min 2,4 UV-I 488 W/m 0,6 C 14,8 C 8,0 km/h (2 Bft)
06.05.2020 17:46 14,8 C 22,2 C 39 % 1025,7 hPa 0,0 l/m 6,3 km/h (2 Bft) O-NO 61 0 min 2,3 UV-I 481 W/m 1,0 C 14,8 C 9,7 km/h (2 Bft)
06.05.2020 17:48 14,9 C 22,8 C 40 % 1025,8 hPa 0,0 l/m 10,3 km/h (2 Bft) N-NO 24 0 min 2,3 UV-I 476 W/m 1,4 C 12,9 C 17,7 km/h (3 Bft)
06.05.2020 17:50 14,9 C 22,2 C 39 % 1025,7 hPa 0,0 l/m 8,1 km/h (2 Bft) NO 44 0 min 2,3 UV-I 472 W/m 1,1 C 13,9 C 9,7 km/h (2 Bft)
06.05.2020 17:52 14,8 C 21,7 C 37 % 1025,7 hPa 0,0 l/m 8,7 km/h (2 Bft) NO 51 0 min 2,2 UV-I 466 W/m 0,3 C 13,5 C 14,5 km/h (3 Bft)
06.05.2020 17:54 14,8 C 22,2 C 39 % 1025,8 hPa 0,0 l/m 8,2 km/h (2 Bft) NO 34 0 min 2,2 UV-I 461 W/m 1,0 C 13,8 C 11,3 km/h (2 Bft)
06.05.2020 17:56 14,9 C 21,7 C 41 % 1025,9 hPa 0,0 l/m 5,0 km/h (1 Bft) NO 44 0 min 2,2 UV-I 455 W/m 1,8 C 14,9 C 8,0 km/h (2 Bft)
06.05.2020 17:58 15,0 C 22,2 C 37 % 1025,8 hPa 0,0 l/m 4,5 km/h (1 Bft) NO 46 0 min 2,1 UV-I 450 W/m 0,4 C 15,0 C 6,4 km/h (2 Bft)
06.05.2020 18:00 14,9 C 22,2 C 40 % 1025,7 hPa 0,0 l/m 13,5 km/h (3 Bft) N-NO 30 0 min 2,1 UV-I 444 W/m 1,4 C 11,6 C 19,3 km/h (3 Bft)
06.05.2020 18:02 14,8 C 21,7 C 39 % 1025,8 hPa 0,0 l/m 13,5 km/h (3 Bft) NO 47 0 min 2,1 UV-I 440 W/m 1,0 C 11,5 C 17,7 km/h (3 Bft)
06.05.2020 18:04 14,6 C 21,1 C 39 % 1025,9 hPa 0,0 l/m 16,0 km/h (3 Bft) N-NO 23 0 min 2,0 UV-I 433 W/m 0,8 C 10,4 C 20,9 km/h (4 Bft)
06.05.2020 18:06 14,5 C 21,7 C 43 % 1025,8 hPa 0,0 l/m 8,8 km/h (2 Bft) N 5 0 min 2,0 UV-I 429 W/m 2,1 C 13,2 C 14,5 km/h (3 Bft)
06.05.2020 18:08 14,5 C 21,7 C 41 % 1025,8 hPa 0,0 l/m 7,6 km/h (2 Bft) N-NO 20 0 min 1,9 UV-I 424 W/m 1,4 C 13,8 C 17,7 km/h (3 Bft)
06.05.2020 18:10 14,5 C 21,7 C 41 % 1025,8 hPa 0,0 l/m 14,2 km/h (3 Bft) NO 36 0 min 1,9 UV-I 416 W/m 1,4 C 10,9 C 17,7 km/h (3 Bft)
06.05.2020 18:12 14,5 C 21,7 C 39 % 1025,8 hPa 0,0 l/m 5,8 km/h (2 Bft) N-NO 32 0 min 1,8 UV-I 410 W/m 0,7 C 14,5 C 12,9 km/h (3 Bft)
06.05.2020 18:14 14,4 C 21,1 C 39 % 1025,8 hPa 0,0 l/m 9,6 km/h (2 Bft) O-NO 65 0 min 1,8 UV-I 406 W/m 0,6 C 12,6 C 16,1 km/h (3 Bft)
06.05.2020 18:16 14,4 C 20,6 C 39 % 1025,8 hPa 0,0 l/m 8,5 km/h (2 Bft) O-NO 58 0 min 1,8 UV-I 399 W/m 0,6 C 13,2 C 16,1 km/h (3 Bft)
06.05.2020 18:18 14,4 C 20,6 C 40 % 1025,9 hPa 0,0 l/m 5,7 km/h (1 Bft) NO 48 0 min 1,7 UV-I 396 W/m 1,0 C 14,4 C 9,7 km/h (2 Bft)
06.05.2020 18:20 14,6 C 21,1 C 39 % 1025,8 hPa 0,0 l/m 5,2 km/h (1 Bft) NO 35 0 min 1,7 UV-I 389 W/m 0,8 C 14,6 C 9,7 km/h (2 Bft)
06.05.2020 18:22 14,6 C 21,1 C 39 % 1025,8 hPa 0,0 l/m 9,1 km/h (2 Bft) NO 49 0 min 1,7 UV-I 384 W/m 0,8 C 13,1 C 12,9 km/h (3 Bft)
06.05.2020 18:24 14,4 C 21,1 C 39 % 1025,9 hPa 0,0 l/m 7,2 km/h (2 Bft) N 360 0 min 1,6 UV-I 380 W/m 0,6 C 13,9 C 12,9 km/h (3 Bft)
06.05.2020 18:26 14,5 C 20,6 C 40 % 1025,9 hPa 0,0 l/m 10,1 km/h (2 Bft) NO 49 0 min 1,6 UV-I 373 W/m 1,1 C 12,5 C 14,5 km/h (3 Bft)
06.05.2020 18:28 14,4 C 20,6 C 41 % 1025,8 hPa 0,0 l/m 9,5 km/h (2 Bft) N 9 0 min 1,6 UV-I 367 W/m 1,3 C 12,7 C 17,7 km/h (3 Bft)
06.05.2020 18:30 14,3 C 20,6 C 42 % 1025,8 hPa 0,0 l/m 6,9 km/h (2 Bft) N 5 0 min 1,5 UV-I 360 W/m 1,6 C 14,0 C 11,3 km/h (2 Bft)
06.05.2020 18:32 14,3 C 20,0 C 42 % 1025,8 hPa 0,0 l/m 10,9 km/h (2 Bft) N 5 0 min 1,5 UV-I 355 W/m 1,6 C 11,9 C 16,1 km/h (3 Bft)
06.05.2020 18:34 14,3 C 20,0 C 43 % 1025,7 hPa 0,0 l/m 12,3 km/h (3 Bft) N 355 0 min 1,5 UV-I 351 W/m 1,9 C 11,3 C 19,3 km/h (3 Bft)
06.05.2020 18:36 14,1 C 19,4 C 41 % 1025,8 hPa 0,0 l/m 11,7 km/h (2 Bft) N-NO 14 0 min 1,4 UV-I 346 W/m 1,1 C 11,4 C 17,7 km/h (3 Bft)
06.05.2020 18:38 14,1 C 19,4 C 41 % 1025,8 hPa 0,0 l/m 11,3 km/h (2 Bft) N 5 0 min 1,4 UV-I 339 W/m 1,1 C 11,5 C 16,1 km/h (3 Bft)
06.05.2020 18:40 13,9 C 18,9 C 40 % 1025,8 hPa 0,0 l/m 8,4 km/h (2 Bft) N-NO 19 0 min 1,4 UV-I 334 W/m 0,5 C 12,7 C 14,5 km/h (3 Bft)
06.05.2020 18:42 13,9 C 18,9 C 42 % 1025,8 hPa 0,0 l/m 6,5 km/h (2 Bft) N 5 0 min 1,3 UV-I 328 W/m 1,2 C 13,9 C 12,9 km/h (3 Bft)
06.05.2020 18:44 13,9 C 17,8 C 40 % 1025,9 hPa 0,0 l/m 13,7 km/h (3 Bft) N-NW 333 0 min 1,3 UV-I 322 W/m 0,5 C 10,3 C 20,9 km/h (4 Bft)
06.05.2020 18:46 13,8 C 16,1 C 40 % 1026,0 hPa 0,0 l/m 12,3 km/h (3 Bft) N-NW 346 0 min 1,3 UV-I 316 W/m 0,4 C 10,8 C 19,3 km/h (3 Bft)
06.05.2020 18:48 13,7 C 15,6 C 40 % 1025,9 hPa 0,0 l/m 14,2 km/h (3 Bft) N-NW 340 0 min 1,2 UV-I 311 W/m 0,4 C 9,9 C 19,3 km/h (3 Bft)
06.05.2020 18:50 13,7 C 15,0 C 40 % 1025,9 hPa 0,0 l/m 11,1 km/h (2 Bft) N-NW 328 0 min 1,2 UV-I 305 W/m 0,4 C 11,2 C 14,5 km/h (3 Bft)
06.05.2020 18:52 13,7 C 15,0 C 40 % 1025,9 hPa 0,0 l/m 10,1 km/h (2 Bft) N 5 0 min 1,2 UV-I 299 W/m 0,4 C 11,6 C 16,1 km/h (3 Bft)
06.05.2020 18:54 13,6 C 15,0 C 37 % 1025,9 hPa 0,0 l/m 10,1 km/h (2 Bft) N 5 0 min 1,1 UV-I 294 W/m -0,8 C 11,5 C 19,3 km/h (3 Bft)
06.05.2020 18:56 13,6 C 14,4 C 42 % 1025,9 hPa 0,0 l/m 8,6 km/h (2 Bft) N 5 0 min 1,1 UV-I 288 W/m 0,9 C 12,3 C 11,3 km/h (2 Bft)
06.05.2020 18:58 13,6 C 14,4 C 42 % 1025,9 hPa 0,0 l/m 7,4 km/h (2 Bft) N-NW 346 0 min 1,1 UV-I 282 W/m 0,9 C 13,0 C 11,3 km/h (2 Bft)
06.05.2020 19:00 13,6 C 14,4 C 43 % 1025,9 hPa 0,0 l/m 9,5 km/h (2 Bft) N-NO 23 0 min 1,0 UV-I 276 W/m 1,3 C 11,8 C 16,1 km/h (3 Bft)
06.05.2020 19:02 13,5 C 14,4 C 40 % 1025,9 hPa 0,0 l/m 13,7 km/h (3 Bft) N 5 0 min 1,0 UV-I 271 W/m 0,2 C 9,9 C 17,7 km/h (3 Bft)
06.05.2020 19:04 13,4 C 15,0 C 42 % 1026,0 hPa 0,0 l/m 10,2 km/h (2 Bft) N-NO 17 0 min 1,0 UV-I 266 W/m 0,8 C 11,3 C 14,5 km/h (3 Bft)
06.05.2020 19:06 13,3 C 16,1 C 42 % 1026,0 hPa 0,0 l/m 11,3 km/h (2 Bft) N-NW 342 0 min 0,9 UV-I 260 W/m 0,7 C 10,6 C 17,7 km/h (3 Bft)
06.05.2020 19:08 13,3 C 16,1 C 42 % 1026,0 hPa 0,0 l/m 7,0 km/h (2 Bft) N-NO 24 0 min 0,9 UV-I 254 W/m 0,7 C 12,9 C 9,7 km/h (2 Bft)
06.05.2020 19:10 13,2 C 16,1 C 44 % 1025,9 hPa 0,0 l/m 7,5 km/h (2 Bft) N-NO 17 0 min 0,9 UV-I 249 W/m 1,2 C 12,5 C 14,5 km/h (3 Bft)
06.05.2020 19:12 13,2 C 16,1 C 41 % 1026,0 hPa 0,0 l/m 14,6 km/h (3 Bft) N 355 0 min 0,9 UV-I 243 W/m 0,2 C 9,2 C 17,7 km/h (3 Bft)
06.05.2020 19:14 13,2 C 16,1 C 39 % 1026,0 hPa 0,0 l/m 13,0 km/h (3 Bft) N 360 0 min 0,8 UV-I 237 W/m -0,4 C 9,8 C 19,3 km/h (3 Bft)
06.05.2020 19:16 13,2 C 16,1 C 41 % 1026,0 hPa 0,0 l/m 9,5 km/h (2 Bft) N 360 0 min 0,8 UV-I 230 W/m 0,2 C 11,4 C 14,5 km/h (3 Bft)
06.05.2020 19:18 13,2 C 16,1 C 40 % 1025,9 hPa 0,0 l/m 10,3 km/h (2 Bft) N-NW 342 0 min 0,8 UV-I 225 W/m -0,1 C 11,0 C 16,1 km/h (3 Bft)
06.05.2020 19:20 13,2 C 15,6 C 40 % 1026,0 hPa 0,0 l/m 11,6 km/h (2 Bft) N-NW 346 0 min 0,7 UV-I 219 W/m -0,1 C 10,4 C 17,7 km/h (3 Bft)
06.05.2020 19:22 13,2 C 15,6 C 43 % 1026,0 hPa 0,0 l/m 10,4 km/h (2 Bft) N-NW 331 0 min 0,7 UV-I 212 W/m 0,9 C 10,9 C 17,7 km/h (3 Bft)
06.05.2020 19:24 13,1 C 15,6 C 41 % 1026,0 hPa 0,0 l/m 8,2 km/h (2 Bft) N 355 0 min 0,7 UV-I 206 W/m 0,2 C 12,0 C 14,5 km/h (3 Bft)
06.05.2020 19:26 13,1 C 15,6 C 42 % 1026,1 hPa 0,0 l/m 6,0 km/h (2 Bft) N-NW 348 0 min 0,7 UV-I 199 W/m 0,5 C 13,1 C 14,5 km/h (3 Bft)
06.05.2020 19:28 13,1 C 15,0 C 40 % 1026,1 hPa 0,0 l/m 11,3 km/h (2 Bft) N-NW 341 0 min 0,6 UV-I 192 W/m -0,2 C 10,4 C 17,7 km/h (3 Bft)
06.05.2020 19:30 13,1 C 15,0 C 40 % 1026,1 hPa 0,0 l/m 9,1 km/h (2 Bft) NW 325 0 min 0,6 UV-I 186 W/m -0,2 C 11,5 C 14,5 km/h (3 Bft)
06.05.2020 19:32 13,1 C 14,4 C 40 % 1026,2 hPa 0,0 l/m 9,6 km/h (2 Bft) N-NW 347 0 min 0,6 UV-I 179 W/m -0,2 C 11,2 C 12,9 km/h (3 Bft)
06.05.2020 19:34 13,1 C 13,9 C 40 % 1026,1 hPa 0,0 l/m 10,7 km/h (2 Bft) N 355 0 min 0,6 UV-I 172 W/m -0,2 C 10,7 C 14,5 km/h (3 Bft)
06.05.2020 19:36 12,9 C 13,3 C 40 % 1026,3 hPa 0,0 l/m 13,4 km/h (3 Bft) N-NW 347 0 min 0,6 UV-I 165 W/m -0,4 C 9,3 C 19,3 km/h (3 Bft)
06.05.2020 19:38 12,9 C 13,3 C 41 % 1026,2 hPa 0,0 l/m 14,8 km/h (3 Bft) N 5 0 min 0,5 UV-I 158 W/m -0,0 C 8,7 C 17,7 km/h (3 Bft)
06.05.2020 19:40 12,8 C 12,8 C 41 % 1026,2 hPa 0,0 l/m 7,7 km/h (2 Bft) N-NO 16 0 min 0,5 UV-I 152 W/m -0,1 C 12,0 C 12,9 km/h (3 Bft)
06.05.2020 19:42 12,7 C 12,8 C 41 % 1026,2 hPa 0,0 l/m 9,4 km/h (2 Bft) N 5 0 min 0,5 UV-I 145 W/m -0,2 C 10,9 C 14,5 km/h (3 Bft)
06.05.2020 19:44 12,6 C 12,2 C 40 % 1026,3 hPa 0,0 l/m 12,1 km/h (2 Bft) N-NO 19 0 min 0,5 UV-I 138 W/m -0,6 C 9,5 C 16,1 km/h (3 Bft)
06.05.2020 19:46 12,6 C 12,2 C 41 % 1026,2 hPa 0,0 l/m 13,7 km/h (3 Bft) N 5 0 min 0,2 UV-I 132 W/m -0,3 C 8,8 C 17,7 km/h (3 Bft)
06.05.2020 19:48 12,5 C 12,2 C 42 % 1026,3 hPa 0,0 l/m 10,1 km/h (2 Bft) N 355 0 min 0,0 UV-I 126 W/m -0,1 C 10,3 C 14,5 km/h (3 Bft)
06.05.2020 19:50 12,4 C 11,7 C 42 % 1026,3 hPa 0,0 l/m 5,9 km/h (2 Bft) N-NO 19 0 min 0,0 UV-I 119 W/m -0,1 C 12,4 C 9,7 km/h (2 Bft)
06.05.2020 19:52 12,3 C 11,7 C 42 % 1026,2 hPa 0,0 l/m 7,9 km/h (2 Bft) N 5 0 min 0,0 UV-I 114 W/m -0,2 C 11,3 C 14,5 km/h (3 Bft)
06.05.2020 19:54 12,3 C 11,7 C 42 % 1026,2 hPa 0,0 l/m 10,3 km/h (2 Bft) N-NW 348 0 min 0,0 UV-I 107 W/m -0,2 C 10,0 C 16,1 km/h (3 Bft)
06.05.2020 19:56 12,3 C 11,1 C 42 % 1026,2 hPa 0,0 l/m 11,4 km/h (2 Bft) N-NO 12 0 min 0,0 UV-I 102 W/m -0,2 C 9,4 C 16,1 km/h (3 Bft)
06.05.2020 19:58 12,1 C 11,1 C 43 % 1026,2 hPa 0,0 l/m 9,6 km/h (2 Bft) N-NO 25 0 min 0,0 UV-I 96 W/m -0,1 C 10,1 C 14,5 km/h (3 Bft)
06.05.2020 20:00 11,9 C 10,6 C 44 % 1026,2 hPa 0,0 l/m 7,1 km/h (2 Bft) N-NO 16 0 min 0,0 UV-I 90 W/m 0,0 C 11,4 C 12,9 km/h (3 Bft)
06.05.2020 20:02 11,8 C 10,0 C 43 % 1026,2 hPa 0,0 l/m 8,1 km/h (2 Bft) N-NO 24 0 min 0,0 UV-I 85 W/m -0,4 C 10,7 C 12,9 km/h (3 Bft)
06.05.2020 20:04 11,9 C 10,0 C 43 % 1026,2 hPa 0,0 l/m 10,2 km/h (2 Bft) N 351 0 min 0,0 UV-I 76 W/m -0,3 C 9,6 C 12,9 km/h (3 Bft)
06.05.2020 20:06 12,0 C 10,0 C 44 % 1026,2 hPa 0,0 l/m 7,4 km/h (2 Bft) N 360 0 min 0,0 UV-I 58 W/m 0,1 C 11,3 C 9,7 km/h (2 Bft)
06.05.2020 20:08 11,9 C 10,0 C 44 % 1026,2 hPa 0,0 l/m 8,4 km/h (2 Bft) N 360 0 min 0,0 UV-I 44 W/m 0,0 C 10,6 C 12,9 km/h (3 Bft)
06.05.2020 20:10 11,8 C 9,4 C 45 % 1026,3 hPa 0,0 l/m 8,9 km/h (2 Bft) N-NO 23 0 min 0,0 UV-I 29 W/m 0,3 C 10,2 C 14,5 km/h (3 Bft)
06.05.2020 20:12 11,7 C 9,4 C 45 % 1026,3 hPa 0,0 l/m 8,6 km/h (2 Bft) N-NO 13 0 min 0,0 UV-I 21 W/m 0,2 C 10,3 C 14,5 km/h (3 Bft)
06.05.2020 20:14 11,6 C 9,4 C 44 % 1026,3 hPa 0,0 l/m 8,7 km/h (2 Bft) N 360 0 min 0,0 UV-I 21 W/m -0,2 C 10,1 C 12,9 km/h (3 Bft)
06.05.2020 20:16 11,5 C 9,4 C 44 % 1026,3 hPa 0,0 l/m 7,2 km/h (2 Bft) N 350 0 min 0,0 UV-I 20 W/m -0,3 C 11,0 C 9,7 km/h (2 Bft)
06.05.2020 20:18 11,4 C 8,9 C 45 % 1026,3 hPa 0,0 l/m 8,2 km/h (2 Bft) N 360 0 min 0,0 UV-I 19 W/m -0,1 C 10,2 C 14,5 km/h (3 Bft)
06.05.2020 20:20 11,4 C 8,9 C 45 % 1026,3 hPa 0,0 l/m 9,1 km/h (2 Bft) N 5 0 min 0,0 UV-I 19 W/m -0,1 C 9,6 C 12,9 km/h (3 Bft)
06.05.2020 20:22 11,4 C 8,9 C 45 % 1026,3 hPa 0,0 l/m 9,0 km/h (2 Bft) N 355 0 min 0,0 UV-I 18 W/m -0,1 C 9,7 C 12,9 km/h (3 Bft)
06.05.2020 20:24 11,3 C 8,9 C 45 % 1026,3 hPa 0,0 l/m 8,4 km/h (2 Bft) N 10 0 min 0,0 UV-I 18 W/m -0,2 C 10,0 C 12,9 km/h (3 Bft)
06.05.2020 20:26 11,3 C 8,9 C 45 % 1026,3 hPa 0,0 l/m 7,3 km/h (2 Bft) N 9 0 min 0,0 UV-I 18 W/m -0,2 C 10,7 C 9,7 km/h (2 Bft)
06.05.2020 20:28 11,1 C 8,3 C 46 % 1026,3 hPa 0,0 l/m 6,0 km/h (2 Bft) N 5 0 min 0,0 UV-I 16 W/m -0,1 C 11,1 C 8,0 km/h (2 Bft)
06.05.2020 20:30 11,0 C 8,3 C 47 % 1026,3 hPa 0,0 l/m 5,7 km/h (1 Bft) N 5 0 min 0,0 UV-I 16 W/m 0,1 C 11,0 C 8,0 km/h (2 Bft)
06.05.2020 20:32 10,9 C 7,8 C 46 % 1026,3 hPa 0,0 l/m 4,6 km/h (1 Bft) N 9 0 min 0,0 UV-I 16 W/m -0,3 C 10,9 C 6,4 km/h (2 Bft)
06.05.2020 20:34 10,8 C 7,8 C 46 % 1026,3 hPa 0,0 l/m 5,1 km/h (1 Bft) N 9 0 min 0,0 UV-I 14 W/m -0,3 C 10,8 C 6,4 km/h (2 Bft)
06.05.2020 20:36 10,8 C 7,8 C 47 % 1026,3 hPa 0,0 l/m 5,3 km/h (1 Bft) N 9 0 min 0,0 UV-I 14 W/m -0,1 C 10,8 C 6,4 km/h (2 Bft)
06.05.2020 20:38 10,8 C 7,8 C 46 % 1026,3 hPa 0,0 l/m 5,4 km/h (1 Bft) N 11 0 min 0,0 UV-I 13 W/m -0,3 C 10,8 C 6,4 km/h (2 Bft)
06.05.2020 20:40 10,8 C 7,8 C 47 % 1026,3 hPa 0,0 l/m 5,3 km/h (1 Bft) N 9 0 min 0,0 UV-I 12 W/m -0,1 C 10,8 C 6,4 km/h (2 Bft)
06.05.2020 20:42 10,7 C 7,8 C 47 % 1026,3 hPa 0,0 l/m 5,6 km/h (1 Bft) N-NO 15 0 min 0,0 UV-I 11 W/m -0,1 C 10,7 C 8,0 km/h (2 Bft)
06.05.2020 20:44 10,6 C 7,8 C 47 % 1026,3 hPa 0,0 l/m 5,2 km/h (1 Bft) N-NO 13 0 min 0,0 UV-I 11 W/m -0,2 C 10,6 C 6,4 km/h (2 Bft)
06.05.2020 20:46 10,6 C 7,2 C 47 % 1026,3 hPa 0,0 l/m 5,2 km/h (1 Bft) N 9 0 min 0,0 UV-I 10 W/m -0,2 C 10,6 C 8,0 km/h (2 Bft)
06.05.2020 20:48 10,5 C 7,2 C 48 % 1026,5 hPa 0,0 l/m 6,4 km/h (2 Bft) N 5 0 min 0,0 UV-I 9 W/m -0,0 C 10,5 C 8,0 km/h (2 Bft)
06.05.2020 20:50 10,5 C 7,2 C 48 % 1026,4 hPa 0,0 l/m 7,2 km/h (2 Bft) N 5 0 min 0,0 UV-I 9 W/m -0,0 C 9,9 C 8,0 km/h (2 Bft)
06.05.2020 20:52 10,4 C 7,2 C 48 % 1026,3 hPa 0,0 l/m 7,4 km/h (2 Bft) N 5 0 min 0,0 UV-I 8 W/m -0,1 C 9,7 C 8,0 km/h (2 Bft)
06.05.2020 20:54 10,3 C 7,2 C 48 % 1026,5 hPa 0,0 l/m 7,4 km/h (2 Bft) N 355 0 min 0,0 UV-I 7 W/m -0,2 C 9,6 C 9,7 km/h (2 Bft)
06.05.2020 20:56 10,3 C 7,2 C 48 % 1026,4 hPa 0,0 l/m 7,3 km/h (2 Bft) N 355 0 min 0,0 UV-I 7 W/m -0,2 C 9,7 C 9,7 km/h (2 Bft)
06.05.2020 20:58 10,3 C 7,2 C 49 % 1026,5 hPa 0,0 l/m 7,9 km/h (2 Bft) N 360 0 min 0,0 UV-I 5 W/m 0,1 C 9,2 C 9,7 km/h (2 Bft)
06.05.2020 21:00 10,2 C 6,7 C 49 % 1026,5 hPa 0,0 l/m 7,1 km/h (2 Bft) N 350 0 min 0,0 UV-I 5 W/m -0,0 C 9,7 C 9,7 km/h (2 Bft)
06.05.2020 21:02 10,1 C 6,7 C 49 % 1026,5 hPa 0,0 l/m 6,9 km/h (2 Bft) N 351 0 min 0,0 UV-I 4 W/m -0,1 C 9,7 C 8,0 km/h (2 Bft)
06.05.2020 21:04 10,1 C 6,7 C 49 % 1026,4 hPa 0,0 l/m 5,4 km/h (1 Bft) N 355 0 min 0,0 UV-I 0 W/m -0,1 C 10,1 C 8,0 km/h (2 Bft)
06.05.2020 21:06 9,9 C 6,1 C 50 % 1026,5 hPa 0,0 l/m 3,6 km/h (1 Bft) N 355 0 min 0,0 UV-I 0 W/m -0,0 C 9,9 C 6,4 km/h (2 Bft)
06.05.2020 21:08 9,8 C 6,1 C 51 % 1026,6 hPa 0,0 l/m 3,1 km/h (1 Bft) N 355 0 min 0,0 UV-I 0 W/m 0,2 C 9,8 C 4,8 km/h (1 Bft)
06.05.2020 21:10 9,3 C 6,1 C 55 % 1026,5 hPa 0,0 l/m 0,8 km/h (0 Bft) N 355 0 min 0,0 UV-I 0 W/m 0,7 C 9,3 C 3,2 km/h (1 Bft)
06.05.2020 21:12 8,9 C 5,6 C 56 % 1026,6 hPa 0,0 l/m 0,7 km/h (0 Bft) N 355 0 min 0,0 UV-I 0 W/m 0,6 C 8,9 C 3,2 km/h (1 Bft)
06.05.2020 21:14 8,7 C 5,6 C 57 % 1026,7 hPa 0,0 l/m 0,0 km/h (0 Bft) N 355 0 min 0,0 UV-I 0 W/m 0,7 C 8,7 C 0,0 km/h (0 Bft)
06.05.2020 21:16 8,8 C 5,0 C 56 % 1026,7 hPa 0,0 l/m 0,0 km/h (0 Bft) N 355 0 min 0,0 UV-I 0 W/m 0,5 C 8,8 C 0,0 km/h (0 Bft)
06.05.2020 21:18 8,9 C 5,0 C 55 % 1026,6 hPa 0,0 l/m 0,2 km/h (0 Bft) N 355 0 min 0,0 UV-I 0 W/m 0,4 C 8,9 C 1,6 km/h (1 Bft)
06.05.2020 21:20 8,9 C 5,0 C 55 % 1026,7 hPa 0,0 l/m 0,0 km/h (0 Bft) N 355 0 min 0,0 UV-I 0 W/m 0,4 C 8,9 C 0,0 km/h (0 Bft)
06.05.2020 21:22 8,9 C 5,0 C 54 % 1026,6 hPa 0,0 l/m 0,0 km/h (0 Bft) N 355 0 min 0,0 UV-I 0 W/m 0,1 C 8,9 C 0,0 km/h (0 Bft)
06.05.2020 21:24 9,0 C 5,0 C 54 % 1026,6 hPa 0,0 l/m 1,6 km/h (1 Bft) N 355 0 min 0,0 UV-I 0 W/m 0,2 C 9,0 C 3,2 km/h (1 Bft)
06.05.2020 21:26 9,0 C 5,0 C 55 % 1026,7 hPa 0,0 l/m 0,9 km/h (0 Bft) N 355 0 min 0,0 UV-I 0 W/m 0,5 C 9,0 C 1,6 km/h (1 Bft)
06.05.2020 21:28 8,8 C 4,4 C 56 % 1026,8 hPa 0,0 l/m 0,8 km/h (0 Bft) N 355 0 min 0,0 UV-I 0 W/m 0,5 C 8,8 C 1,6 km/h (1 Bft)
06.05.2020 21:30 8,7 C 4,4 C 57 % 1026,8 hPa 0,0 l/m 0,5 km/h (0 Bft) N 355 0 min 0,0 UV-I 0 W/m 0,7 C 8,7 C 1,6 km/h (1 Bft)
06.05.2020 21:32 8,5 C 4,4 C 58 % 1026,8 hPa 0,0 l/m 0,2 km/h (0 Bft) N 355 0 min 0,0 UV-I 0 W/m 0,7 C 8,5 C 1,6 km/h (1 Bft)
06.05.2020 21:34 8,4 C 3,9 C 58 % 1026,8 hPa 0,0 l/m 0,1 km/h (0 Bft) N 355 0 min 0,0 UV-I 0 W/m 0,6 C 8,4 C 1,6 km/h (1 Bft)
06.05.2020 21:36 8,2 C 3,9 C 59 % 1026,8 hPa 0,0 l/m 0,0 km/h (0 Bft) N 355 0 min 0,0 UV-I 0 W/m 0,7 C 8,2 C 0,0 km/h (0 Bft)
06.05.2020 21:38 7,9 C 3,9 C 60 % 1026,8 hPa 0,0 l/m 0,0 km/h (0 Bft) N 355 0 min 0,0 UV-I 0 W/m 0,6 C 7,9 C 0,0 km/h (0 Bft)
06.05.2020 21:40 7,7 C 3,9 C 61 % 1026,8 hPa 0,0 l/m 0,0 km/h (0 Bft) N 355 0 min 0,0 UV-I 0 W/m 0,7 C 7,7 C 0,0 km/h (0 Bft)
06.05.2020 21:42 7,7 C 3,9 C 61 % 1026,8 hPa 0,0 l/m 0,0 km/h (0 Bft) N 355 0 min 0,0 UV-I 0 W/m 0,7 C 7,7 C 0,0 km/h (0 Bft)
06.05.2020 21:44 7,6 C 3,9 C 60 % 1026,9 hPa 0,0 l/m 0,0 km/h (0 Bft) N 355 0 min 0,0 UV-I 0 W/m 0,3 C 7,6 C 0,0 km/h (0 Bft)
06.05.2020 21:46 7,6 C 3,9 C 61 % 1026,8 hPa 0,0 l/m 0,0 km/h (0 Bft) N 355 0 min 0,0 UV-I 0 W/m 0,6 C 7,6 C 0,0 km/h (0 Bft)
06.05.2020 21:48 7,4 C 3,9 C 61 % 1026,8 hPa 0,0 l/m 0,7 km/h (0 Bft) N 355 0 min 0,0 UV-I 0 W/m 0,4 C 7,4 C 1,6 km/h (1 Bft)
06.05.2020 21:50 7,4 C 3,9 C 61 % 1026,9 hPa 0,0 l/m 0,5 km/h (0 Bft) N 355 0 min 0,0 UV-I 0 W/m 0,4 C 7,4 C 1,6 km/h (1 Bft)
06.05.2020 21:52 7,4 C 3,9 C 62 % 1026,9 hPa 0,0 l/m 0,0 km/h (0 Bft) N 355 0 min 0,0 UV-I 0 W/m 0,6 C 7,4 C 0,0 km/h (0 Bft)
06.05.2020 21:54 7,2 C 3,3 C 62 % 1027,0 hPa 0,0 l/m 0,0 km/h (0 Bft) N 355 0 min 0,0 UV-I 0 W/m 0,4 C 7,2 C 0,0 km/h (0 Bft)
06.05.2020 21:56 7,2 C 3,3 C 63 % 1027,0 hPa 0,0 l/m 0,0 km/h (0 Bft) N 355 0 min 0,0 UV-I 0 W/m 0,6 C 7,2 C 0,0 km/h (0 Bft)
06.05.2020 21:58 7,1 C 3,3 C 64 % 1027,0 hPa 0,0 l/m 0,0 km/h (0 Bft) N 355 0 min 0,0 UV-I 0 W/m 0,8 C 7,1 C 0,0 km/h (0 Bft)
06.05.2020 22:00 6,8 C 3,3 C 65 % 1026,9 hPa 0,0 l/m 0,0 km/h (0 Bft) N 355 0 min 0,0 UV-I 0 W/m 0,7 C 6,8 C 0,0 km/h (0 Bft)
06.05.2020 22:02 6,7 C 2,8 C 67 % 1027,0 hPa 0,0 l/m 0,0 km/h (0 Bft) N 355 0 min 0,0 UV-I 0 W/m 1,0 C 6,7 C 0,0 km/h (0 Bft)
06.05.2020 22:04 6,5 C 2,8 C 67 % 1026,9 hPa 0,0 l/m 0,0 km/h (0 Bft) N 355 0 min 0,0 UV-I 0 W/m 0,8 C 6,5 C 0,0 km/h (0 Bft)
06.05.2020 22:06 6,3 C 2,8 C 67 % 1026,9 hPa 0,0 l/m 0,0 km/h (0 Bft) N 355 0 min 0,0 UV-I 0 W/m 0,6 C 6,3 C 0,0 km/h (0 Bft)
06.05.2020 22:08 6,1 C 2,8 C 68 % 1027,0 hPa 0,0 l/m 0,0 km/h (0 Bft) N 355 0 min 0,0 UV-I 0 W/m 0,6 C 6,1 C 0,0 km/h (0 Bft)
06.05.2020 22:10 6,1 C 2,8 C 69 % 1027,0 hPa 0,0 l/m 0,0 km/h (0 Bft) N 355 0 min 0,0 UV-I 0 W/m 0,8 C 6,1 C 0,0 km/h (0 Bft)
06.05.2020 22:12 6,1 C 2,8 C 68 % 1027,0 hPa 0,0 l/m 0,0 km/h (0 Bft) N 355 0 min 0,0 UV-I 0 W/m 0,6 C 6,1 C 0,0 km/h (0 Bft)
06.05.2020 22:14 6,1 C 2,8 C 69 % 1027,1 hPa 0,0 l/m 0,0 km/h (0 Bft) N 355 0 min 0,0 UV-I 0 W/m 0,8 C 6,1 C 0,0 km/h (0 Bft)
06.05.2020 22:16 6,0 C 2,8 C 69 % 1027,1 hPa 0,0 l/m 0,0 km/h (0 Bft) N 355 0 min 0,0 UV-I 0 W/m 0,8 C 6,0 C 0,0 km/h (0 Bft)
06.05.2020 22:18 6,0 C 2,8 C 69 % 1027,1 hPa 0,0 l/m 0,0 km/h (0 Bft) N 355 0 min 0,0 UV-I 0 W/m 0,8 C 6,0 C 0,0 km/h (0 Bft)
06.05.2020 22:20 6,0 C 2,8 C 69 % 1027,1 hPa 0,0 l/m 0,0 km/h (0 Bft) N 355 0 min 0,0 UV-I 0 W/m 0,8 C 6,0 C 0,0 km/h (0 Bft)
06.05.2020 22:22 5,9 C 2,2 C 69 % 1027,1 hPa 0,0 l/m 0,0 km/h (0 Bft) N 355 0 min 0,0 UV-I 0 W/m 0,7 C 5,9 C 0,0 km/h (0 Bft)
06.05.2020 22:24 5,8 C 2,2 C 69 % 1027,1 hPa 0,0 l/m 0,0 km/h (0 Bft) N 355 0 min 0,0 UV-I 0 W/m 0,6 C 5,8 C 0,0 km/h (0 Bft)
06.05.2020 22:26 5,7 C 2,2 C 70 % 1027,1 hPa 0,0 l/m 0,0 km/h (0 Bft) N 355 0 min 0,0 UV-I 0 W/m 0,7 C 5,7 C 0,0 km/h (0 Bft)
06.05.2020 22:28 5,5 C 2,2 C 71 % 1027,1 hPa 0,0 l/m 0,0 km/h (0 Bft) N 355 0 min 0,0 UV-I 0 W/m 0,7 C 5,5 C 0,0 km/h (0 Bft)
06.05.2020 22:30 5,4 C 2,2 C 72 % 1027,1 hPa 0,0 l/m 0,0 km/h (0 Bft) N 355 0 min 0,0 UV-I 0 W/m 0,8 C 5,4 C 0,0 km/h (0 Bft)
06.05.2020 22:32 5,3 C 2,2 C 72 % 1027,1 hPa 0,0 l/m 0,0 km/h (0 Bft) N 355 0 min 0,0 UV-I 0 W/m 0,7 C 5,3 C 0,0 km/h (0 Bft)
06.05.2020 22:34 5,3 C 1,7 C 72 % 1027,3 hPa 0,0 l/m 0,0 km/h (0 Bft) N 355 0 min 0,0 UV-I 0 W/m 0,7 C 5,3 C 1,6 km/h (1 Bft)
06.05.2020 22:36 5,3 C 1,7 C 72 % 1027,1 hPa 0,0 l/m 0,0 km/h (0 Bft) N 355 0 min 0,0 UV-I 0 W/m 0,7 C 5,3 C 0,0 km/h (0 Bft)
06.05.2020 22:38 5,3 C 1,7 C 72 % 1027,3 hPa 0,0 l/m 0,0 km/h (0 Bft) N 355 0 min 0,0 UV-I 0 W/m 0,7 C 5,3 C 0,0 km/h (0 Bft)
06.05.2020 22:40 5,1 C 1,7 C 73 % 1027,2 hPa 0,0 l/m 0,0 km/h (0 Bft) N 355 0 min 0,0 UV-I 0 W/m 0,7 C 5,1 C 0,0 km/h (0 Bft)
06.05.2020 22:42 4,9 C 1,7 C 73 % 1027,2 hPa 0,0 l/m 0,0 km/h (0 Bft) N 355 0 min 0,0 UV-I 0 W/m 0,5 C 4,9 C 0,0 km/h (0 Bft)
06.05.2020 22:44 4,9 C 1,7 C 74 % 1027,2 hPa 0,0 l/m 0,0 km/h (0 Bft) N 355 0 min 0,0 UV-I 0 W/m 0,7 C 4,9 C 0,0 km/h (0 Bft)
06.05.2020 22:46 4,9 C 1,7 C 73 % 1027,1 hPa 0,0 l/m 0,0 km/h (0 Bft) N 355 0 min 0,0 UV-I 0 W/m 0,5 C 4,9 C 0,0 km/h (0 Bft)
06.05.2020 22:48 4,8 C 1,7 C 74 % 1027,1 hPa 0,0 l/m 0,0 km/h (0 Bft) N 355 0 min 0,0 UV-I 0 W/m 0,6 C 4,8 C 0,0 km/h (0 Bft)
06.05.2020 22:50 4,8 C 1,7 C 75 % 1027,2 hPa 0,0 l/m 0,0 km/h (0 Bft) N 355 0 min 0,0 UV-I 0 W/m 0,8 C 4,8 C 0,0 km/h (0 Bft)
06.05.2020 22:52 4,8 C 1,7 C 75 % 1027,2 hPa 0,0 l/m 0,0 km/h (0 Bft) N 355 0 min 0,0 UV-I 0 W/m 0,8 C 4,8 C 0,0 km/h (0 Bft)
06.05.2020 22:54 4,8 C 1,7 C 75 % 1027,1 hPa 0,0 l/m 0,0 km/h (0 Bft) N 355 0 min 0,0 UV-I 0 W/m 0,8 C 4,8 C 0,0 km/h (0 Bft)
06.05.2020 22:56 4,6 C 1,7 C 75 % 1027,2 hPa 0,0 l/m 0,0 km/h (0 Bft) N 355 0 min 0,0 UV-I 0 W/m 0,6 C 4,6 C 0,0 km/h (0 Bft)
06.05.2020 22:58 4,4 C 1,1 C 75 % 1027,1 hPa 0,0 l/m 0,0 km/h (0 Bft) N 355 0 min 0,0 UV-I 0 W/m 0,4 C 4,4 C 0,0 km/h (0 Bft)
06.05.2020 23:00 4,2 C 1,1 C 76 % 1027,2 hPa 0,0 l/m 0,0 km/h (0 Bft) N 355 0 min 0,0 UV-I 0 W/m 0,4 C 4,2 C 0,0 km/h (0 Bft)
06.05.2020 23:02 4,1 C 1,1 C 77 % 1027,2 hPa 0,0 l/m 0,0 km/h (0 Bft) N 355 0 min 0,0 UV-I 0 W/m 0,4 C 4,1 C 0,0 km/h (0 Bft)
06.05.2020 23:04 4,1 C 1,1 C 77 % 1027,2 hPa 0,0 l/m 0,0 km/h (0 Bft) N 355 0 min 0,0 UV-I 0 W/m 0,4 C 4,1 C 0,0 km/h (0 Bft)
06.05.2020 23:06 4,1 C 1,1 C 77 % 1027,2 hPa 0,0 l/m 0,0 km/h (0 Bft) N 355 0 min 0,0 UV-I 0 W/m 0,4 C 4,1 C 1,6 km/h (1 Bft)
06.05.2020 23:08 4,1 C 1,7 C 77 % 1027,2 hPa 0,0 l/m 0,1 km/h (0 Bft) N 355 0 min 0,0 UV-I 0 W/m 0,4 C 4,1 C 1,6 km/h (1 Bft)
06.05.2020 23:10 4,1 C 1,7 C 77 % 1027,2 hPa 0,0 l/m 0,0 km/h (0 Bft) N 355 0 min 0,0 UV-I 0 W/m 0,4 C 4,1 C 0,0 km/h (0 Bft)
06.05.2020 23:12 4,1 C 1,1 C 77 % 1027,2 hPa 0,0 l/m 0,0 km/h (0 Bft) N 355 0 min 0,0 UV-I 0 W/m 0,4 C 4,1 C 0,0 km/h (0 Bft)
06.05.2020 23:14 3,9 C 1,1 C 77 % 1027,2 hPa 0,0 l/m 0,0 km/h (0 Bft) N 355 0 min 0,0 UV-I 0 W/m 0,2 C 3,9 C 0,0 km/h (0 Bft)
06.05.2020 23:16 3,8 C 1,1 C 77 % 1027,2 hPa 0,0 l/m 0,1 km/h (0 Bft) N 355 0 min 0,0 UV-I 0 W/m 0,1 C 3,8 C 1,6 km/h (1 Bft)
06.05.2020 23:18 3,7 C 1,1 C 78 % 1027,2 hPa 0,0 l/m 0,5 km/h (0 Bft) N 355 0 min 0,0 UV-I 0 W/m 0,2 C 3,7 C 1,6 km/h (1 Bft)
06.05.2020 23:20 3,7 C 1,1 C 79 % 1027,2 hPa 0,0 l/m 0,0 km/h (0 Bft) N 355 0 min 0,0 UV-I 0 W/m 0,4 C 3,7 C 0,0 km/h (0 Bft)
06.05.2020 23:22 3,7 C 1,1 C 78 % 1027,2 hPa 0,0 l/m 0,0 km/h (0 Bft) N 355 0 min 0,0 UV-I 0 W/m 0,2 C 3,7 C 0,0 km/h (0 Bft)
06.05.2020 23:24 3,7 C 0,6 C 78 % 1027,2 hPa 0,0 l/m 0,3 km/h (0 Bft) N 355 0 min 0,0 UV-I 0 W/m 0,2 C 3,7 C 1,6 km/h (1 Bft)
06.05.2020 23:26 3,7 C 1,1 C 78 % 1027,2 hPa 0,0 l/m 0,3 km/h (0 Bft) N 355 0 min 0,0 UV-I 0 W/m 0,2 C 3,7 C 1,6 km/h (1 Bft)
06.05.2020 23:28 3,7 C 1,1 C 78 % 1027,2 hPa 0,0 l/m 0,0 km/h (0 Bft) N 355 0 min 0,0 UV-I 0 W/m 0,2 C 3,7 C 0,0 km/h (0 Bft)
06.05.2020 23:30 3,6 C 1,1 C 78 % 1027,2 hPa 0,0 l/m 0,0 km/h (0 Bft) N 355 0 min 0,0 UV-I 0 W/m 0,1 C 3,6 C 0,0 km/h (0 Bft)
06.05.2020 23:32 3,4 C 1,1 C 79 % 1027,2 hPa 0,0 l/m 0,0 km/h (0 Bft) N 355 0 min 0,0 UV-I 0 W/m 0,1 C 3,4 C 0,0 km/h (0 Bft)
06.05.2020 23:34 3,4 C 0,6 C 79 % 1027,3 hPa 0,0 l/m 0,0 km/h (0 Bft) N 355 0 min 0,0 UV-I 0 W/m 0,1 C 3,4 C 0,0 km/h (0 Bft)
06.05.2020 23:36 3,6 C 0,6 C 79 % 1027,3 hPa 0,0 l/m 0,0 km/h (0 Bft) N 355 0 min 0,0 UV-I 0 W/m 0,3 C 3,6 C 0,0 km/h (0 Bft)
06.05.2020 23:38 3,6 C 0,6 C 79 % 1027,2 hPa 0,0 l/m 0,0 km/h (0 Bft) N 355 0 min 0,0 UV-I 0 W/m 0,3 C 3,6 C 0,0 km/h (0 Bft)
06.05.2020 23:40 3,6 C 0,6 C 79 % 1027,4 hPa 0,0 l/m 0,0 km/h (0 Bft) N 355 0 min 0,0 UV-I 0 W/m 0,3 C 3,6 C 0,0 km/h (0 Bft)
06.05.2020 23:42 3,6 C 0,6 C 79 % 1027,4 hPa 0,0 l/m 0,0 km/h (0 Bft) N 355 0 min 0,0 UV-I 0 W/m 0,3 C 3,6 C 0,0 km/h (0 Bft)
06.05.2020 23:44 3,3 C 0,6 C 79 % 1027,4 hPa 0,0 l/m 0,4 km/h (0 Bft) N 355 0 min 0,0 UV-I 0 W/m 0,0 C 3,3 C 1,6 km/h (1 Bft)
06.05.2020 23:46 3,1 C 0,6 C 79 % 1027,4 hPa 0,0 l/m 0,0 km/h (0 Bft) N 355 0 min 0,0 UV-I 0 W/m -0,2 C 3,1 C 0,0 km/h (0 Bft)
06.05.2020 23:48 3,0 C 0,6 C 81 % 1027,4 hPa 0,0 l/m 0,0 km/h (0 Bft) N 355 0 min 0,0 UV-I 0 W/m 0,1 C 3,0 C 0,0 km/h (0 Bft)
06.05.2020 23:50 2,9 C 0,0 C 81 % 1027,5 hPa 0,0 l/m 0,2 km/h (0 Bft) N 355 0 min 0,0 UV-I 0 W/m -0,0 C 2,9 C 1,6 km/h (1 Bft)
06.05.2020 23:52 2,9 C 0,6 C 81 % 1027,5 hPa 0,0 l/m 0,0 km/h (0 Bft) N 355 0 min 0,0 UV-I 0 W/m -0,0 C 2,9 C 0,0 km/h (0 Bft)
06.05.2020 23:54 3,0 C 0,0 C 82 % 1027,5 hPa 0,0 l/m 0,0 km/h (0 Bft) N 355 0 min 0,0 UV-I 0 W/m 0,2 C 3,0 C 0,0 km/h (0 Bft)
06.05.2020 23:56 3,1 C 0,0 C 81 % 1027,5 hPa 0,0 l/m 0,0 km/h (0 Bft) N 355 0 min 0,0 UV-I 0 W/m 0,2 C 3,1 C 0,0 km/h (0 Bft)
06.05.2020 23:58 3,1 C 0,0 C 81 % 1027,5 hPa 0,0 l/m 0,0 km/h (0 Bft) N 355 0 min 0,0 UV-I 0 W/m 0,2 C 3,1 C 0,0 km/h (0 Bft)
06.05.2020 23:59 3,1 C 0,0 C 81 % 1027,5 hPa 0,0 l/m 0,0 km/h (0 Bft) N 0 0 min 0,0 UV-I 0 W/m 0,2 C 3,1 C 0,0 km/h (0 Bft)
_ Min-Zeit 05:58 05:40 16:52 00:00 - 00:11 - - - - - 05:27 05:58 00:21
Minimum _ -2,3 C -4,4 C 32 % 1023,9 hPa - 0,0 km/h (0 Bft) - - - - - -3,6 C -2,3 C 0,0 km/h (0 Bft)
_ Max-Zeit 17:30 15:42 06:28 23:50 00:00 12:00 - - 10:22 13:12 13:56 15:02 17:20 09:54
Maximum _ 15,1 C 25,6 C 92 % 1027,5 hPa 0,0 l/m 19,8 km/h
O-NO (3 Bft)
- - 2 min 5,8 UV-I 857 W/m 2,3 C 15,0 C 29,0 km/h
O-NO (5 Bft)
Durchschnitt _ 7,2 C 8,7 C 62 % 1025,8 hPa #0,0 l/m 5,6 km/h (1 Bft) N-NO - #6:46 h 3,4 UV-I 483 W/m -0,5 C 6,0 C 9,0 km/h (2 Bft)